<?xml version="1.0" encoding="UTF-8" standalone="no" ?>
<gpx xmlns="http://www.topografix.com/GPX/1/1" xmlns:xsi="http://www.w3.org/2001/XMLSchema-instance" xsi:schemaLocation="http://www.topografix.com/GPX/1/1 http://www.topografix.com/GPX/1/1/gpx.xsd" version="1.1" creator="VisuGPX - https://www.visugpx.com">
  <metadata>
    <name>GR51 b IMPORT HW</name>
    <desc><![CDATA[ Trace du GR51B import HW  a tester]]></desc>
  </metadata>
  <trk>
    <name><![CDATA[GR51 Du Col de Testanier à Belgentier (Var)]]></name>
    <cmt><![CDATA[Randonnée pédestre avec le GR51, Balcon de la Méditerranée, à travers le Var du Col de Testanier à Belgentier. Gîtes d'étapes, Chambres d'hôtes, Refuges, Hôtels, Auberges, Maison d'hôtes, Camping, itinéraires, cartes, informations pratiques.]]></cmt>
    <desc><![CDATA[Randonnée pédestre avec le GR51, Balcon de la Méditerranée, à travers le Var du Col de Testanier à Belgentier. Gîtes d'étapes, Chambres d'hôtes, Refuges, Hôtels, Auberges, Maison d'hôtes, Camping, itinéraires, cartes, informations pratiques.]]></desc>
    <trkseg>
      <trkpt lat="43.50183" lon="6.79412">
        <ele>306</ele>
        <time>2017-03-04T12:31:35Z</time>
      </trkpt>
      <trkpt lat="43.50213" lon="6.79305">
        <ele>310</ele>
        <time>2017-03-04T12:31:55Z</time>
      </trkpt>
      <trkpt lat="43.50238" lon="6.79305">
        <ele>309</ele>
        <time>2017-03-04T12:32:15Z</time>
      </trkpt>
      <trkpt lat="43.50255" lon="6.79273">
        <ele>309</ele>
        <time>2017-03-04T12:32:35Z</time>
      </trkpt>
      <trkpt lat="43.5031" lon="6.79292">
        <ele>302</ele>
        <time>2017-03-04T12:32:55Z</time>
      </trkpt>
      <trkpt lat="43.50378" lon="6.7923">
        <ele>298</ele>
        <time>2017-03-04T12:33:15Z</time>
      </trkpt>
      <trkpt lat="43.50375" lon="6.7917">
        <ele>300</ele>
        <time>2017-03-04T12:33:35Z</time>
      </trkpt>
      <trkpt lat="43.50415" lon="6.79119">
        <ele>300</ele>
        <time>2017-03-04T12:33:55Z</time>
      </trkpt>
      <trkpt lat="43.50412" lon="6.7905">
        <ele>305</ele>
        <time>2017-03-04T12:34:15Z</time>
      </trkpt>
      <trkpt lat="43.50518" lon="6.79084">
        <ele>278</ele>
        <time>2017-03-04T12:34:35Z</time>
      </trkpt>
      <trkpt lat="43.50568" lon="6.78968">
        <ele>285</ele>
        <time>2017-03-04T12:34:55Z</time>
      </trkpt>
      <trkpt lat="43.50568" lon="6.78923">
        <ele>282</ele>
        <time>2017-03-04T12:35:15Z</time>
      </trkpt>
      <trkpt lat="43.50521" lon="6.78874">
        <ele>288</ele>
        <time>2017-03-04T12:35:35Z</time>
      </trkpt>
      <trkpt lat="43.5054" lon="6.78792">
        <ele>284</ele>
        <time>2017-03-04T12:35:55Z</time>
      </trkpt>
      <trkpt lat="43.50573" lon="6.7876">
        <ele>277</ele>
        <time>2017-03-04T12:36:15Z</time>
      </trkpt>
      <trkpt lat="43.50576" lon="6.78692">
        <ele>278</ele>
        <time>2017-03-04T12:36:35Z</time>
      </trkpt>
      <trkpt lat="43.50548" lon="6.7864">
        <ele>283</ele>
        <time>2017-03-04T12:36:55Z</time>
      </trkpt>
      <trkpt lat="43.50535" lon="6.78556">
        <ele>292</ele>
        <time>2017-03-04T12:37:15Z</time>
      </trkpt>
      <trkpt lat="43.50627" lon="6.78591">
        <ele>269</ele>
        <time>2017-03-04T12:37:35Z</time>
      </trkpt>
      <trkpt lat="43.50699" lon="6.78589">
        <ele>265</ele>
        <time>2017-03-04T12:37:55Z</time>
      </trkpt>
      <trkpt lat="43.50753" lon="6.78616">
        <ele>254</ele>
        <time>2017-03-04T12:38:15Z</time>
      </trkpt>
      <trkpt lat="43.50823" lon="6.78558">
        <ele>266</ele>
        <time>2017-03-04T12:38:35Z</time>
      </trkpt>
      <trkpt lat="43.50929" lon="6.7852">
        <ele>250</ele>
        <time>2017-03-04T12:38:55Z</time>
      </trkpt>
      <trkpt lat="43.50853" lon="6.78385">
        <ele>261</ele>
        <time>2017-03-04T12:39:15Z</time>
      </trkpt>
      <trkpt lat="43.50948" lon="6.78247">
        <ele>259</ele>
        <time>2017-03-04T12:39:35Z</time>
      </trkpt>
      <trkpt lat="43.51008" lon="6.78204">
        <ele>239</ele>
        <time>2017-03-04T12:39:55Z</time>
      </trkpt>
      <trkpt lat="43.51075" lon="6.7817">
        <ele>228</ele>
        <time>2017-03-04T12:40:15Z</time>
      </trkpt>
      <trkpt lat="43.51089" lon="6.78074">
        <ele>240</ele>
        <time>2017-03-04T12:40:35Z</time>
      </trkpt>
      <trkpt lat="43.51106" lon="6.78026">
        <ele>231</ele>
        <time>2017-03-04T12:40:55Z</time>
      </trkpt>
      <trkpt lat="43.51108" lon="6.77958">
        <ele>232</ele>
        <time>2017-03-04T12:41:15Z</time>
      </trkpt>
      <trkpt lat="43.5113" lon="6.77872">
        <ele>217</ele>
        <time>2017-03-04T12:41:35Z</time>
      </trkpt>
      <trkpt lat="43.51089" lon="6.77846">
        <ele>220</ele>
        <time>2017-03-04T12:41:55Z</time>
      </trkpt>
      <trkpt lat="43.50966" lon="6.77872">
        <ele>228</ele>
        <time>2017-03-04T12:42:15Z</time>
      </trkpt>
      <trkpt lat="43.50918" lon="6.77848">
        <ele>217</ele>
        <time>2017-03-04T12:42:35Z</time>
      </trkpt>
      <trkpt lat="43.50773" lon="6.77822">
        <ele>203</ele>
        <time>2017-03-04T12:42:55Z</time>
      </trkpt>
      <trkpt lat="43.50711" lon="6.77784">
        <ele>207</ele>
        <time>2017-03-04T12:43:15Z</time>
      </trkpt>
      <trkpt lat="43.50773" lon="6.77709">
        <ele>185</ele>
        <time>2017-03-04T12:43:35Z</time>
      </trkpt>
      <trkpt lat="43.50742" lon="6.77659">
        <ele>185</ele>
        <time>2017-03-04T12:43:55Z</time>
      </trkpt>
      <trkpt lat="43.50714" lon="6.77651">
        <ele>185</ele>
        <time>2017-03-04T12:44:15Z</time>
      </trkpt>
      <trkpt lat="43.50683" lon="6.77593">
        <ele>183</ele>
        <time>2017-03-04T12:44:35Z</time>
      </trkpt>
      <trkpt lat="43.50706" lon="6.77496">
        <ele>172</ele>
        <time>2017-03-04T12:44:55Z</time>
      </trkpt>
      <trkpt lat="43.50699" lon="6.77447">
        <ele>170</ele>
        <time>2017-03-04T12:45:15Z</time>
      </trkpt>
      <trkpt lat="43.50716" lon="6.774">
        <ele>164</ele>
        <time>2017-03-04T12:45:35Z</time>
      </trkpt>
      <trkpt lat="43.50706" lon="6.7732">
        <ele>150</ele>
        <time>2017-03-04T12:45:55Z</time>
      </trkpt>
      <trkpt lat="43.50706" lon="6.7732">
        <ele>150</ele>
        <time>2017-03-04T12:46:15Z</time>
      </trkpt>
      <trkpt lat="43.50776" lon="6.77258">
        <ele>143</ele>
        <time>2017-03-04T12:46:35Z</time>
      </trkpt>
      <trkpt lat="43.50823" lon="6.77273">
        <ele>143</ele>
        <time>2017-03-04T12:46:55Z</time>
      </trkpt>
      <trkpt lat="43.50873" lon="6.77217">
        <ele>121</ele>
        <time>2017-03-04T12:47:15Z</time>
      </trkpt>
      <trkpt lat="43.50842" lon="6.77179">
        <ele>122</ele>
        <time>2017-03-04T12:47:35Z</time>
      </trkpt>
      <trkpt lat="43.5084" lon="6.77144">
        <ele>114</ele>
        <time>2017-03-04T12:47:55Z</time>
      </trkpt>
      <trkpt lat="43.50803" lon="6.77099">
        <ele>112</ele>
        <time>2017-03-04T12:48:15Z</time>
      </trkpt>
      <trkpt lat="43.50811" lon="6.77024">
        <ele>100</ele>
        <time>2017-03-04T12:48:35Z</time>
      </trkpt>
      <trkpt lat="43.50834" lon="6.7702">
        <ele>98</ele>
        <time>2017-03-04T12:48:55Z</time>
      </trkpt>
      <trkpt lat="43.50832" lon="6.76934">
        <ele>91</ele>
        <time>2017-03-04T12:49:15Z</time>
      </trkpt>
      <trkpt lat="43.50809" lon="6.76883">
        <ele>84</ele>
        <time>2017-03-04T12:49:35Z</time>
      </trkpt>
      <trkpt lat="43.50761" lon="6.76885">
        <ele>83</ele>
        <time>2017-03-04T12:49:55Z</time>
      </trkpt>
      <trkpt lat="43.50734" lon="6.76964">
        <ele>86</ele>
        <time>2017-03-04T12:50:15Z</time>
      </trkpt>
      <trkpt lat="43.50725" lon="6.7687">
        <ele>79</ele>
        <time>2017-03-04T12:50:35Z</time>
      </trkpt>
      <trkpt lat="43.50767" lon="6.7681">
        <ele>76</ele>
        <time>2017-03-04T12:50:55Z</time>
      </trkpt>
      <trkpt lat="43.50776" lon="6.7675">
        <ele>70</ele>
        <time>2017-03-04T12:51:15Z</time>
      </trkpt>
      <trkpt lat="43.50766" lon="6.767">
        <ele>68</ele>
        <time>2017-03-04T12:51:35Z</time>
      </trkpt>
      <trkpt lat="43.50794" lon="6.76687">
        <ele>68</ele>
        <time>2017-03-04T12:51:55Z</time>
      </trkpt>
      <trkpt lat="43.50814" lon="6.7664">
        <ele>65</ele>
        <time>2017-03-04T12:52:15Z</time>
      </trkpt>
      <trkpt lat="43.50809" lon="6.76563">
        <ele>67</ele>
        <time>2017-03-04T12:52:35Z</time>
      </trkpt>
      <trkpt lat="43.50787" lon="6.76518">
        <ele>68</ele>
        <time>2017-03-04T12:52:55Z</time>
      </trkpt>
      <trkpt lat="43.50783" lon="6.76473">
        <ele>67</ele>
        <time>2017-03-04T12:53:15Z</time>
      </trkpt>
      <trkpt lat="43.50738" lon="6.76406">
        <ele>65</ele>
        <time>2017-03-04T12:53:35Z</time>
      </trkpt>
      <trkpt lat="43.50602" lon="6.76342">
        <ele>63</ele>
        <time>2017-03-04T12:53:55Z</time>
      </trkpt>
      <trkpt lat="43.50597" lon="6.7625">
        <ele>58</ele>
        <time>2017-03-04T12:54:15Z</time>
      </trkpt>
      <trkpt lat="43.50557" lon="6.76198">
        <ele>55</ele>
        <time>2017-03-04T12:54:35Z</time>
      </trkpt>
      <trkpt lat="43.50517" lon="6.76029">
        <ele>48</ele>
        <time>2017-03-04T12:54:55Z</time>
      </trkpt>
      <trkpt lat="43.50451" lon="6.75994">
        <ele>44</ele>
        <time>2017-03-04T12:55:15Z</time>
      </trkpt>
      <trkpt lat="43.50423" lon="6.75945">
        <ele>42</ele>
        <time>2017-03-04T12:55:35Z</time>
      </trkpt>
      <trkpt lat="43.50456" lon="6.75851">
        <ele>43</ele>
        <time>2017-03-04T12:55:55Z</time>
      </trkpt>
      <trkpt lat="43.50381" lon="6.75784">
        <ele>40</ele>
        <time>2017-03-04T12:56:15Z</time>
      </trkpt>
      <trkpt lat="43.50419" lon="6.75767">
        <ele>43</ele>
        <time>2017-03-04T12:56:35Z</time>
      </trkpt>
      <trkpt lat="43.50512" lon="6.7555">
        <ele>48</ele>
        <time>2017-03-04T12:56:55Z</time>
      </trkpt>
      <trkpt lat="43.50597" lon="6.75494">
        <ele>51</ele>
        <time>2017-03-04T12:57:15Z</time>
      </trkpt>
      <trkpt lat="43.50691" lon="6.75475">
        <ele>50</ele>
        <time>2017-03-04T12:57:35Z</time>
      </trkpt>
      <trkpt lat="43.50717" lon="6.75436">
        <ele>54</ele>
        <time>2017-03-04T12:57:55Z</time>
      </trkpt>
      <trkpt lat="43.50755" lon="6.75426">
        <ele>53</ele>
        <time>2017-03-04T12:58:15Z</time>
      </trkpt>
      <trkpt lat="43.50778" lon="6.75389">
        <ele>68</ele>
        <time>2017-03-04T12:58:35Z</time>
      </trkpt>
      <trkpt lat="43.50878" lon="6.75366">
        <ele>70</ele>
        <time>2017-03-04T12:58:55Z</time>
      </trkpt>
      <trkpt lat="43.50893" lon="6.75398">
        <ele>65</ele>
        <time>2017-03-04T12:59:15Z</time>
      </trkpt>
      <trkpt lat="43.5096" lon="6.7546">
        <ele>66</ele>
        <time>2017-03-04T12:59:35Z</time>
      </trkpt>
      <trkpt lat="43.50979" lon="6.75617">
        <ele>65</ele>
        <time>2017-03-04T12:59:55Z</time>
      </trkpt>
      <trkpt lat="43.51013" lon="6.75544">
        <ele>85</ele>
        <time>2017-03-04T13:00:15Z</time>
      </trkpt>
      <trkpt lat="43.51089" lon="6.75462">
        <ele>110</ele>
        <time>2017-03-04T13:00:35Z</time>
      </trkpt>
      <trkpt lat="43.51081" lon="6.75404">
        <ele>97</ele>
        <time>2017-03-04T13:00:55Z</time>
      </trkpt>
      <trkpt lat="43.51097" lon="6.75325">
        <ele>116</ele>
        <time>2017-03-04T13:01:15Z</time>
      </trkpt>
      <trkpt lat="43.5111" lon="6.75411">
        <ele>114</ele>
        <time>2017-03-04T13:01:35Z</time>
      </trkpt>
      <trkpt lat="43.5115" lon="6.75469">
        <ele>119</ele>
        <time>2017-03-04T13:01:55Z</time>
      </trkpt>
      <trkpt lat="43.51124" lon="6.75537">
        <ele>106</ele>
        <time>2017-03-04T13:02:15Z</time>
      </trkpt>
      <trkpt lat="43.51153" lon="6.75557">
        <ele>105</ele>
        <time>2017-03-04T13:02:35Z</time>
      </trkpt>
      <trkpt lat="43.51223" lon="6.75518">
        <ele>113</ele>
        <time>2017-03-04T13:02:55Z</time>
      </trkpt>
      <trkpt lat="43.51212" lon="6.75417">
        <ele>128</ele>
        <time>2017-03-04T13:03:15Z</time>
      </trkpt>
      <trkpt lat="43.51234" lon="6.75366">
        <ele>132</ele>
        <time>2017-03-04T13:03:35Z</time>
      </trkpt>
      <trkpt lat="43.51214" lon="6.75293">
        <ele>134</ele>
        <time>2017-03-04T13:03:55Z</time>
      </trkpt>
      <trkpt lat="43.51167" lon="6.75275">
        <ele>137</ele>
        <time>2017-03-04T13:04:15Z</time>
      </trkpt>
      <trkpt lat="43.51183" lon="6.75181">
        <ele>145</ele>
        <time>2017-03-04T13:04:35Z</time>
      </trkpt>
      <trkpt lat="43.51131" lon="6.75082">
        <ele>163</ele>
        <time>2017-03-04T13:04:55Z</time>
      </trkpt>
      <trkpt lat="43.51152" lon="6.75012">
        <ele>164</ele>
        <time>2017-03-04T13:05:15Z</time>
      </trkpt>
      <trkpt lat="43.5111" lon="6.74911">
        <ele>169</ele>
        <time>2017-03-04T13:05:35Z</time>
      </trkpt>
      <trkpt lat="43.51077" lon="6.749">
        <ele>184</ele>
        <time>2017-03-04T13:05:55Z</time>
      </trkpt>
      <trkpt lat="43.51046" lon="6.74797">
        <ele>182</ele>
        <time>2017-03-04T13:06:15Z</time>
      </trkpt>
      <trkpt lat="43.50983" lon="6.7472">
        <ele>194</ele>
        <time>2017-03-04T13:06:35Z</time>
      </trkpt>
      <trkpt lat="43.50971" lon="6.74655">
        <ele>184</ele>
        <time>2017-03-04T13:06:55Z</time>
      </trkpt>
      <trkpt lat="43.51011" lon="6.74585">
        <ele>175</ele>
        <time>2017-03-04T13:07:15Z</time>
      </trkpt>
      <trkpt lat="43.51088" lon="6.74587">
        <ele>167</ele>
        <time>2017-03-04T13:07:35Z</time>
      </trkpt>
      <trkpt lat="43.5112" lon="6.74542">
        <ele>159</ele>
        <time>2017-03-04T13:07:55Z</time>
      </trkpt>
      <trkpt lat="43.51119" lon="6.74471">
        <ele>148</ele>
        <time>2017-03-04T13:08:15Z</time>
      </trkpt>
      <trkpt lat="43.51187" lon="6.74346">
        <ele>125</ele>
        <time>2017-03-04T13:08:35Z</time>
      </trkpt>
      <trkpt lat="43.5127" lon="6.74318">
        <ele>109</ele>
        <time>2017-03-04T13:08:55Z</time>
      </trkpt>
      <trkpt lat="43.51302" lon="6.74168">
        <ele>99</ele>
        <time>2017-03-04T13:09:15Z</time>
      </trkpt>
      <trkpt lat="43.51343" lon="6.74153">
        <ele>96</ele>
        <time>2017-03-04T13:09:35Z</time>
      </trkpt>
      <trkpt lat="43.51357" lon="6.741">
        <ele>99</ele>
        <time>2017-03-04T13:09:55Z</time>
      </trkpt>
      <trkpt lat="43.51323" lon="6.74065">
        <ele>99</ele>
        <time>2017-03-04T13:10:15Z</time>
      </trkpt>
      <trkpt lat="43.5132" lon="6.73881">
        <ele>122</ele>
        <time>2017-03-04T13:10:35Z</time>
      </trkpt>
      <trkpt lat="43.51332" lon="6.73838">
        <ele>131</ele>
        <time>2017-03-04T13:10:55Z</time>
      </trkpt>
      <trkpt lat="43.51324" lon="6.7378">
        <ele>131</ele>
        <time>2017-03-04T13:11:15Z</time>
      </trkpt>
      <trkpt lat="43.51349" lon="6.73773">
        <ele>134</ele>
        <time>2017-03-04T13:11:35Z</time>
      </trkpt>
      <trkpt lat="43.51372" lon="6.73726">
        <ele>140</ele>
        <time>2017-03-04T13:11:55Z</time>
      </trkpt>
      <trkpt lat="43.51349" lon="6.73645">
        <ele>146</ele>
        <time>2017-03-04T13:12:15Z</time>
      </trkpt>
      <trkpt lat="43.5132" lon="6.73604">
        <ele>149</ele>
        <time>2017-03-04T13:12:35Z</time>
      </trkpt>
      <trkpt lat="43.51318" lon="6.73559">
        <ele>156</ele>
        <time>2017-03-04T13:12:55Z</time>
      </trkpt>
      <trkpt lat="43.51335" lon="6.73527">
        <ele>148</ele>
        <time>2017-03-04T13:13:15Z</time>
      </trkpt>
      <trkpt lat="43.51327" lon="6.73439">
        <ele>160</ele>
        <time>2017-03-04T13:13:35Z</time>
      </trkpt>
      <trkpt lat="43.51338" lon="6.73368">
        <ele>150</ele>
        <time>2017-03-04T13:13:55Z</time>
      </trkpt>
      <trkpt lat="43.51332" lon="6.73336">
        <ele>156</ele>
        <time>2017-03-04T13:14:15Z</time>
      </trkpt>
      <trkpt lat="43.51351" lon="6.73271">
        <ele>152</ele>
        <time>2017-03-04T13:14:35Z</time>
      </trkpt>
      <trkpt lat="43.51383" lon="6.73235">
        <ele>153</ele>
        <time>2017-03-04T13:14:55Z</time>
      </trkpt>
      <trkpt lat="43.51386" lon="6.73179">
        <ele>154</ele>
        <time>2017-03-04T13:15:15Z</time>
      </trkpt>
      <trkpt lat="43.51483" lon="6.73072">
        <ele>170</ele>
        <time>2017-03-04T13:15:35Z</time>
      </trkpt>
      <trkpt lat="43.51618" lon="6.73089">
        <ele>162</ele>
        <time>2017-03-04T13:15:55Z</time>
      </trkpt>
      <trkpt lat="43.51699" lon="6.72941">
        <ele>175</ele>
        <time>2017-03-04T13:16:15Z</time>
      </trkpt>
      <trkpt lat="43.5167" lon="6.72892">
        <ele>184</ele>
        <time>2017-03-04T13:16:35Z</time>
      </trkpt>
      <trkpt lat="43.51681" lon="6.72857">
        <ele>188</ele>
        <time>2017-03-04T13:16:55Z</time>
      </trkpt>
      <trkpt lat="43.51659" lon="6.72791">
        <ele>211</ele>
        <time>2017-03-04T13:17:15Z</time>
      </trkpt>
      <trkpt lat="43.51645" lon="6.72769">
        <ele>214</ele>
        <time>2017-03-04T13:17:35Z</time>
      </trkpt>
      <trkpt lat="43.51632" lon="6.72694">
        <ele>223</ele>
        <time>2017-03-04T13:17:55Z</time>
      </trkpt>
      <trkpt lat="43.51671" lon="6.72636">
        <ele>218</ele>
        <time>2017-03-04T13:18:15Z</time>
      </trkpt>
      <trkpt lat="43.51724" lon="6.72518">
        <ele>215</ele>
        <time>2017-03-04T13:18:35Z</time>
      </trkpt>
      <trkpt lat="43.51727" lon="6.7246">
        <ele>214</ele>
        <time>2017-03-04T13:18:55Z</time>
      </trkpt>
      <trkpt lat="43.51802" lon="6.72379">
        <ele>220</ele>
        <time>2017-03-04T13:19:15Z</time>
      </trkpt>
      <trkpt lat="43.51813" lon="6.72301">
        <ele>226</ele>
        <time>2017-03-04T13:19:35Z</time>
      </trkpt>
      <trkpt lat="43.51765" lon="6.72237">
        <ele>230</ele>
        <time>2017-03-04T13:19:55Z</time>
      </trkpt>
      <trkpt lat="43.51751" lon="6.72072">
        <ele>258</ele>
        <time>2017-03-04T13:20:15Z</time>
      </trkpt>
      <trkpt lat="43.51732" lon="6.72018">
        <ele>265</ele>
        <time>2017-03-04T13:20:35Z</time>
      </trkpt>
      <trkpt lat="43.51744" lon="6.71995">
        <ele>276</ele>
        <time>2017-03-04T13:20:55Z</time>
      </trkpt>
      <trkpt lat="43.51682" lon="6.71943">
        <ele>282</ele>
        <time>2017-03-04T13:21:15Z</time>
      </trkpt>
      <trkpt lat="43.51715" lon="6.71673">
        <ele>279</ele>
        <time>2017-03-04T13:21:35Z</time>
      </trkpt>
      <trkpt lat="43.51772" lon="6.71544">
        <ele>279</ele>
        <time>2017-03-04T13:21:55Z</time>
      </trkpt>
      <trkpt lat="43.51863" lon="6.71484">
        <ele>283</ele>
        <time>2017-03-04T13:22:15Z</time>
      </trkpt>
      <trkpt lat="43.51964" lon="6.71454">
        <ele>293</ele>
        <time>2017-03-04T13:22:35Z</time>
      </trkpt>
      <trkpt lat="43.51881" lon="6.71317">
        <ele>281</ele>
        <time>2017-03-04T13:22:55Z</time>
      </trkpt>
      <trkpt lat="43.51861" lon="6.71244">
        <ele>285</ele>
        <time>2017-03-04T13:23:15Z</time>
      </trkpt>
      <trkpt lat="43.51832" lon="6.71196">
        <ele>265</ele>
        <time>2017-03-04T13:23:35Z</time>
      </trkpt>
      <trkpt lat="43.51805" lon="6.71089">
        <ele>271</ele>
        <time>2017-03-04T13:23:55Z</time>
      </trkpt>
      <trkpt lat="43.51814" lon="6.70986">
        <ele>286</ele>
        <time>2017-03-04T13:24:15Z</time>
      </trkpt>
      <trkpt lat="43.51836" lon="6.70907">
        <ele>298</ele>
        <time>2017-03-04T13:24:35Z</time>
      </trkpt>
      <trkpt lat="43.51776" lon="6.70924">
        <ele>289</ele>
        <time>2017-03-04T13:24:55Z</time>
      </trkpt>
      <trkpt lat="43.51705" lon="6.70967">
        <ele>278</ele>
        <time>2017-03-04T13:25:15Z</time>
      </trkpt>
      <trkpt lat="43.51632" lon="6.70851">
        <ele>274</ele>
        <time>2017-03-04T13:25:35Z</time>
      </trkpt>
      <trkpt lat="43.51607" lon="6.70694">
        <ele>289</ele>
        <time>2017-03-04T13:25:55Z</time>
      </trkpt>
      <trkpt lat="43.51551" lon="6.70707">
        <ele>276</ele>
        <time>2017-03-04T13:26:15Z</time>
      </trkpt>
      <trkpt lat="43.51525" lon="6.70684">
        <ele>274</ele>
        <time>2017-03-04T13:26:35Z</time>
      </trkpt>
      <trkpt lat="43.51494" lon="6.70518">
        <ele>262</ele>
        <time>2017-03-04T13:26:55Z</time>
      </trkpt>
      <trkpt lat="43.51534" lon="6.70422">
        <ele>273</ele>
        <time>2017-03-04T13:27:15Z</time>
      </trkpt>
      <trkpt lat="43.51628" lon="6.70379">
        <ele>288</ele>
        <time>2017-03-04T13:27:35Z</time>
      </trkpt>
      <trkpt lat="43.51646" lon="6.70289">
        <ele>285</ele>
        <time>2017-03-04T13:27:55Z</time>
      </trkpt>
      <trkpt lat="43.51548" lon="6.70162">
        <ele>265</ele>
        <time>2017-03-04T13:28:15Z</time>
      </trkpt>
      <trkpt lat="43.51587" lon="6.70089">
        <ele>270</ele>
        <time>2017-03-04T13:28:35Z</time>
      </trkpt>
      <trkpt lat="43.51682" lon="6.7004">
        <ele>291</ele>
        <time>2017-03-04T13:28:55Z</time>
      </trkpt>
      <trkpt lat="43.51677" lon="6.6992">
        <ele>287</ele>
        <time>2017-03-04T13:29:15Z</time>
      </trkpt>
      <trkpt lat="43.51653" lon="6.69883">
        <ele>278</ele>
        <time>2017-03-04T13:29:35Z</time>
      </trkpt>
      <trkpt lat="43.51604" lon="6.69829">
        <ele>279</ele>
        <time>2017-03-04T13:29:55Z</time>
      </trkpt>
      <trkpt lat="43.51614" lon="6.69688">
        <ele>284</ele>
        <time>2017-03-04T13:30:15Z</time>
      </trkpt>
      <trkpt lat="43.5174" lon="6.69643">
        <ele>302</ele>
        <time>2017-03-04T13:30:35Z</time>
      </trkpt>
      <trkpt lat="43.51836" lon="6.69684">
        <ele>329</ele>
        <time>2017-03-04T13:30:55Z</time>
      </trkpt>
      <trkpt lat="43.51797" lon="6.69684">
        <ele>328</ele>
        <time>2017-03-04T13:31:15Z</time>
      </trkpt>
      <trkpt lat="43.51925" lon="6.69742">
        <ele>343</ele>
        <time>2017-03-04T13:31:35Z</time>
      </trkpt>
      <trkpt lat="43.52045" lon="6.69744">
        <ele>348</ele>
        <time>2017-03-04T13:31:55Z</time>
      </trkpt>
      <trkpt lat="43.52034" lon="6.69684">
        <ele>349</ele>
        <time>2017-03-04T13:32:15Z</time>
      </trkpt>
      <trkpt lat="43.52052" lon="6.69623">
        <ele>361</ele>
        <time>2017-03-04T13:32:35Z</time>
      </trkpt>
      <trkpt lat="43.52045" lon="6.69555">
        <ele>367</ele>
        <time>2017-03-04T13:32:55Z</time>
      </trkpt>
      <trkpt lat="43.52115" lon="6.69557">
        <ele>391</ele>
        <time>2017-03-04T13:33:15Z</time>
      </trkpt>
      <trkpt lat="43.52189" lon="6.69377">
        <ele>411</ele>
        <time>2017-03-04T13:33:35Z</time>
      </trkpt>
      <trkpt lat="43.52219" lon="6.69353">
        <ele>410</ele>
        <time>2017-03-04T13:33:55Z</time>
      </trkpt>
      <trkpt lat="43.52259" lon="6.69051">
        <ele>404</ele>
        <time>2017-03-04T13:34:15Z</time>
      </trkpt>
      <trkpt lat="43.52233" lon="6.68896">
        <ele>401</ele>
        <time>2017-03-04T13:34:35Z</time>
      </trkpt>
      <trkpt lat="43.52249" lon="6.6883">
        <ele>406</ele>
        <time>2017-03-04T13:34:55Z</time>
      </trkpt>
      <trkpt lat="43.5232" lon="6.6872">
        <ele>400</ele>
        <time>2017-03-04T13:35:15Z</time>
      </trkpt>
      <trkpt lat="43.5237" lon="6.68707">
        <ele>398</ele>
        <time>2017-03-04T13:35:35Z</time>
      </trkpt>
      <trkpt lat="43.52465" lon="6.68525">
        <ele>397</ele>
        <time>2017-03-04T13:35:55Z</time>
      </trkpt>
      <trkpt lat="43.52605" lon="6.67982">
        <ele>377</ele>
        <time>2017-03-04T13:36:15Z</time>
      </trkpt>
      <trkpt lat="43.5258" lon="6.67905">
        <ele>373</ele>
        <time>2017-03-04T13:36:35Z</time>
      </trkpt>
      <trkpt lat="43.52585" lon="6.67838">
        <ele>376</ele>
        <time>2017-03-04T13:36:55Z</time>
      </trkpt>
      <trkpt lat="43.52645" lon="6.67772">
        <ele>385</ele>
        <time>2017-03-04T13:37:15Z</time>
      </trkpt>
      <trkpt lat="43.52602" lon="6.67705">
        <ele>388</ele>
        <time>2017-03-04T13:37:35Z</time>
      </trkpt>
      <trkpt lat="43.52577" lon="6.67699">
        <ele>381</ele>
        <time>2017-03-04T13:37:55Z</time>
      </trkpt>
      <trkpt lat="43.52566" lon="6.67639">
        <ele>384</ele>
        <time>2017-03-04T13:38:15Z</time>
      </trkpt>
      <trkpt lat="43.52588" lon="6.67613">
        <ele>391</ele>
        <time>2017-03-04T13:38:35Z</time>
      </trkpt>
      <trkpt lat="43.52628" lon="6.67394">
        <ele>376</ele>
        <time>2017-03-04T13:38:55Z</time>
      </trkpt>
      <trkpt lat="43.52547" lon="6.67265">
        <ele>368</ele>
        <time>2017-03-04T13:39:15Z</time>
      </trkpt>
      <trkpt lat="43.52585" lon="6.67098">
        <ele>373</ele>
        <time>2017-03-04T13:39:35Z</time>
      </trkpt>
      <trkpt lat="43.52572" lon="6.67029">
        <ele>364</ele>
        <time>2017-03-04T13:39:55Z</time>
      </trkpt>
      <trkpt lat="43.52622" lon="6.66911">
        <ele>338</ele>
        <time>2017-03-04T13:40:15Z</time>
      </trkpt>
      <trkpt lat="43.52609" lon="6.66722">
        <ele>328</ele>
        <time>2017-03-04T13:40:35Z</time>
      </trkpt>
      <trkpt lat="43.52451" lon="6.66813">
        <ele>309</ele>
        <time>2017-03-04T13:40:55Z</time>
      </trkpt>
      <trkpt lat="43.52403" lon="6.66759">
        <ele>304</ele>
        <time>2017-03-04T13:41:15Z</time>
      </trkpt>
      <trkpt lat="43.52356" lon="6.66761">
        <ele>300</ele>
        <time>2017-03-04T13:41:35Z</time>
      </trkpt>
      <trkpt lat="43.52336" lon="6.66793">
        <ele>299</ele>
        <time>2017-03-04T13:41:55Z</time>
      </trkpt>
      <trkpt lat="43.52314" lon="6.66791">
        <ele>292</ele>
        <time>2017-03-04T13:42:15Z</time>
      </trkpt>
      <trkpt lat="43.522" lon="6.66639">
        <ele>286</ele>
        <time>2017-03-04T13:42:35Z</time>
      </trkpt>
      <trkpt lat="43.52143" lon="6.66662">
        <ele>276</ele>
        <time>2017-03-04T13:42:55Z</time>
      </trkpt>
      <trkpt lat="43.52105" lon="6.66718">
        <ele>271</ele>
        <time>2017-03-04T13:43:15Z</time>
      </trkpt>
      <trkpt lat="43.5199" lon="6.66611">
        <ele>253</ele>
        <time>2017-03-04T13:43:35Z</time>
      </trkpt>
      <trkpt lat="43.5192" lon="6.66619">
        <ele>248</ele>
        <time>2017-03-04T13:43:55Z</time>
      </trkpt>
      <trkpt lat="43.51951" lon="6.66559">
        <ele>248</ele>
        <time>2017-03-04T13:44:15Z</time>
      </trkpt>
      <trkpt lat="43.51937" lon="6.66544">
        <ele>246</ele>
        <time>2017-03-04T13:44:35Z</time>
      </trkpt>
      <trkpt lat="43.51889" lon="6.66583">
        <ele>236</ele>
        <time>2017-03-04T13:44:55Z</time>
      </trkpt>
      <trkpt lat="43.51872" lon="6.66574">
        <ele>233</ele>
        <time>2017-03-04T13:45:15Z</time>
      </trkpt>
      <trkpt lat="43.51911" lon="6.66504">
        <ele>236</ele>
        <time>2017-03-04T13:45:35Z</time>
      </trkpt>
      <trkpt lat="43.51945" lon="6.66491">
        <ele>244</ele>
        <time>2017-03-04T13:45:55Z</time>
      </trkpt>
      <trkpt lat="43.51937" lon="6.66439">
        <ele>244</ele>
        <time>2017-03-04T13:46:15Z</time>
      </trkpt>
      <trkpt lat="43.51956" lon="6.66392">
        <ele>253</ele>
        <time>2017-03-04T13:46:35Z</time>
      </trkpt>
      <trkpt lat="43.51852" lon="6.66401">
        <ele>237</ele>
        <time>2017-03-04T13:46:55Z</time>
      </trkpt>
      <trkpt lat="43.51818" lon="6.66343">
        <ele>235</ele>
        <time>2017-03-04T13:47:15Z</time>
      </trkpt>
      <trkpt lat="43.51808" lon="6.66259">
        <ele>241</ele>
        <time>2017-03-04T13:47:35Z</time>
      </trkpt>
      <trkpt lat="43.51841" lon="6.66162">
        <ele>249</ele>
        <time>2017-03-04T13:47:55Z</time>
      </trkpt>
      <trkpt lat="43.51769" lon="6.66104">
        <ele>245</ele>
        <time>2017-03-04T13:48:15Z</time>
      </trkpt>
      <trkpt lat="43.51704" lon="6.66285">
        <ele>230</ele>
        <time>2017-03-04T13:48:35Z</time>
      </trkpt>
      <trkpt lat="43.51648" lon="6.66375">
        <ele>224</ele>
        <time>2017-03-04T13:48:55Z</time>
      </trkpt>
      <trkpt lat="43.51621" lon="6.66489">
        <ele>219</ele>
        <time>2017-03-04T13:49:15Z</time>
      </trkpt>
      <trkpt lat="43.51505" lon="6.66538">
        <ele>200</ele>
        <time>2017-03-04T13:49:35Z</time>
      </trkpt>
      <trkpt lat="43.51494" lon="6.66441">
        <ele>187</ele>
        <time>2017-03-04T13:49:55Z</time>
      </trkpt>
      <trkpt lat="43.515" lon="6.663">
        <ele>197</ele>
        <time>2017-03-04T13:50:15Z</time>
      </trkpt>
      <trkpt lat="43.51475" lon="6.66317">
        <ele>181</ele>
        <time>2017-03-04T13:50:35Z</time>
      </trkpt>
      <trkpt lat="43.51391" lon="6.66499">
        <ele>161</ele>
        <time>2017-03-04T13:50:55Z</time>
      </trkpt>
      <trkpt lat="43.51382" lon="6.66624">
        <ele>156</ele>
        <time>2017-03-04T13:51:15Z</time>
      </trkpt>
      <trkpt lat="43.51326" lon="6.66823">
        <ele>146</ele>
        <time>2017-03-04T13:51:35Z</time>
      </trkpt>
      <trkpt lat="43.51298" lon="6.66817">
        <ele>140</ele>
        <time>2017-03-04T13:51:55Z</time>
      </trkpt>
      <trkpt lat="43.5126" lon="6.66416">
        <ele>125</ele>
        <time>2017-03-04T13:52:15Z</time>
      </trkpt>
      <trkpt lat="43.51285" lon="6.66207">
        <ele>130</ele>
        <time>2017-03-04T13:52:35Z</time>
      </trkpt>
      <trkpt lat="43.51278" lon="6.66143">
        <ele>126</ele>
        <time>2017-03-04T13:52:55Z</time>
      </trkpt>
      <trkpt lat="43.51279" lon="6.65982">
        <ele>117</ele>
        <time>2017-03-04T13:53:15Z</time>
      </trkpt>
      <trkpt lat="43.51304" lon="6.65926">
        <ele>118</ele>
        <time>2017-03-04T13:53:35Z</time>
      </trkpt>
      <trkpt lat="43.51203" lon="6.65772">
        <ele>102</ele>
        <time>2017-03-04T13:53:55Z</time>
      </trkpt>
      <trkpt lat="43.51225" lon="6.6574">
        <ele>100</ele>
        <time>2017-03-04T13:54:15Z</time>
      </trkpt>
      <trkpt lat="43.51237" lon="6.65551">
        <ele>99</ele>
        <time>2017-03-04T13:54:35Z</time>
      </trkpt>
      <trkpt lat="43.51211" lon="6.65478">
        <ele>103</ele>
        <time>2017-03-04T13:54:55Z</time>
      </trkpt>
      <trkpt lat="43.51208" lon="6.65429">
        <ele>103</ele>
        <time>2017-03-04T13:55:15Z</time>
      </trkpt>
      <trkpt lat="43.51279" lon="6.65435">
        <ele>110</ele>
        <time>2017-03-04T13:55:35Z</time>
      </trkpt>
      <trkpt lat="43.51346" lon="6.65476">
        <ele>119</ele>
        <time>2017-03-04T13:55:55Z</time>
      </trkpt>
      <trkpt lat="43.5141" lon="6.65532">
        <ele>123</ele>
        <time>2017-03-04T13:56:15Z</time>
      </trkpt>
      <trkpt lat="43.51439" lon="6.65534">
        <ele>133</ele>
        <time>2017-03-04T13:56:35Z</time>
      </trkpt>
      <trkpt lat="43.51523" lon="6.6565">
        <ele>134</ele>
        <time>2017-03-04T13:56:55Z</time>
      </trkpt>
      <trkpt lat="43.5162" lon="6.65658">
        <ele>152</ele>
        <time>2017-03-04T13:57:15Z</time>
      </trkpt>
      <trkpt lat="43.51716" lon="6.65596">
        <ele>162</ele>
        <time>2017-03-04T13:57:35Z</time>
      </trkpt>
      <trkpt lat="43.51752" lon="6.65512">
        <ele>205</ele>
        <time>2017-03-04T13:57:55Z</time>
      </trkpt>
      <trkpt lat="43.51861" lon="6.65512">
        <ele>172</ele>
        <time>2017-03-04T13:58:15Z</time>
      </trkpt>
      <trkpt lat="43.52018" lon="6.65424">
        <ele>187</ele>
        <time>2017-03-04T13:58:35Z</time>
      </trkpt>
      <trkpt lat="43.52035" lon="6.6525">
        <ele>194</ele>
        <time>2017-03-04T13:58:55Z</time>
      </trkpt>
      <trkpt lat="43.52152" lon="6.65137">
        <ele>209</ele>
        <time>2017-03-04T13:59:15Z</time>
      </trkpt>
      <trkpt lat="43.52203" lon="6.65132">
        <ele>207</ele>
        <time>2017-03-04T13:59:35Z</time>
      </trkpt>
      <trkpt lat="43.52245" lon="6.65216">
        <ele>201</ele>
        <time>2017-03-04T13:59:55Z</time>
      </trkpt>
      <trkpt lat="43.52292" lon="6.65272">
        <ele>206</ele>
        <time>2017-03-04T14:00:15Z</time>
      </trkpt>
      <trkpt lat="43.52348" lon="6.65188">
        <ele>206</ele>
        <time>2017-03-04T14:00:35Z</time>
      </trkpt>
      <trkpt lat="43.52399" lon="6.6518">
        <ele>207</ele>
        <time>2017-03-04T14:00:55Z</time>
      </trkpt>
      <trkpt lat="43.52465" lon="6.65195">
        <ele>213</ele>
        <time>2017-03-04T14:01:15Z</time>
      </trkpt>
      <trkpt lat="43.52396" lon="6.65135">
        <ele>214</ele>
        <time>2017-03-04T14:01:35Z</time>
      </trkpt>
      <trkpt lat="43.52323" lon="6.65098">
        <ele>214</ele>
        <time>2017-03-04T14:01:55Z</time>
      </trkpt>
      <trkpt lat="43.52309" lon="6.65066">
        <ele>225</ele>
        <time>2017-03-04T14:02:15Z</time>
      </trkpt>
      <trkpt lat="43.52227" lon="6.6504">
        <ele>231</ele>
        <time>2017-03-04T14:02:35Z</time>
      </trkpt>
      <trkpt lat="43.52154" lon="6.64978">
        <ele>251</ele>
        <time>2017-03-04T14:02:55Z</time>
      </trkpt>
      <trkpt lat="43.52051" lon="6.64986">
        <ele>249</ele>
        <time>2017-03-04T14:03:15Z</time>
      </trkpt>
      <trkpt lat="43.52077" lon="6.64967">
        <ele>252</ele>
        <time>2017-03-04T14:03:35Z</time>
      </trkpt>
      <trkpt lat="43.52105" lon="6.64967">
        <ele>254</ele>
        <time>2017-03-04T14:03:55Z</time>
      </trkpt>
      <trkpt lat="43.52163" lon="6.64914">
        <ele>262</ele>
        <time>2017-03-04T14:04:15Z</time>
      </trkpt>
      <trkpt lat="43.52157" lon="6.64883">
        <ele>268</ele>
        <time>2017-03-04T14:04:35Z</time>
      </trkpt>
      <trkpt lat="43.52094" lon="6.64922">
        <ele>259</ele>
        <time>2017-03-04T14:04:55Z</time>
      </trkpt>
      <trkpt lat="43.52021" lon="6.6474">
        <ele>275</ele>
        <time>2017-03-04T14:05:15Z</time>
      </trkpt>
      <trkpt lat="43.5201" lon="6.6463">
        <ele>290</ele>
        <time>2017-03-04T14:05:35Z</time>
      </trkpt>
      <trkpt lat="43.51964" lon="6.64559">
        <ele>278</ele>
        <time>2017-03-04T14:05:55Z</time>
      </trkpt>
      <trkpt lat="43.51986" lon="6.64484">
        <ele>280</ele>
        <time>2017-03-04T14:06:15Z</time>
      </trkpt>
      <trkpt lat="43.52028" lon="6.64439">
        <ele>294</ele>
        <time>2017-03-04T14:06:35Z</time>
      </trkpt>
      <trkpt lat="43.52028" lon="6.64439">
        <ele>294</ele>
        <time>2017-03-04T14:06:55Z</time>
      </trkpt>
      <trkpt lat="43.51996" lon="6.6439">
        <ele>278</ele>
        <time>2017-03-04T14:07:15Z</time>
      </trkpt>
      <trkpt lat="43.52015" lon="6.64263">
        <ele>293</ele>
        <time>2017-03-04T14:07:35Z</time>
      </trkpt>
      <trkpt lat="43.52124" lon="6.6415">
        <ele>308</ele>
        <time>2017-03-04T14:07:55Z</time>
      </trkpt>
      <trkpt lat="43.52146" lon="6.64081">
        <ele>301</ele>
        <time>2017-03-04T14:08:15Z</time>
      </trkpt>
      <trkpt lat="43.52186" lon="6.64038">
        <ele>312</ele>
        <time>2017-03-04T14:08:35Z</time>
      </trkpt>
      <trkpt lat="43.52203" lon="6.63982">
        <ele>299</ele>
        <time>2017-03-04T14:08:55Z</time>
      </trkpt>
      <trkpt lat="43.52267" lon="6.63929">
        <ele>306</ele>
        <time>2017-03-04T14:09:15Z</time>
      </trkpt>
      <trkpt lat="43.52303" lon="6.63935">
        <ele>312</ele>
        <time>2017-03-04T14:09:35Z</time>
      </trkpt>
      <trkpt lat="43.52319" lon="6.63881">
        <ele>300</ele>
        <time>2017-03-04T14:09:55Z</time>
      </trkpt>
      <trkpt lat="43.52289" lon="6.63682">
        <ele>284</ele>
        <time>2017-03-04T14:10:15Z</time>
      </trkpt>
      <trkpt lat="43.52336" lon="6.63609">
        <ele>293</ele>
        <time>2017-03-04T14:10:35Z</time>
      </trkpt>
      <trkpt lat="43.52351" lon="6.63412">
        <ele>287</ele>
        <time>2017-03-04T14:10:55Z</time>
      </trkpt>
      <trkpt lat="43.52333" lon="6.63349">
        <ele>284</ele>
        <time>2017-03-04T14:11:15Z</time>
      </trkpt>
      <trkpt lat="43.5241" lon="6.63079">
        <ele>284</ele>
        <time>2017-03-04T14:11:35Z</time>
      </trkpt>
      <trkpt lat="43.5241" lon="6.6303">
        <ele>282</ele>
        <time>2017-03-04T14:11:55Z</time>
      </trkpt>
      <trkpt lat="43.52432" lon="6.62989">
        <ele>290</ele>
        <time>2017-03-04T14:12:15Z</time>
      </trkpt>
      <trkpt lat="43.52502" lon="6.62912">
        <ele>297</ele>
        <time>2017-03-04T14:12:35Z</time>
      </trkpt>
      <trkpt lat="43.52563" lon="6.62817">
        <ele>299</ele>
        <time>2017-03-04T14:12:55Z</time>
      </trkpt>
      <trkpt lat="43.52662" lon="6.62811">
        <ele>306</ele>
        <time>2017-03-04T14:13:15Z</time>
      </trkpt>
      <trkpt lat="43.5268" lon="6.62723">
        <ele>317</ele>
        <time>2017-03-04T14:13:35Z</time>
      </trkpt>
      <trkpt lat="43.5267" lon="6.62603">
        <ele>314</ele>
        <time>2017-03-04T14:13:55Z</time>
      </trkpt>
      <trkpt lat="43.52653" lon="6.62534">
        <ele>301</ele>
        <time>2017-03-04T14:14:15Z</time>
      </trkpt>
      <trkpt lat="43.52669" lon="6.6251">
        <ele>308</ele>
        <time>2017-03-04T14:14:35Z</time>
      </trkpt>
      <trkpt lat="43.52725" lon="6.62663">
        <ele>323</ele>
        <time>2017-03-04T14:14:55Z</time>
      </trkpt>
      <trkpt lat="43.52759" lon="6.62628">
        <ele>336</ele>
        <time>2017-03-04T14:15:15Z</time>
      </trkpt>
      <trkpt lat="43.52812" lon="6.62613">
        <ele>341</ele>
        <time>2017-03-04T14:15:35Z</time>
      </trkpt>
      <trkpt lat="43.52835" lon="6.62575">
        <ele>347</ele>
        <time>2017-03-04T14:15:55Z</time>
      </trkpt>
      <trkpt lat="43.52813" lon="6.62478">
        <ele>332</ele>
        <time>2017-03-04T14:16:15Z</time>
      </trkpt>
      <trkpt lat="43.52958" lon="6.62291">
        <ele>354</ele>
        <time>2017-03-04T14:16:35Z</time>
      </trkpt>
      <trkpt lat="43.53028" lon="6.62253">
        <ele>361</ele>
        <time>2017-03-04T14:16:55Z</time>
      </trkpt>
      <trkpt lat="43.53051" lon="6.62184">
        <ele>353</ele>
        <time>2017-03-04T14:17:15Z</time>
      </trkpt>
      <trkpt lat="43.53076" lon="6.62145">
        <ele>345</ele>
        <time>2017-03-04T14:17:35Z</time>
      </trkpt>
      <trkpt lat="43.53134" lon="6.62182">
        <ele>363</ele>
        <time>2017-03-04T14:17:55Z</time>
      </trkpt>
      <trkpt lat="43.5319" lon="6.62195">
        <ele>369</ele>
        <time>2017-03-04T14:18:15Z</time>
      </trkpt>
      <trkpt lat="43.53247" lon="6.62238">
        <ele>375</ele>
        <time>2017-03-04T14:18:35Z</time>
      </trkpt>
      <trkpt lat="43.53244" lon="6.62169">
        <ele>368</ele>
        <time>2017-03-04T14:18:55Z</time>
      </trkpt>
      <trkpt lat="43.53314" lon="6.62027">
        <ele>366</ele>
        <time>2017-03-04T14:19:15Z</time>
      </trkpt>
      <trkpt lat="43.53384" lon="6.61965">
        <ele>376</ele>
        <time>2017-03-04T14:19:35Z</time>
      </trkpt>
      <trkpt lat="43.53311" lon="6.61806">
        <ele>368</ele>
        <time>2017-03-04T14:19:55Z</time>
      </trkpt>
      <trkpt lat="43.53341" lon="6.61761">
        <ele>380</ele>
        <time>2017-03-04T14:20:15Z</time>
      </trkpt>
      <trkpt lat="43.53317" lon="6.61714">
        <ele>371</ele>
        <time>2017-03-04T14:20:35Z</time>
      </trkpt>
      <trkpt lat="43.53347" lon="6.61637">
        <ele>383</ele>
        <time>2017-03-04T14:20:55Z</time>
      </trkpt>
      <trkpt lat="43.5333" lon="6.61431">
        <ele>361</ele>
        <time>2017-03-04T14:21:15Z</time>
      </trkpt>
      <trkpt lat="43.53406" lon="6.61313">
        <ele>369</ele>
        <time>2017-03-04T14:21:35Z</time>
      </trkpt>
      <trkpt lat="43.5351" lon="6.61251">
        <ele>381</ele>
        <time>2017-03-04T14:21:55Z</time>
      </trkpt>
      <trkpt lat="43.53562" lon="6.61259">
        <ele>386</ele>
        <time>2017-03-04T14:22:15Z</time>
      </trkpt>
      <trkpt lat="43.53613" lon="6.61289">
        <ele>391</ele>
        <time>2017-03-04T14:22:35Z</time>
      </trkpt>
      <trkpt lat="43.53691" lon="6.61272">
        <ele>394</ele>
        <time>2017-03-04T14:22:55Z</time>
      </trkpt>
      <trkpt lat="43.53719" lon="6.61281">
        <ele>397</ele>
        <time>2017-03-04T14:23:15Z</time>
      </trkpt>
      <trkpt lat="43.53737" lon="6.61229">
        <ele>391</ele>
        <time>2017-03-04T14:23:35Z</time>
      </trkpt>
      <trkpt lat="43.53784" lon="6.61219">
        <ele>397</ele>
        <time>2017-03-04T14:23:55Z</time>
      </trkpt>
      <trkpt lat="43.5384" lon="6.61085">
        <ele>396</ele>
        <time>2017-03-04T14:24:15Z</time>
      </trkpt>
      <trkpt lat="43.53913" lon="6.61053">
        <ele>398</ele>
        <time>2017-03-04T14:24:35Z</time>
      </trkpt>
      <trkpt lat="43.54019" lon="6.60785">
        <ele>401</ele>
        <time>2017-03-04T14:24:55Z</time>
      </trkpt>
      <trkpt lat="43.53938" lon="6.60785">
        <ele>401</ele>
        <time>2017-03-04T14:25:15Z</time>
      </trkpt>
      <trkpt lat="43.53882" lon="6.60757">
        <ele>397</ele>
        <time>2017-03-04T14:25:35Z</time>
      </trkpt>
      <trkpt lat="43.5381" lon="6.608">
        <ele>386</ele>
        <time>2017-03-04T14:25:55Z</time>
      </trkpt>
      <trkpt lat="43.53712" lon="6.60729">
        <ele>378</ele>
        <time>2017-03-04T14:26:15Z</time>
      </trkpt>
      <trkpt lat="43.53666" lon="6.60792">
        <ele>358</ele>
        <time>2017-03-04T14:26:35Z</time>
      </trkpt>
      <trkpt lat="43.53646" lon="6.60697">
        <ele>359</ele>
        <time>2017-03-04T14:26:55Z</time>
      </trkpt>
      <trkpt lat="43.53613" lon="6.60626">
        <ele>356</ele>
        <time>2017-03-04T14:27:15Z</time>
      </trkpt>
      <trkpt lat="43.53585" lon="6.60483">
        <ele>349</ele>
        <time>2017-03-04T14:27:35Z</time>
      </trkpt>
      <trkpt lat="43.536" lon="6.60431">
        <ele>350</ele>
        <time>2017-03-04T14:27:55Z</time>
      </trkpt>
      <trkpt lat="43.53583" lon="6.60246">
        <ele>335</ele>
        <time>2017-03-04T14:28:15Z</time>
      </trkpt>
      <trkpt lat="43.53599" lon="6.60225">
        <ele>340</ele>
        <time>2017-03-04T14:28:35Z</time>
      </trkpt>
      <trkpt lat="43.53652" lon="6.60219">
        <ele>345</ele>
        <time>2017-03-04T14:28:55Z</time>
      </trkpt>
      <trkpt lat="43.5359" lon="6.60143">
        <ele>338</ele>
        <time>2017-03-04T14:29:15Z</time>
      </trkpt>
      <trkpt lat="43.53574" lon="6.59965">
        <ele>329</ele>
        <time>2017-03-04T14:29:35Z</time>
      </trkpt>
      <trkpt lat="43.5354" lon="6.5985">
        <ele>325</ele>
        <time>2017-03-04T14:29:55Z</time>
      </trkpt>
      <trkpt lat="43.53552" lon="6.59719">
        <ele>322</ele>
        <time>2017-03-04T14:30:15Z</time>
      </trkpt>
      <trkpt lat="43.53527" lon="6.59571">
        <ele>320</ele>
        <time>2017-03-04T14:30:35Z</time>
      </trkpt>
      <trkpt lat="43.53526" lon="6.59489">
        <ele>319</ele>
        <time>2017-03-04T14:30:55Z</time>
      </trkpt>
      <trkpt lat="43.53457" lon="6.59453">
        <ele>315</ele>
        <time>2017-03-04T14:31:15Z</time>
      </trkpt>
      <trkpt lat="43.53451" lon="6.59423">
        <ele>314</ele>
        <time>2017-03-04T14:31:35Z</time>
      </trkpt>
      <trkpt lat="43.53467" lon="6.59354">
        <ele>316</ele>
        <time>2017-03-04T14:31:55Z</time>
      </trkpt>
      <trkpt lat="43.53485" lon="6.59339">
        <ele>317</ele>
        <time>2017-03-04T14:32:15Z</time>
      </trkpt>
      <trkpt lat="43.53459" lon="6.59225">
        <ele>296</ele>
        <time>2017-03-04T14:32:35Z</time>
      </trkpt>
      <trkpt lat="43.53397" lon="6.59193">
        <ele>292</ele>
        <time>2017-03-04T14:32:55Z</time>
      </trkpt>
      <trkpt lat="43.53375" lon="6.59154">
        <ele>275</ele>
        <time>2017-03-04T14:33:15Z</time>
      </trkpt>
      <trkpt lat="43.5318" lon="6.5912">
        <ele>304</ele>
        <time>2017-03-04T14:33:35Z</time>
      </trkpt>
      <trkpt lat="43.53148" lon="6.59096">
        <ele>306</ele>
        <time>2017-03-04T14:33:55Z</time>
      </trkpt>
      <trkpt lat="43.52972" lon="6.59034">
        <ele>289</ele>
        <time>2017-03-04T14:34:15Z</time>
      </trkpt>
      <trkpt lat="43.52902" lon="6.58869">
        <ele>277</ele>
        <time>2017-03-04T14:34:35Z</time>
      </trkpt>
      <trkpt lat="43.52821" lon="6.58747">
        <ele>259</ele>
        <time>2017-03-04T14:34:55Z</time>
      </trkpt>
      <trkpt lat="43.52728" lon="6.58695">
        <ele>244</ele>
        <time>2017-03-04T14:35:15Z</time>
      </trkpt>
      <trkpt lat="43.52681" lon="6.58614">
        <ele>218</ele>
        <time>2017-03-04T14:35:35Z</time>
      </trkpt>
      <trkpt lat="43.52678" lon="6.58556">
        <ele>196</ele>
        <time>2017-03-04T14:35:55Z</time>
      </trkpt>
      <trkpt lat="43.52642" lon="6.58474">
        <ele>166</ele>
        <time>2017-03-04T14:36:15Z</time>
      </trkpt>
      <trkpt lat="43.52644" lon="6.58414">
        <ele>149</ele>
        <time>2017-03-04T14:36:35Z</time>
      </trkpt>
      <trkpt lat="43.527" lon="6.5839">
        <ele>148</ele>
        <time>2017-03-04T14:36:55Z</time>
      </trkpt>
      <trkpt lat="43.52711" lon="6.58367">
        <ele>144</ele>
        <time>2017-03-04T14:37:15Z</time>
      </trkpt>
      <trkpt lat="43.52756" lon="6.58341">
        <ele>138</ele>
        <time>2017-03-04T14:37:35Z</time>
      </trkpt>
      <trkpt lat="43.52725" lon="6.58337">
        <ele>141</ele>
        <time>2017-03-04T14:37:55Z</time>
      </trkpt>
      <trkpt lat="43.52661" lon="6.58341">
        <ele>137</ele>
        <time>2017-03-04T14:38:15Z</time>
      </trkpt>
      <trkpt lat="43.52622" lon="6.58322">
        <ele>124</ele>
        <time>2017-03-04T14:38:35Z</time>
      </trkpt>
      <trkpt lat="43.52569" lon="6.58324">
        <ele>120</ele>
        <time>2017-03-04T14:38:55Z</time>
      </trkpt>
      <trkpt lat="43.52536" lon="6.58313">
        <ele>113</ele>
        <time>2017-03-04T14:39:15Z</time>
      </trkpt>
      <trkpt lat="43.52497" lon="6.58354">
        <ele>115</ele>
        <time>2017-03-04T14:39:35Z</time>
      </trkpt>
      <trkpt lat="43.52441" lon="6.58367">
        <ele>111</ele>
        <time>2017-03-04T14:39:55Z</time>
      </trkpt>
      <trkpt lat="43.52357" lon="6.58414">
        <ele>102</ele>
        <time>2017-03-04T14:40:15Z</time>
      </trkpt>
      <trkpt lat="43.523" lon="6.58369">
        <ele>91</ele>
        <time>2017-03-04T14:40:35Z</time>
      </trkpt>
      <trkpt lat="43.52241" lon="6.58363">
        <ele>82</ele>
        <time>2017-03-04T14:40:55Z</time>
      </trkpt>
      <trkpt lat="43.52137" lon="6.58429">
        <ele>78</ele>
        <time>2017-03-04T14:41:15Z</time>
      </trkpt>
      <trkpt lat="43.52094" lon="6.58448">
        <ele>75</ele>
        <time>2017-03-04T14:41:35Z</time>
      </trkpt>
      <trkpt lat="43.52065" lon="6.58556">
        <ele>71</ele>
        <time>2017-03-04T14:41:55Z</time>
      </trkpt>
      <trkpt lat="43.52085" lon="6.5859">
        <ele>73</ele>
        <time>2017-03-04T14:42:15Z</time>
      </trkpt>
      <trkpt lat="43.52077" lon="6.58654">
        <ele>72</ele>
        <time>2017-03-04T14:42:35Z</time>
      </trkpt>
      <trkpt lat="43.52018" lon="6.58656">
        <ele>69</ele>
        <time>2017-03-04T14:42:55Z</time>
      </trkpt>
      <trkpt lat="43.52009" lon="6.58747">
        <ele>71</ele>
        <time>2017-03-04T14:43:15Z</time>
      </trkpt>
      <trkpt lat="43.51972" lon="6.5874">
        <ele>70</ele>
        <time>2017-03-04T14:43:35Z</time>
      </trkpt>
      <trkpt lat="43.51944" lon="6.58723">
        <ele>70</ele>
        <time>2017-03-04T14:43:55Z</time>
      </trkpt>
      <trkpt lat="43.51881" lon="6.58719">
        <ele>68</ele>
        <time>2017-03-04T14:44:15Z</time>
      </trkpt>
      <trkpt lat="43.51844" lon="6.58599">
        <ele>63</ele>
        <time>2017-03-04T14:44:35Z</time>
      </trkpt>
      <trkpt lat="43.51788" lon="6.58586">
        <ele>59</ele>
        <time>2017-03-04T14:44:55Z</time>
      </trkpt>
      <trkpt lat="43.51698" lon="6.5859">
        <ele>55</ele>
        <time>2017-03-04T14:45:15Z</time>
      </trkpt>
      <trkpt lat="43.51653" lon="6.58579">
        <ele>49</ele>
        <time>2017-03-04T14:45:35Z</time>
      </trkpt>
      <trkpt lat="43.51595" lon="6.58588">
        <ele>49</ele>
        <time>2017-03-04T14:45:55Z</time>
      </trkpt>
      <trkpt lat="43.51595" lon="6.58646">
        <ele>53</ele>
        <time>2017-03-04T14:46:15Z</time>
      </trkpt>
      <trkpt lat="43.51541" lon="6.58626">
        <ele>49</ele>
        <time>2017-03-04T14:46:35Z</time>
      </trkpt>
      <trkpt lat="43.51386" lon="6.58659">
        <ele>42</ele>
        <time>2017-03-04T14:46:55Z</time>
      </trkpt>
      <trkpt lat="43.5136" lon="6.58659">
        <ele>41</ele>
        <time>2017-03-04T14:47:15Z</time>
      </trkpt>
      <trkpt lat="43.51254" lon="6.58669">
        <ele>39</ele>
        <time>2017-03-04T14:47:35Z</time>
      </trkpt>
      <trkpt lat="43.51229" lon="6.58654">
        <ele>38</ele>
        <time>2017-03-04T14:47:55Z</time>
      </trkpt>
      <trkpt lat="43.51156" lon="6.58721">
        <ele>38</ele>
        <time>2017-03-04T14:48:15Z</time>
      </trkpt>
      <trkpt lat="43.51145" lon="6.5877">
        <ele>40</ele>
        <time>2017-03-04T14:48:35Z</time>
      </trkpt>
      <trkpt lat="43.51025" lon="6.5891">
        <ele>39</ele>
        <time>2017-03-04T14:48:55Z</time>
      </trkpt>
      <trkpt lat="43.5091" lon="6.58931">
        <ele>39</ele>
        <time>2017-03-04T14:49:15Z</time>
      </trkpt>
      <trkpt lat="43.508" lon="6.58929">
        <ele>37</ele>
        <time>2017-03-04T14:49:35Z</time>
      </trkpt>
      <trkpt lat="43.50706" lon="6.59002">
        <ele>38</ele>
        <time>2017-03-04T14:49:55Z</time>
      </trkpt>
      <trkpt lat="43.50461" lon="6.59034">
        <ele>36</ele>
        <time>2017-03-04T14:50:15Z</time>
      </trkpt>
      <trkpt lat="43.50358" lon="6.59094">
        <ele>40</ele>
        <time>2017-03-04T14:50:35Z</time>
      </trkpt>
      <trkpt lat="43.50324" lon="6.58888">
        <ele>39</ele>
        <time>2017-03-04T14:50:55Z</time>
      </trkpt>
      <trkpt lat="43.50268" lon="6.5883">
        <ele>42</ele>
        <time>2017-03-04T14:51:15Z</time>
      </trkpt>
      <trkpt lat="43.50226" lon="6.58403">
        <ele>45</ele>
        <time>2017-03-04T14:51:35Z</time>
      </trkpt>
      <trkpt lat="43.50166" lon="6.5833">
        <ele>45</ele>
        <time>2017-03-04T14:51:55Z</time>
      </trkpt>
      <trkpt lat="43.50062" lon="6.58105">
        <ele>60</ele>
        <time>2017-03-04T14:52:15Z</time>
      </trkpt>
      <trkpt lat="43.5" lon="6.5806">
        <ele>61</ele>
        <time>2017-03-04T14:52:35Z</time>
      </trkpt>
      <trkpt lat="43.50006" lon="6.58026">
        <ele>60</ele>
        <time>2017-03-04T14:52:55Z</time>
      </trkpt>
      <trkpt lat="43.50057" lon="6.57996">
        <ele>61</ele>
        <time>2017-03-04T14:53:15Z</time>
      </trkpt>
      <trkpt lat="43.50064" lon="6.57884">
        <ele>62</ele>
        <time>2017-03-04T14:53:35Z</time>
      </trkpt>
      <trkpt lat="43.50126" lon="6.57813">
        <ele>65</ele>
        <time>2017-03-04T14:53:55Z</time>
      </trkpt>
      <trkpt lat="43.50168" lon="6.5773">
        <ele>67</ele>
        <time>2017-03-04T14:54:15Z</time>
      </trkpt>
      <trkpt lat="43.50233" lon="6.57388">
        <ele>67</ele>
        <time>2017-03-04T14:54:35Z</time>
      </trkpt>
      <trkpt lat="43.5018" lon="6.5735">
        <ele>66</ele>
        <time>2017-03-04T14:54:55Z</time>
      </trkpt>
      <trkpt lat="43.50022" lon="6.57333">
        <ele>61</ele>
        <time>2017-03-04T14:55:15Z</time>
      </trkpt>
      <trkpt lat="43.50015" lon="6.573">
        <ele>60</ele>
        <time>2017-03-04T14:55:35Z</time>
      </trkpt>
      <trkpt lat="43.49872" lon="6.57318">
        <ele>54</ele>
        <time>2017-03-04T14:55:55Z</time>
      </trkpt>
      <trkpt lat="43.49811" lon="6.57348">
        <ele>52</ele>
        <time>2017-03-04T14:56:15Z</time>
      </trkpt>
      <trkpt lat="43.49712" lon="6.57311">
        <ele>48</ele>
        <time>2017-03-04T14:56:35Z</time>
      </trkpt>
      <trkpt lat="43.4969" lon="6.57474">
        <ele>48</ele>
        <time>2017-03-04T14:56:55Z</time>
      </trkpt>
      <trkpt lat="43.49673" lon="6.57513">
        <ele>49</ele>
        <time>2017-03-04T14:57:15Z</time>
      </trkpt>
      <trkpt lat="43.49609" lon="6.57457">
        <ele>47</ele>
        <time>2017-03-04T14:57:35Z</time>
      </trkpt>
      <trkpt lat="43.49506" lon="6.57504">
        <ele>48</ele>
        <time>2017-03-04T14:57:55Z</time>
      </trkpt>
      <trkpt lat="43.49393" lon="6.57502">
        <ele>45</ele>
        <time>2017-03-04T14:58:15Z</time>
      </trkpt>
      <trkpt lat="43.49349" lon="6.57483">
        <ele>42</ele>
        <time>2017-03-04T14:58:35Z</time>
      </trkpt>
      <trkpt lat="43.49284" lon="6.57528">
        <ele>43</ele>
        <time>2017-03-04T14:58:55Z</time>
      </trkpt>
      <trkpt lat="43.49201" lon="6.57609">
        <ele>45</ele>
        <time>2017-03-04T14:59:15Z</time>
      </trkpt>
      <trkpt lat="43.49099" lon="6.57588">
        <ele>45</ele>
        <time>2017-03-04T14:59:35Z</time>
      </trkpt>
      <trkpt lat="43.49038" lon="6.57427">
        <ele>42</ele>
        <time>2017-03-04T14:59:55Z</time>
      </trkpt>
      <trkpt lat="43.48986" lon="6.57412">
        <ele>41</ele>
        <time>2017-03-04T15:00:15Z</time>
      </trkpt>
      <trkpt lat="43.48954" lon="6.57448">
        <ele>42</ele>
        <time>2017-03-04T15:00:35Z</time>
      </trkpt>
      <trkpt lat="43.4891" lon="6.57348">
        <ele>41</ele>
        <time>2017-03-04T15:00:55Z</time>
      </trkpt>
      <trkpt lat="43.48857" lon="6.57298">
        <ele>41</ele>
        <time>2017-03-04T15:01:15Z</time>
      </trkpt>
      <trkpt lat="43.48818" lon="6.57303">
        <ele>42</ele>
        <time>2017-03-04T15:01:35Z</time>
      </trkpt>
      <trkpt lat="43.48722" lon="6.57369">
        <ele>42</ele>
        <time>2017-03-04T15:01:55Z</time>
      </trkpt>
      <trkpt lat="43.48703" lon="6.57431">
        <ele>45</ele>
        <time>2017-03-04T15:02:15Z</time>
      </trkpt>
      <trkpt lat="43.48649" lon="6.57384">
        <ele>42</ele>
        <time>2017-03-04T15:02:35Z</time>
      </trkpt>
      <trkpt lat="43.48635" lon="6.57348">
        <ele>41</ele>
        <time>2017-03-04T15:02:55Z</time>
      </trkpt>
      <trkpt lat="43.48604" lon="6.57315">
        <ele>39</ele>
        <time>2017-03-04T15:03:15Z</time>
      </trkpt>
      <trkpt lat="43.48585" lon="6.57245">
        <ele>39</ele>
        <time>2017-03-04T15:03:35Z</time>
      </trkpt>
      <trkpt lat="43.48583" lon="6.57202">
        <ele>40</ele>
        <time>2017-03-04T15:03:55Z</time>
      </trkpt>
      <trkpt lat="43.48552" lon="6.57139">
        <ele>35</ele>
        <time>2017-03-04T15:04:15Z</time>
      </trkpt>
      <trkpt lat="43.48504" lon="6.57124">
        <ele>35</ele>
        <time>2017-03-04T15:04:35Z</time>
      </trkpt>
      <trkpt lat="43.48446" lon="6.57148">
        <ele>38</ele>
        <time>2017-03-04T15:04:55Z</time>
      </trkpt>
      <trkpt lat="43.48442" lon="6.57122">
        <ele>37</ele>
        <time>2017-03-04T15:05:15Z</time>
      </trkpt>
      <trkpt lat="43.48414" lon="6.57154">
        <ele>38</ele>
        <time>2017-03-04T15:05:35Z</time>
      </trkpt>
      <trkpt lat="43.48372" lon="6.57154">
        <ele>36</ele>
        <time>2017-03-04T15:05:55Z</time>
      </trkpt>
      <trkpt lat="43.48345" lon="6.57197">
        <ele>40</ele>
        <time>2017-03-04T15:06:15Z</time>
      </trkpt>
      <trkpt lat="43.48264" lon="6.57223">
        <ele>39</ele>
        <time>2017-03-04T15:06:35Z</time>
      </trkpt>
      <trkpt lat="43.48225" lon="6.57257">
        <ele>41</ele>
        <time>2017-03-04T15:06:55Z</time>
      </trkpt>
      <trkpt lat="43.48208" lon="6.57232">
        <ele>36</ele>
        <time>2017-03-04T15:07:15Z</time>
      </trkpt>
      <trkpt lat="43.48121" lon="6.57221">
        <ele>32</ele>
        <time>2017-03-04T15:07:35Z</time>
      </trkpt>
      <trkpt lat="43.48066" lon="6.57257">
        <ele>39</ele>
        <time>2017-03-04T15:07:55Z</time>
      </trkpt>
      <trkpt lat="43.48001" lon="6.57251">
        <ele>44</ele>
        <time>2017-03-04T15:08:15Z</time>
      </trkpt>
      <trkpt lat="43.47895" lon="6.57148">
        <ele>27</ele>
        <time>2017-03-04T15:08:35Z</time>
      </trkpt>
      <trkpt lat="43.47956" lon="6.57129">
        <ele>27</ele>
        <time>2017-03-04T15:08:55Z</time>
      </trkpt>
      <trkpt lat="43.48023" lon="6.57133">
        <ele>26</ele>
        <time>2017-03-04T15:09:15Z</time>
      </trkpt>
      <trkpt lat="43.48062" lon="6.56931">
        <ele>27</ele>
        <time>2017-03-04T15:09:35Z</time>
      </trkpt>
      <trkpt lat="43.48026" lon="6.56899">
        <ele>30</ele>
        <time>2017-03-04T15:09:55Z</time>
      </trkpt>
      <trkpt lat="43.48049" lon="6.56865">
        <ele>30</ele>
        <time>2017-03-04T15:10:15Z</time>
      </trkpt>
      <trkpt lat="43.48063" lon="6.56768">
        <ele>31</ele>
        <time>2017-03-04T15:10:35Z</time>
      </trkpt>
      <trkpt lat="43.47995" lon="6.56755">
        <ele>31</ele>
        <time>2017-03-04T15:10:55Z</time>
      </trkpt>
      <trkpt lat="43.47954" lon="6.56828">
        <ele>29</ele>
        <time>2017-03-04T15:11:15Z</time>
      </trkpt>
      <trkpt lat="43.47897" lon="6.56781">
        <ele>27</ele>
        <time>2017-03-04T15:11:35Z</time>
      </trkpt>
      <trkpt lat="43.47876" lon="6.56687">
        <ele>30</ele>
        <time>2017-03-04T15:11:55Z</time>
      </trkpt>
      <trkpt lat="43.47823" lon="6.5668">
        <ele>30</ele>
        <time>2017-03-04T15:12:15Z</time>
      </trkpt>
      <trkpt lat="43.47805" lon="6.56648">
        <ele>31</ele>
        <time>2017-03-04T15:12:35Z</time>
      </trkpt>
      <trkpt lat="43.47728" lon="6.56661">
        <ele>30</ele>
        <time>2017-03-04T15:12:55Z</time>
      </trkpt>
      <trkpt lat="43.47741" lon="6.56586">
        <ele>32</ele>
        <time>2017-03-04T15:13:15Z</time>
      </trkpt>
      <trkpt lat="43.47741" lon="6.56506">
        <ele>34</ele>
        <time>2017-03-04T15:13:35Z</time>
      </trkpt>
      <trkpt lat="43.47651" lon="6.56545">
        <ele>34</ele>
        <time>2017-03-04T15:13:55Z</time>
      </trkpt>
      <trkpt lat="43.47588" lon="6.56502">
        <ele>36</ele>
        <time>2017-03-04T15:14:15Z</time>
      </trkpt>
      <trkpt lat="43.47411" lon="6.56491">
        <ele>33</ele>
        <time>2017-03-04T15:14:35Z</time>
      </trkpt>
      <trkpt lat="43.47392" lon="6.56607">
        <ele>31</ele>
        <time>2017-03-04T15:14:55Z</time>
      </trkpt>
      <trkpt lat="43.47358" lon="6.56665">
        <ele>33</ele>
        <time>2017-03-04T15:15:15Z</time>
      </trkpt>
      <trkpt lat="43.47171" lon="6.56594">
        <ele>38</ele>
        <time>2017-03-04T15:15:35Z</time>
      </trkpt>
      <trkpt lat="43.47163" lon="6.56639">
        <ele>34</ele>
        <time>2017-03-04T15:15:55Z</time>
      </trkpt>
      <trkpt lat="43.4709" lon="6.56652">
        <ele>30</ele>
        <time>2017-03-04T15:16:15Z</time>
      </trkpt>
      <trkpt lat="43.4704" lon="6.56584">
        <ele>27</ele>
        <time>2017-03-04T15:16:35Z</time>
      </trkpt>
      <trkpt lat="43.46962" lon="6.56599">
        <ele>22</ele>
        <time>2017-03-04T15:16:55Z</time>
      </trkpt>
      <trkpt lat="43.46894" lon="6.56543">
        <ele>22</ele>
        <time>2017-03-04T15:17:15Z</time>
      </trkpt>
      <trkpt lat="43.46791" lon="6.56498">
        <ele>24</ele>
        <time>2017-03-04T15:17:35Z</time>
      </trkpt>
      <trkpt lat="43.46735" lon="6.56521">
        <ele>21</ele>
        <time>2017-03-04T15:17:55Z</time>
      </trkpt>
      <trkpt lat="43.46712" lon="6.56502">
        <ele>21</ele>
        <time>2017-03-04T15:18:15Z</time>
      </trkpt>
      <trkpt lat="43.46648" lon="6.56509">
        <ele>21</ele>
        <time>2017-03-04T15:18:35Z</time>
      </trkpt>
      <trkpt lat="43.46589" lon="6.56455">
        <ele>21</ele>
        <time>2017-03-04T15:18:55Z</time>
      </trkpt>
      <trkpt lat="43.46523" lon="6.56444">
        <ele>24</ele>
        <time>2017-03-04T15:19:15Z</time>
      </trkpt>
      <trkpt lat="43.46473" lon="6.56547">
        <ele>22</ele>
        <time>2017-03-04T15:19:35Z</time>
      </trkpt>
      <trkpt lat="43.46321" lon="6.56622">
        <ele>26</ele>
        <time>2017-03-04T15:19:55Z</time>
      </trkpt>
      <trkpt lat="43.46263" lon="6.56672">
        <ele>26</ele>
        <time>2017-03-04T15:20:15Z</time>
      </trkpt>
      <trkpt lat="43.46185" lon="6.56719">
        <ele>28</ele>
        <time>2017-03-04T15:20:35Z</time>
      </trkpt>
      <trkpt lat="43.46198" lon="6.5694">
        <ele>31</ele>
        <time>2017-03-04T15:20:55Z</time>
      </trkpt>
      <trkpt lat="43.4628" lon="6.56966">
        <ele>28</ele>
        <time>2017-03-04T15:21:15Z</time>
      </trkpt>
      <trkpt lat="43.46343" lon="6.57045">
        <ele>30</ele>
        <time>2017-03-04T15:21:35Z</time>
      </trkpt>
      <trkpt lat="43.46375" lon="6.57116">
        <ele>34</ele>
        <time>2017-03-04T15:21:55Z</time>
      </trkpt>
      <trkpt lat="43.46361" lon="6.57193">
        <ele>38</ele>
        <time>2017-03-04T15:22:15Z</time>
      </trkpt>
      <trkpt lat="43.46363" lon="6.57268">
        <ele>36</ele>
        <time>2017-03-04T15:22:35Z</time>
      </trkpt>
      <trkpt lat="43.46343" lon="6.57292">
        <ele>36</ele>
        <time>2017-03-04T15:22:55Z</time>
      </trkpt>
      <trkpt lat="43.46332" lon="6.57341">
        <ele>38</ele>
        <time>2017-03-04T15:23:15Z</time>
      </trkpt>
      <trkpt lat="43.46363" lon="6.57418">
        <ele>36</ele>
        <time>2017-03-04T15:23:35Z</time>
      </trkpt>
      <trkpt lat="43.46346" lon="6.57629">
        <ele>33</ele>
        <time>2017-03-04T15:23:55Z</time>
      </trkpt>
      <trkpt lat="43.46293" lon="6.57614">
        <ele>43</ele>
        <time>2017-03-04T15:24:15Z</time>
      </trkpt>
      <trkpt lat="43.46135" lon="6.57697">
        <ele>69</ele>
        <time>2017-03-04T15:24:35Z</time>
      </trkpt>
      <trkpt lat="43.46092" lon="6.57757">
        <ele>71</ele>
        <time>2017-03-04T15:24:55Z</time>
      </trkpt>
      <trkpt lat="43.4607" lon="6.57753">
        <ele>80</ele>
        <time>2017-03-04T15:25:15Z</time>
      </trkpt>
      <trkpt lat="43.46029" lon="6.57792">
        <ele>85</ele>
        <time>2017-03-04T15:25:35Z</time>
      </trkpt>
      <trkpt lat="43.46006" lon="6.57785">
        <ele>88</ele>
        <time>2017-03-04T15:25:55Z</time>
      </trkpt>
      <trkpt lat="43.45961" lon="6.57817">
        <ele>106</ele>
        <time>2017-03-04T15:26:15Z</time>
      </trkpt>
      <trkpt lat="43.45916" lon="6.5783">
        <ele>117</ele>
        <time>2017-03-04T15:26:35Z</time>
      </trkpt>
      <trkpt lat="43.45917" lon="6.5773">
        <ele>115</ele>
        <time>2017-03-04T15:26:55Z</time>
      </trkpt>
      <trkpt lat="43.45897" lon="6.57747">
        <ele>122</ele>
        <time>2017-03-04T15:27:15Z</time>
      </trkpt>
      <trkpt lat="43.45779" lon="6.5774">
        <ele>135</ele>
        <time>2017-03-04T15:27:35Z</time>
      </trkpt>
      <trkpt lat="43.45684" lon="6.57624">
        <ele>134</ele>
        <time>2017-03-04T15:27:55Z</time>
      </trkpt>
      <trkpt lat="43.45629" lon="6.57607">
        <ele>141</ele>
        <time>2017-03-04T15:28:15Z</time>
      </trkpt>
      <trkpt lat="43.45442" lon="6.57611">
        <ele>147</ele>
        <time>2017-03-04T15:28:35Z</time>
      </trkpt>
      <trkpt lat="43.45316" lon="6.57607">
        <ele>145</ele>
        <time>2017-03-04T15:28:55Z</time>
      </trkpt>
      <trkpt lat="43.45274" lon="6.5765">
        <ele>146</ele>
        <time>2017-03-04T15:29:15Z</time>
      </trkpt>
      <trkpt lat="43.45268" lon="6.57843">
        <ele>168</ele>
        <time>2017-03-04T15:29:35Z</time>
      </trkpt>
      <trkpt lat="43.45274" lon="6.57869">
        <ele>172</ele>
        <time>2017-03-04T15:29:55Z</time>
      </trkpt>
      <trkpt lat="43.4526" lon="6.57929">
        <ele>176</ele>
        <time>2017-03-04T15:30:15Z</time>
      </trkpt>
      <trkpt lat="43.45248" lon="6.58275">
        <ele>174</ele>
        <time>2017-03-04T15:30:35Z</time>
      </trkpt>
      <trkpt lat="43.4526" lon="6.5836">
        <ele>188</ele>
        <time>2017-03-04T15:30:55Z</time>
      </trkpt>
      <trkpt lat="43.45215" lon="6.58457">
        <ele>182</ele>
        <time>2017-03-04T15:31:15Z</time>
      </trkpt>
      <trkpt lat="43.45162" lon="6.58506">
        <ele>176</ele>
        <time>2017-03-04T15:31:35Z</time>
      </trkpt>
      <trkpt lat="43.45149" lon="6.58558">
        <ele>177</ele>
        <time>2017-03-04T15:31:55Z</time>
      </trkpt>
      <trkpt lat="43.45159" lon="6.5862">
        <ele>181</ele>
        <time>2017-03-04T15:32:15Z</time>
      </trkpt>
      <trkpt lat="43.4511" lon="6.58729">
        <ele>187</ele>
        <time>2017-03-04T15:32:35Z</time>
      </trkpt>
      <trkpt lat="43.44939" lon="6.58918">
        <ele>178</ele>
        <time>2017-03-04T15:32:55Z</time>
      </trkpt>
      <trkpt lat="43.44883" lon="6.59116">
        <ele>187</ele>
        <time>2017-03-04T15:33:15Z</time>
      </trkpt>
      <trkpt lat="43.4486" lon="6.59141">
        <ele>189</ele>
        <time>2017-03-04T15:33:35Z</time>
      </trkpt>
      <trkpt lat="43.44832" lon="6.59266">
        <ele>192</ele>
        <time>2017-03-04T15:33:55Z</time>
      </trkpt>
      <trkpt lat="43.44791" lon="6.5933">
        <ele>195</ele>
        <time>2017-03-04T15:34:15Z</time>
      </trkpt>
      <trkpt lat="43.44779" lon="6.59395">
        <ele>194</ele>
        <time>2017-03-04T15:34:35Z</time>
      </trkpt>
      <trkpt lat="43.44807" lon="6.59423">
        <ele>196</ele>
        <time>2017-03-04T15:34:55Z</time>
      </trkpt>
      <trkpt lat="43.44771" lon="6.59472">
        <ele>194</ele>
        <time>2017-03-04T15:35:15Z</time>
      </trkpt>
      <trkpt lat="43.44737" lon="6.5948">
        <ele>189</ele>
        <time>2017-03-04T15:35:35Z</time>
      </trkpt>
      <trkpt lat="43.44682" lon="6.59571">
        <ele>185</ele>
        <time>2017-03-04T15:35:55Z</time>
      </trkpt>
      <trkpt lat="43.44695" lon="6.59648">
        <ele>184</ele>
        <time>2017-03-04T15:36:15Z</time>
      </trkpt>
      <trkpt lat="43.44718" lon="6.59646">
        <ele>184</ele>
        <time>2017-03-04T15:36:35Z</time>
      </trkpt>
      <trkpt lat="43.44737" lon="6.59734">
        <ele>181</ele>
        <time>2017-03-04T15:36:55Z</time>
      </trkpt>
      <trkpt lat="43.44729" lon="6.59819">
        <ele>181</ele>
        <time>2017-03-04T15:37:15Z</time>
      </trkpt>
      <trkpt lat="43.44696" lon="6.59772">
        <ele>178</ele>
        <time>2017-03-04T15:37:35Z</time>
      </trkpt>
      <trkpt lat="43.4464" lon="6.59824">
        <ele>174</ele>
        <time>2017-03-04T15:37:55Z</time>
      </trkpt>
      <trkpt lat="43.44598" lon="6.59835">
        <ele>174</ele>
        <time>2017-03-04T15:38:15Z</time>
      </trkpt>
      <trkpt lat="43.44545" lon="6.59804">
        <ele>164</ele>
        <time>2017-03-04T15:38:35Z</time>
      </trkpt>
      <trkpt lat="43.44511" lon="6.59835">
        <ele>162</ele>
        <time>2017-03-04T15:38:55Z</time>
      </trkpt>
      <trkpt lat="43.44456" lon="6.59841">
        <ele>154</ele>
        <time>2017-03-04T15:39:15Z</time>
      </trkpt>
      <trkpt lat="43.44425" lon="6.59938">
        <ele>152</ele>
        <time>2017-03-04T15:39:35Z</time>
      </trkpt>
      <trkpt lat="43.44385" lon="6.59974">
        <ele>143</ele>
        <time>2017-03-04T15:39:55Z</time>
      </trkpt>
      <trkpt lat="43.44367" lon="6.60043">
        <ele>138</ele>
        <time>2017-03-04T15:40:15Z</time>
      </trkpt>
      <trkpt lat="43.44369" lon="6.6009">
        <ele>135</ele>
        <time>2017-03-04T15:40:35Z</time>
      </trkpt>
      <trkpt lat="43.44332" lon="6.60139">
        <ele>127</ele>
        <time>2017-03-04T15:40:55Z</time>
      </trkpt>
      <trkpt lat="43.44274" lon="6.60156">
        <ele>124</ele>
        <time>2017-03-04T15:41:15Z</time>
      </trkpt>
      <trkpt lat="43.44249" lon="6.60238">
        <ele>118</ele>
        <time>2017-03-04T15:41:35Z</time>
      </trkpt>
      <trkpt lat="43.44233" lon="6.60367">
        <ele>112</ele>
        <time>2017-03-04T15:41:55Z</time>
      </trkpt>
      <trkpt lat="43.44205" lon="6.60401">
        <ele>111</ele>
        <time>2017-03-04T15:42:15Z</time>
      </trkpt>
      <trkpt lat="43.44202" lon="6.60553">
        <ele>104</ele>
        <time>2017-03-04T15:42:35Z</time>
      </trkpt>
      <trkpt lat="43.44176" lon="6.60667">
        <ele>94</ele>
        <time>2017-03-04T15:42:55Z</time>
      </trkpt>
      <trkpt lat="43.44173" lon="6.6074">
        <ele>93</ele>
        <time>2017-03-04T15:43:15Z</time>
      </trkpt>
      <trkpt lat="43.44156" lon="6.60807">
        <ele>89</ele>
        <time>2017-03-04T15:43:35Z</time>
      </trkpt>
      <trkpt lat="43.44223" lon="6.60869">
        <ele>92</ele>
        <time>2017-03-04T15:43:55Z</time>
      </trkpt>
      <trkpt lat="43.44257" lon="6.60925">
        <ele>94</ele>
        <time>2017-03-04T15:44:15Z</time>
      </trkpt>
      <trkpt lat="43.4426" lon="6.60989">
        <ele>93</ele>
        <time>2017-03-04T15:44:35Z</time>
      </trkpt>
      <trkpt lat="43.44332" lon="6.61124">
        <ele>84</ele>
        <time>2017-03-04T15:44:55Z</time>
      </trkpt>
      <trkpt lat="43.44308" lon="6.61193">
        <ele>74</ele>
        <time>2017-03-04T15:45:15Z</time>
      </trkpt>
      <trkpt lat="43.44328" lon="6.61221">
        <ele>72</ele>
        <time>2017-03-04T15:45:35Z</time>
      </trkpt>
      <trkpt lat="43.44386" lon="6.61236">
        <ele>78</ele>
        <time>2017-03-04T15:45:55Z</time>
      </trkpt>
      <trkpt lat="43.4442" lon="6.61272">
        <ele>75</ele>
        <time>2017-03-04T15:46:15Z</time>
      </trkpt>
      <trkpt lat="43.44405" lon="6.61309">
        <ele>65</ele>
        <time>2017-03-04T15:46:35Z</time>
      </trkpt>
      <trkpt lat="43.44392" lon="6.61356">
        <ele>56</ele>
        <time>2017-03-04T15:46:55Z</time>
      </trkpt>
      <trkpt lat="43.44361" lon="6.6133">
        <ele>62</ele>
        <time>2017-03-04T15:47:15Z</time>
      </trkpt>
      <trkpt lat="43.44346" lon="6.6136">
        <ele>55</ele>
        <time>2017-03-04T15:47:35Z</time>
      </trkpt>
      <trkpt lat="43.4438" lon="6.61394">
        <ele>54</ele>
        <time>2017-03-04T15:47:55Z</time>
      </trkpt>
      <trkpt lat="43.44447" lon="6.61429">
        <ele>55</ele>
        <time>2017-03-04T15:48:15Z</time>
      </trkpt>
      <trkpt lat="43.44427" lon="6.61474">
        <ele>51</ele>
        <time>2017-03-04T15:48:35Z</time>
      </trkpt>
      <trkpt lat="43.44386" lon="6.61517">
        <ele>38</ele>
        <time>2017-03-04T15:48:55Z</time>
      </trkpt>
      <trkpt lat="43.44378" lon="6.61603">
        <ele>30</ele>
        <time>2017-03-04T15:49:15Z</time>
      </trkpt>
      <trkpt lat="43.4435" lon="6.61635">
        <ele>27</ele>
        <time>2017-03-04T15:49:35Z</time>
      </trkpt>
      <trkpt lat="43.44371" lon="6.61847">
        <ele>20</ele>
        <time>2017-03-04T15:49:55Z</time>
      </trkpt>
      <trkpt lat="43.44366" lon="6.6192">
        <ele>18</ele>
        <time>2017-03-04T15:50:15Z</time>
      </trkpt>
      <trkpt lat="43.44406" lon="6.62023">
        <ele>16</ele>
        <time>2017-03-04T15:50:35Z</time>
      </trkpt>
      <trkpt lat="43.44346" lon="6.62032">
        <ele>16</ele>
        <time>2017-03-04T15:50:55Z</time>
      </trkpt>
      <trkpt lat="43.44194" lon="6.62334">
        <ele>37</ele>
        <time>2017-03-04T15:51:15Z</time>
      </trkpt>
      <trkpt lat="43.44198" lon="6.62401">
        <ele>42</ele>
        <time>2017-03-04T15:51:35Z</time>
      </trkpt>
      <trkpt lat="43.44146" lon="6.62472">
        <ele>49</ele>
        <time>2017-03-04T15:51:55Z</time>
      </trkpt>
      <trkpt lat="43.44068" lon="6.62826">
        <ele>70</ele>
        <time>2017-03-04T15:52:15Z</time>
      </trkpt>
      <trkpt lat="43.44098" lon="6.63107">
        <ele>51</ele>
        <time>2017-03-04T15:52:35Z</time>
      </trkpt>
      <trkpt lat="43.44121" lon="6.6315">
        <ele>48</ele>
        <time>2017-03-04T15:52:55Z</time>
      </trkpt>
      <trkpt lat="43.44115" lon="6.6319">
        <ele>45</ele>
        <time>2017-03-04T15:53:15Z</time>
      </trkpt>
      <trkpt lat="43.4417" lon="6.63291">
        <ele>37</ele>
        <time>2017-03-04T15:53:35Z</time>
      </trkpt>
      <trkpt lat="43.44184" lon="6.63369">
        <ele>37</ele>
        <time>2017-03-04T15:53:55Z</time>
      </trkpt>
      <trkpt lat="43.44212" lon="6.63388">
        <ele>37</ele>
        <time>2017-03-04T15:54:15Z</time>
      </trkpt>
      <trkpt lat="43.44304" lon="6.63582">
        <ele>30</ele>
        <time>2017-03-04T15:54:35Z</time>
      </trkpt>
      <trkpt lat="43.44265" lon="6.6384">
        <ele>24</ele>
        <time>2017-03-04T15:54:55Z</time>
      </trkpt>
      <trkpt lat="43.44311" lon="6.63882">
        <ele>23</ele>
        <time>2017-03-04T15:55:15Z</time>
      </trkpt>
      <trkpt lat="43.44333" lon="6.6396">
        <ele>21</ele>
        <time>2017-03-04T15:55:35Z</time>
      </trkpt>
      <trkpt lat="43.44313" lon="6.63981">
        <ele>21</ele>
        <time>2017-03-04T15:55:55Z</time>
      </trkpt>
      <trkpt lat="43.4428" lon="6.64033">
        <ele>23</ele>
        <time>2017-03-04T15:56:15Z</time>
      </trkpt>
      <trkpt lat="43.44202" lon="6.6405">
        <ele>26</ele>
        <time>2017-03-04T15:56:35Z</time>
      </trkpt>
      <trkpt lat="43.44132" lon="6.64224">
        <ele>37</ele>
        <time>2017-03-04T15:56:55Z</time>
      </trkpt>
      <trkpt lat="43.4416" lon="6.64342">
        <ele>34</ele>
        <time>2017-03-04T15:57:15Z</time>
      </trkpt>
      <trkpt lat="43.44151" lon="6.64511">
        <ele>31</ele>
        <time>2017-03-04T15:57:35Z</time>
      </trkpt>
      <trkpt lat="43.44115" lon="6.64681">
        <ele>22</ele>
        <time>2017-03-04T15:57:55Z</time>
      </trkpt>
      <trkpt lat="43.4404" lon="6.64724">
        <ele>19</ele>
        <time>2017-03-04T15:58:15Z</time>
      </trkpt>
      <trkpt lat="43.4378" lon="6.65099">
        <ele>22</ele>
        <time>2017-03-04T15:58:35Z</time>
      </trkpt>
      <trkpt lat="43.43774" lon="6.65211">
        <ele>20</ele>
        <time>2017-03-04T15:58:55Z</time>
      </trkpt>
      <trkpt lat="43.43747" lon="6.65275">
        <ele>18</ele>
        <time>2017-03-04T15:59:15Z</time>
      </trkpt>
      <trkpt lat="43.43747" lon="6.65275">
        <ele>18</ele>
        <time>2017-03-04T15:59:35Z</time>
      </trkpt>
      <trkpt lat="43.43707" lon="6.65528">
        <ele>13</ele>
        <time>2017-03-04T15:59:55Z</time>
      </trkpt>
      <trkpt lat="43.43674" lon="6.65576">
        <ele>13</ele>
        <time>2017-03-04T16:00:15Z</time>
      </trkpt>
      <trkpt lat="43.43621" lon="6.65721">
        <ele>15</ele>
        <time>2017-03-04T16:00:35Z</time>
      </trkpt>
      <trkpt lat="43.43549" lon="6.65822">
        <ele>18</ele>
        <time>2017-03-04T16:00:55Z</time>
      </trkpt>
      <trkpt lat="43.435" lon="6.6585">
        <ele>23</ele>
        <time>2017-03-04T16:01:15Z</time>
      </trkpt>
      <trkpt lat="43.43451" lon="6.65915">
        <ele>24</ele>
        <time>2017-03-04T16:01:35Z</time>
      </trkpt>
      <trkpt lat="43.4344" lon="6.65857">
        <ele>26</ele>
        <time>2017-03-04T16:01:55Z</time>
      </trkpt>
      <trkpt lat="43.43408" lon="6.65852">
        <ele>31</ele>
        <time>2017-03-04T16:02:15Z</time>
      </trkpt>
      <trkpt lat="43.43403" lon="6.65814">
        <ele>34</ele>
        <time>2017-03-04T16:02:35Z</time>
      </trkpt>
      <trkpt lat="43.43366" lon="6.65782">
        <ele>37</ele>
        <time>2017-03-04T16:02:55Z</time>
      </trkpt>
      <trkpt lat="43.43341" lon="6.65788">
        <ele>38</ele>
        <time>2017-03-04T16:03:15Z</time>
      </trkpt>
      <trkpt lat="43.43303" lon="6.65754">
        <ele>41</ele>
        <time>2017-03-04T16:03:35Z</time>
      </trkpt>
      <trkpt lat="43.43303" lon="6.65702">
        <ele>46</ele>
        <time>2017-03-04T16:03:55Z</time>
      </trkpt>
      <trkpt lat="43.43275" lon="6.65663">
        <ele>50</ele>
        <time>2017-03-04T16:04:15Z</time>
      </trkpt>
      <trkpt lat="43.43286" lon="6.65614">
        <ele>51</ele>
        <time>2017-03-04T16:04:35Z</time>
      </trkpt>
      <trkpt lat="43.4328" lon="6.65569">
        <ele>54</ele>
        <time>2017-03-04T16:04:55Z</time>
      </trkpt>
      <trkpt lat="43.43194" lon="6.65492">
        <ele>63</ele>
        <time>2017-03-04T16:05:15Z</time>
      </trkpt>
      <trkpt lat="43.43169" lon="6.65451">
        <ele>65</ele>
        <time>2017-03-04T16:05:35Z</time>
      </trkpt>
      <trkpt lat="43.43132" lon="6.65442">
        <ele>63</ele>
        <time>2017-03-04T16:05:55Z</time>
      </trkpt>
      <trkpt lat="43.43066" lon="6.65389">
        <ele>67</ele>
        <time>2017-03-04T16:06:15Z</time>
      </trkpt>
      <trkpt lat="43.43041" lon="6.65288">
        <ele>79</ele>
        <time>2017-03-04T16:06:35Z</time>
      </trkpt>
      <trkpt lat="43.43017" lon="6.6532">
        <ele>76</ele>
        <time>2017-03-04T16:06:55Z</time>
      </trkpt>
      <trkpt lat="43.4299" lon="6.65299">
        <ele>76</ele>
        <time>2017-03-04T16:07:15Z</time>
      </trkpt>
      <trkpt lat="43.42964" lon="6.65297">
        <ele>76</ele>
        <time>2017-03-04T16:07:35Z</time>
      </trkpt>
      <trkpt lat="43.42932" lon="6.6526">
        <ele>78</ele>
        <time>2017-03-04T16:07:55Z</time>
      </trkpt>
      <trkpt lat="43.42872" lon="6.65219">
        <ele>80</ele>
        <time>2017-03-04T16:08:15Z</time>
      </trkpt>
      <trkpt lat="43.42872" lon="6.65174">
        <ele>82</ele>
        <time>2017-03-04T16:08:35Z</time>
      </trkpt>
      <trkpt lat="43.42839" lon="6.65133">
        <ele>88</ele>
        <time>2017-03-04T16:08:55Z</time>
      </trkpt>
      <trkpt lat="43.42822" lon="6.65043">
        <ele>95</ele>
        <time>2017-03-04T16:09:15Z</time>
      </trkpt>
      <trkpt lat="43.42797" lon="6.65073">
        <ele>93</ele>
        <time>2017-03-04T16:09:35Z</time>
      </trkpt>
      <trkpt lat="43.42756" lon="6.65033">
        <ele>96</ele>
        <time>2017-03-04T16:09:55Z</time>
      </trkpt>
      <trkpt lat="43.42719" lon="6.65048">
        <ele>100</ele>
        <time>2017-03-04T16:10:15Z</time>
      </trkpt>
      <trkpt lat="43.4273" lon="6.65112">
        <ele>90</ele>
        <time>2017-03-04T16:10:35Z</time>
      </trkpt>
      <trkpt lat="43.42719" lon="6.65159">
        <ele>89</ele>
        <time>2017-03-04T16:10:55Z</time>
      </trkpt>
      <trkpt lat="43.42644" lon="6.65174">
        <ele>86</ele>
        <time>2017-03-04T16:11:15Z</time>
      </trkpt>
      <trkpt lat="43.42555" lon="6.65101">
        <ele>93</ele>
        <time>2017-03-04T16:11:35Z</time>
      </trkpt>
      <trkpt lat="43.4251" lon="6.65037">
        <ele>102</ele>
        <time>2017-03-04T16:11:55Z</time>
      </trkpt>
      <trkpt lat="43.42488" lon="6.64958">
        <ele>110</ele>
        <time>2017-03-04T16:12:15Z</time>
      </trkpt>
      <trkpt lat="43.42459" lon="6.65013">
        <ele>98</ele>
        <time>2017-03-04T16:12:35Z</time>
      </trkpt>
      <trkpt lat="43.42417" lon="6.64996">
        <ele>100</ele>
        <time>2017-03-04T16:12:55Z</time>
      </trkpt>
      <trkpt lat="43.42374" lon="6.64921">
        <ele>109</ele>
        <time>2017-03-04T16:13:15Z</time>
      </trkpt>
      <trkpt lat="43.4236" lon="6.64977">
        <ele>106</ele>
        <time>2017-03-04T16:13:35Z</time>
      </trkpt>
      <trkpt lat="43.42251" lon="6.64945">
        <ele>112</ele>
        <time>2017-03-04T16:13:55Z</time>
      </trkpt>
      <trkpt lat="43.42251" lon="6.64945">
        <ele>112</ele>
        <time>2017-03-04T16:14:15Z</time>
      </trkpt>
      <trkpt lat="43.42186" lon="6.65005">
        <ele>105</ele>
        <time>2017-03-04T16:14:35Z</time>
      </trkpt>
      <trkpt lat="43.4213" lon="6.64923">
        <ele>112</ele>
        <time>2017-03-04T16:14:55Z</time>
      </trkpt>
      <trkpt lat="43.42124" lon="6.6488">
        <ele>121</ele>
        <time>2017-03-04T16:15:15Z</time>
      </trkpt>
      <trkpt lat="43.42067" lon="6.64919">
        <ele>109</ele>
        <time>2017-03-04T16:15:35Z</time>
      </trkpt>
      <trkpt lat="43.42067" lon="6.64919">
        <ele>109</ele>
        <time>2017-03-04T16:15:55Z</time>
      </trkpt>
      <trkpt lat="43.41955" lon="6.64801">
        <ele>113</ele>
        <time>2017-03-04T16:16:15Z</time>
      </trkpt>
      <trkpt lat="43.41923" lon="6.64788">
        <ele>111</ele>
        <time>2017-03-04T16:16:35Z</time>
      </trkpt>
      <trkpt lat="43.4189" lon="6.64704">
        <ele>104</ele>
        <time>2017-03-04T16:16:55Z</time>
      </trkpt>
      <trkpt lat="43.4191" lon="6.64657">
        <ele>109</ele>
        <time>2017-03-04T16:17:15Z</time>
      </trkpt>
      <trkpt lat="43.41921" lon="6.64612">
        <ele>114</ele>
        <time>2017-03-04T16:17:35Z</time>
      </trkpt>
      <trkpt lat="43.41958" lon="6.64578">
        <ele>115</ele>
        <time>2017-03-04T16:17:55Z</time>
      </trkpt>
      <trkpt lat="43.4198" lon="6.64509">
        <ele>118</ele>
        <time>2017-03-04T16:18:15Z</time>
      </trkpt>
      <trkpt lat="43.41937" lon="6.64505">
        <ele>116</ele>
        <time>2017-03-04T16:18:35Z</time>
      </trkpt>
      <trkpt lat="43.41923" lon="6.64526">
        <ele>115</ele>
        <time>2017-03-04T16:18:55Z</time>
      </trkpt>
      <trkpt lat="43.41887" lon="6.64518">
        <ele>111</ele>
        <time>2017-03-04T16:19:15Z</time>
      </trkpt>
      <trkpt lat="43.41877" lon="6.64477">
        <ele>120</ele>
        <time>2017-03-04T16:19:35Z</time>
      </trkpt>
      <trkpt lat="43.41817" lon="6.64543">
        <ele>107</ele>
        <time>2017-03-04T16:19:55Z</time>
      </trkpt>
      <trkpt lat="43.41729" lon="6.64505">
        <ele>103</ele>
        <time>2017-03-04T16:20:15Z</time>
      </trkpt>
      <trkpt lat="43.41712" lon="6.64445">
        <ele>113</ele>
        <time>2017-03-04T16:20:35Z</time>
      </trkpt>
      <trkpt lat="43.41686" lon="6.64455">
        <ele>110</ele>
        <time>2017-03-04T16:20:55Z</time>
      </trkpt>
      <trkpt lat="43.41659" lon="6.64428">
        <ele>109</ele>
        <time>2017-03-04T16:21:15Z</time>
      </trkpt>
      <trkpt lat="43.41651" lon="6.6446">
        <ele>102</ele>
        <time>2017-03-04T16:21:35Z</time>
      </trkpt>
      <trkpt lat="43.41584" lon="6.644">
        <ele>110</ele>
        <time>2017-03-04T16:21:55Z</time>
      </trkpt>
      <trkpt lat="43.41514" lon="6.64391">
        <ele>103</ele>
        <time>2017-03-04T16:22:15Z</time>
      </trkpt>
      <trkpt lat="43.41456" lon="6.64325">
        <ele>102</ele>
        <time>2017-03-04T16:22:35Z</time>
      </trkpt>
      <trkpt lat="43.41461" lon="6.64211">
        <ele>108</ele>
        <time>2017-03-04T16:22:55Z</time>
      </trkpt>
      <trkpt lat="43.41414" lon="6.64237">
        <ele>101</ele>
        <time>2017-03-04T16:23:15Z</time>
      </trkpt>
      <trkpt lat="43.4129" lon="6.64136">
        <ele>111</ele>
        <time>2017-03-04T16:23:35Z</time>
      </trkpt>
      <trkpt lat="43.41095" lon="6.64082">
        <ele>116</ele>
        <time>2017-03-04T16:23:55Z</time>
      </trkpt>
      <trkpt lat="43.40989" lon="6.64078">
        <ele>119</ele>
        <time>2017-03-04T16:24:15Z</time>
      </trkpt>
      <trkpt lat="43.40956" lon="6.64043">
        <ele>124</ele>
        <time>2017-03-04T16:24:35Z</time>
      </trkpt>
      <trkpt lat="43.40905" lon="6.64037">
        <ele>131</ele>
        <time>2017-03-04T16:24:55Z</time>
      </trkpt>
      <trkpt lat="43.40736" lon="6.64082">
        <ele>134</ele>
        <time>2017-03-04T16:25:15Z</time>
      </trkpt>
      <trkpt lat="43.40666" lon="6.6397">
        <ele>150</ele>
        <time>2017-03-04T16:25:35Z</time>
      </trkpt>
      <trkpt lat="43.40657" lon="6.64031">
        <ele>143</ele>
        <time>2017-03-04T16:25:55Z</time>
      </trkpt>
      <trkpt lat="43.40629" lon="6.64039">
        <ele>145</ele>
        <time>2017-03-04T16:26:15Z</time>
      </trkpt>
      <trkpt lat="43.40501" lon="6.64035">
        <ele>161</ele>
        <time>2017-03-04T16:26:35Z</time>
      </trkpt>
      <trkpt lat="43.40225" lon="6.64058">
        <ele>179</ele>
        <time>2017-03-04T16:26:55Z</time>
      </trkpt>
      <trkpt lat="43.4018" lon="6.64037">
        <ele>182</ele>
        <time>2017-03-04T16:27:15Z</time>
      </trkpt>
      <trkpt lat="43.40149" lon="6.64073">
        <ele>186</ele>
        <time>2017-03-04T16:27:35Z</time>
      </trkpt>
      <trkpt lat="43.40058" lon="6.64106">
        <ele>192</ele>
        <time>2017-03-04T16:27:55Z</time>
      </trkpt>
      <trkpt lat="43.40039" lon="6.64161">
        <ele>191</ele>
        <time>2017-03-04T16:28:15Z</time>
      </trkpt>
      <trkpt lat="43.39962" lon="6.64127">
        <ele>187</ele>
        <time>2017-03-04T16:28:35Z</time>
      </trkpt>
      <trkpt lat="43.39941" lon="6.64093">
        <ele>186</ele>
        <time>2017-03-04T16:28:55Z</time>
      </trkpt>
      <trkpt lat="43.39909" lon="6.64082">
        <ele>186</ele>
        <time>2017-03-04T16:29:15Z</time>
      </trkpt>
      <trkpt lat="43.39879" lon="6.64039">
        <ele>191</ele>
        <time>2017-03-04T16:29:35Z</time>
      </trkpt>
      <trkpt lat="43.39845" lon="6.64069">
        <ele>184</ele>
        <time>2017-03-04T16:29:55Z</time>
      </trkpt>
      <trkpt lat="43.39787" lon="6.64065">
        <ele>186</ele>
        <time>2017-03-04T16:30:15Z</time>
      </trkpt>
      <trkpt lat="43.39737" lon="6.64043">
        <ele>187</ele>
        <time>2017-03-04T16:30:35Z</time>
      </trkpt>
      <trkpt lat="43.39707" lon="6.64054">
        <ele>185</ele>
        <time>2017-03-04T16:30:55Z</time>
      </trkpt>
      <trkpt lat="43.39654" lon="6.64026">
        <ele>184</ele>
        <time>2017-03-04T16:31:15Z</time>
      </trkpt>
      <trkpt lat="43.396" lon="6.63998">
        <ele>188</ele>
        <time>2017-03-04T16:31:35Z</time>
      </trkpt>
      <trkpt lat="43.39594" lon="6.63943">
        <ele>197</ele>
        <time>2017-03-04T16:31:55Z</time>
      </trkpt>
      <trkpt lat="43.39558" lon="6.63928">
        <ele>192</ele>
        <time>2017-03-04T16:32:15Z</time>
      </trkpt>
      <trkpt lat="43.39525" lon="6.63962">
        <ele>188</ele>
        <time>2017-03-04T16:32:35Z</time>
      </trkpt>
      <trkpt lat="43.39486" lon="6.63964">
        <ele>187</ele>
        <time>2017-03-04T16:32:55Z</time>
      </trkpt>
      <trkpt lat="43.39461" lon="6.6394">
        <ele>191</ele>
        <time>2017-03-04T16:33:15Z</time>
      </trkpt>
      <trkpt lat="43.39431" lon="6.63945">
        <ele>191</ele>
        <time>2017-03-04T16:33:35Z</time>
      </trkpt>
      <trkpt lat="43.39367" lon="6.6393">
        <ele>199</ele>
        <time>2017-03-04T16:33:55Z</time>
      </trkpt>
      <trkpt lat="43.39283" lon="6.63966">
        <ele>206</ele>
        <time>2017-03-04T16:34:15Z</time>
      </trkpt>
      <trkpt lat="43.39272" lon="6.64007">
        <ele>199</ele>
        <time>2017-03-04T16:34:35Z</time>
      </trkpt>
      <trkpt lat="43.39193" lon="6.63975">
        <ele>209</ele>
        <time>2017-03-04T16:34:55Z</time>
      </trkpt>
      <trkpt lat="43.39204" lon="6.63923">
        <ele>210</ele>
        <time>2017-03-04T16:35:15Z</time>
      </trkpt>
      <trkpt lat="43.39261" lon="6.6391">
        <ele>216</ele>
        <time>2017-03-04T16:35:35Z</time>
      </trkpt>
      <trkpt lat="43.39318" lon="6.63801">
        <ele>235</ele>
        <time>2017-03-04T16:35:55Z</time>
      </trkpt>
      <trkpt lat="43.39311" lon="6.6378">
        <ele>237</ele>
        <time>2017-03-04T16:36:15Z</time>
      </trkpt>
      <trkpt lat="43.39358" lon="6.63702">
        <ele>259</ele>
        <time>2017-03-04T16:36:35Z</time>
      </trkpt>
      <trkpt lat="43.39411" lon="6.63679">
        <ele>269</ele>
        <time>2017-03-04T16:36:55Z</time>
      </trkpt>
      <trkpt lat="43.39449" lon="6.63608">
        <ele>284</ele>
        <time>2017-03-04T16:37:15Z</time>
      </trkpt>
      <trkpt lat="43.39548" lon="6.63533">
        <ele>310</ele>
        <time>2017-03-04T16:37:35Z</time>
      </trkpt>
      <trkpt lat="43.39604" lon="6.63535">
        <ele>320</ele>
        <time>2017-03-04T16:37:55Z</time>
      </trkpt>
      <trkpt lat="43.39735" lon="6.63387">
        <ele>342</ele>
        <time>2017-03-04T16:38:15Z</time>
      </trkpt>
      <trkpt lat="43.39731" lon="6.63357">
        <ele>343</ele>
        <time>2017-03-04T16:38:35Z</time>
      </trkpt>
      <trkpt lat="43.39748" lon="6.63301">
        <ele>338</ele>
        <time>2017-03-04T16:38:55Z</time>
      </trkpt>
      <trkpt lat="43.39806" lon="6.63198">
        <ele>356</ele>
        <time>2017-03-04T16:39:15Z</time>
      </trkpt>
      <trkpt lat="43.3986" lon="6.63033">
        <ele>368</ele>
        <time>2017-03-04T16:39:35Z</time>
      </trkpt>
      <trkpt lat="43.39871" lon="6.62956">
        <ele>360</ele>
        <time>2017-03-04T16:39:55Z</time>
      </trkpt>
      <trkpt lat="43.39979" lon="6.62788">
        <ele>367</ele>
        <time>2017-03-04T16:40:15Z</time>
      </trkpt>
      <trkpt lat="43.40005" lon="6.62719">
        <ele>376</ele>
        <time>2017-03-04T16:40:35Z</time>
      </trkpt>
      <trkpt lat="43.40096" lon="6.62606">
        <ele>380</ele>
        <time>2017-03-04T16:40:55Z</time>
      </trkpt>
      <trkpt lat="43.40298" lon="6.62434">
        <ele>393</ele>
        <time>2017-03-04T16:41:15Z</time>
      </trkpt>
      <trkpt lat="43.4035" lon="6.62342">
        <ele>397</ele>
        <time>2017-03-04T16:41:35Z</time>
      </trkpt>
      <trkpt lat="43.40358" lon="6.6223">
        <ele>387</ele>
        <time>2017-03-04T16:41:55Z</time>
      </trkpt>
      <trkpt lat="43.40376" lon="6.62174">
        <ele>390</ele>
        <time>2017-03-04T16:42:15Z</time>
      </trkpt>
      <trkpt lat="43.40459" lon="6.62056">
        <ele>383</ele>
        <time>2017-03-04T16:42:35Z</time>
      </trkpt>
      <trkpt lat="43.4046" lon="6.61941">
        <ele>398</ele>
        <time>2017-03-04T16:42:55Z</time>
      </trkpt>
      <trkpt lat="43.4054" lon="6.61898">
        <ele>382</ele>
        <time>2017-03-04T16:43:15Z</time>
      </trkpt>
      <trkpt lat="43.40591" lon="6.61777">
        <ele>381</ele>
        <time>2017-03-04T16:43:35Z</time>
      </trkpt>
      <trkpt lat="43.40643" lon="6.61732">
        <ele>386</ele>
        <time>2017-03-04T16:43:55Z</time>
      </trkpt>
      <trkpt lat="43.40682" lon="6.6172">
        <ele>372</ele>
        <time>2017-03-04T16:44:15Z</time>
      </trkpt>
      <trkpt lat="43.408" lon="6.61644">
        <ele>359</ele>
        <time>2017-03-04T16:44:35Z</time>
      </trkpt>
      <trkpt lat="43.40721" lon="6.61546">
        <ele>359</ele>
        <time>2017-03-04T16:44:55Z</time>
      </trkpt>
      <trkpt lat="43.4058" lon="6.61516">
        <ele>373</ele>
        <time>2017-03-04T16:45:15Z</time>
      </trkpt>
      <trkpt lat="43.40531" lon="6.61458">
        <ele>363</ele>
        <time>2017-03-04T16:45:35Z</time>
      </trkpt>
      <trkpt lat="43.40499" lon="6.614">
        <ele>364</ele>
        <time>2017-03-04T16:45:55Z</time>
      </trkpt>
      <trkpt lat="43.40439" lon="6.61323">
        <ele>365</ele>
        <time>2017-03-04T16:46:15Z</time>
      </trkpt>
      <trkpt lat="43.40459" lon="6.61288">
        <ele>360</ele>
        <time>2017-03-04T16:46:35Z</time>
      </trkpt>
      <trkpt lat="43.40451" lon="6.61194">
        <ele>368</ele>
        <time>2017-03-04T16:46:55Z</time>
      </trkpt>
      <trkpt lat="43.40425" lon="6.6119">
        <ele>370</ele>
        <time>2017-03-04T16:47:15Z</time>
      </trkpt>
      <trkpt lat="43.40378" lon="6.61104">
        <ele>393</ele>
        <time>2017-03-04T16:47:35Z</time>
      </trkpt>
      <trkpt lat="43.40315" lon="6.61099">
        <ele>413</ele>
        <time>2017-03-04T16:47:55Z</time>
      </trkpt>
      <trkpt lat="43.40189" lon="6.61039">
        <ele>453</ele>
        <time>2017-03-04T16:48:15Z</time>
      </trkpt>
      <trkpt lat="43.40117" lon="6.6093">
        <ele>469</ele>
        <time>2017-03-04T16:48:35Z</time>
      </trkpt>
      <trkpt lat="43.40108" lon="6.60885">
        <ele>468</ele>
        <time>2017-03-04T16:48:55Z</time>
      </trkpt>
      <trkpt lat="43.40019" lon="6.60881">
        <ele>469</ele>
        <time>2017-03-04T16:49:15Z</time>
      </trkpt>
      <trkpt lat="43.39965" lon="6.6076">
        <ele>464</ele>
        <time>2017-03-04T16:49:35Z</time>
      </trkpt>
      <trkpt lat="43.39863" lon="6.60672">
        <ele>456</ele>
        <time>2017-03-04T16:49:55Z</time>
      </trkpt>
      <trkpt lat="43.39779" lon="6.6063">
        <ele>458</ele>
        <time>2017-03-04T16:50:15Z</time>
      </trkpt>
      <trkpt lat="43.39651" lon="6.60595">
        <ele>438</ele>
        <time>2017-03-04T16:50:35Z</time>
      </trkpt>
      <trkpt lat="43.39619" lon="6.6055">
        <ele>436</ele>
        <time>2017-03-04T16:50:55Z</time>
      </trkpt>
      <trkpt lat="43.39545" lon="6.60527">
        <ele>427</ele>
        <time>2017-03-04T16:51:15Z</time>
      </trkpt>
      <trkpt lat="43.39472" lon="6.60524">
        <ele>421</ele>
        <time>2017-03-04T16:51:35Z</time>
      </trkpt>
      <trkpt lat="43.39392" lon="6.60486">
        <ele>417</ele>
        <time>2017-03-04T16:51:55Z</time>
      </trkpt>
      <trkpt lat="43.39321" lon="6.60481">
        <ele>412</ele>
        <time>2017-03-04T16:52:15Z</time>
      </trkpt>
      <trkpt lat="43.39275" lon="6.60561">
        <ele>416</ele>
        <time>2017-03-04T16:52:35Z</time>
      </trkpt>
      <trkpt lat="43.39247" lon="6.60539">
        <ele>410</ele>
        <time>2017-03-04T16:52:55Z</time>
      </trkpt>
      <trkpt lat="43.39187" lon="6.60563">
        <ele>411</ele>
        <time>2017-03-04T16:53:15Z</time>
      </trkpt>
      <trkpt lat="43.3913" lon="6.60537">
        <ele>399</ele>
        <time>2017-03-04T16:53:35Z</time>
      </trkpt>
      <trkpt lat="43.39071" lon="6.60565">
        <ele>399</ele>
        <time>2017-03-04T16:53:55Z</time>
      </trkpt>
      <trkpt lat="43.38869" lon="6.60509">
        <ele>391</ele>
        <time>2017-03-04T16:54:15Z</time>
      </trkpt>
      <trkpt lat="43.38881" lon="6.60441">
        <ele>374</ele>
        <time>2017-03-04T16:54:35Z</time>
      </trkpt>
      <trkpt lat="43.38851" lon="6.60393">
        <ele>368</ele>
        <time>2017-03-04T16:54:55Z</time>
      </trkpt>
      <trkpt lat="43.3885" lon="6.60353">
        <ele>362</ele>
        <time>2017-03-04T16:55:15Z</time>
      </trkpt>
      <trkpt lat="43.38826" lon="6.60258">
        <ele>353</ele>
        <time>2017-03-04T16:55:35Z</time>
      </trkpt>
      <trkpt lat="43.3878" lon="6.60222">
        <ele>351</ele>
        <time>2017-03-04T16:55:55Z</time>
      </trkpt>
      <trkpt lat="43.3877" lon="6.60153">
        <ele>339</ele>
        <time>2017-03-04T16:56:15Z</time>
      </trkpt>
      <trkpt lat="43.38809" lon="6.60136">
        <ele>333</ele>
        <time>2017-03-04T16:56:35Z</time>
      </trkpt>
      <trkpt lat="43.38803" lon="6.60097">
        <ele>331</ele>
        <time>2017-03-04T16:56:55Z</time>
      </trkpt>
      <trkpt lat="43.38859" lon="6.60033">
        <ele>315</ele>
        <time>2017-03-04T16:57:15Z</time>
      </trkpt>
      <trkpt lat="43.38934" lon="6.60069">
        <ele>302</ele>
        <time>2017-03-04T16:57:35Z</time>
      </trkpt>
      <trkpt lat="43.38926" lon="6.60117">
        <ele>306</ele>
        <time>2017-03-04T16:57:55Z</time>
      </trkpt>
      <trkpt lat="43.38948" lon="6.60117">
        <ele>305</ele>
        <time>2017-03-04T16:58:15Z</time>
      </trkpt>
      <trkpt lat="43.3899" lon="6.60052">
        <ele>293</ele>
        <time>2017-03-04T16:58:35Z</time>
      </trkpt>
      <trkpt lat="43.3899" lon="6.5993">
        <ele>278</ele>
        <time>2017-03-04T16:58:55Z</time>
      </trkpt>
      <trkpt lat="43.38962" lon="6.59855">
        <ele>269</ele>
        <time>2017-03-04T16:59:15Z</time>
      </trkpt>
      <trkpt lat="43.38847" lon="6.59814">
        <ele>265</ele>
        <time>2017-03-04T16:59:35Z</time>
      </trkpt>
      <trkpt lat="43.3872" lon="6.59748">
        <ele>254</ele>
        <time>2017-03-04T16:59:55Z</time>
      </trkpt>
      <trkpt lat="43.38674" lon="6.5964">
        <ele>250</ele>
        <time>2017-03-04T17:00:15Z</time>
      </trkpt>
      <trkpt lat="43.38633" lon="6.5963">
        <ele>241</ele>
        <time>2017-03-04T17:00:35Z</time>
      </trkpt>
      <trkpt lat="43.38614" lon="6.59647">
        <ele>241</ele>
        <time>2017-03-04T17:00:55Z</time>
      </trkpt>
      <trkpt lat="43.38564" lon="6.59582">
        <ele>232</ele>
        <time>2017-03-04T17:01:15Z</time>
      </trkpt>
      <trkpt lat="43.38535" lon="6.59593">
        <ele>238</ele>
        <time>2017-03-04T17:01:35Z</time>
      </trkpt>
      <trkpt lat="43.3853" lon="6.59509">
        <ele>233</ele>
        <time>2017-03-04T17:01:55Z</time>
      </trkpt>
      <trkpt lat="43.38505" lon="6.59424">
        <ele>224</ele>
        <time>2017-03-04T17:02:15Z</time>
      </trkpt>
      <trkpt lat="43.38519" lon="6.59346">
        <ele>218</ele>
        <time>2017-03-04T17:02:35Z</time>
      </trkpt>
      <trkpt lat="43.38493" lon="6.59316">
        <ele>209</ele>
        <time>2017-03-04T17:02:55Z</time>
      </trkpt>
      <trkpt lat="43.3846" lon="6.59351">
        <ele>219</ele>
        <time>2017-03-04T17:03:15Z</time>
      </trkpt>
      <trkpt lat="43.38438" lon="6.59338">
        <ele>220</ele>
        <time>2017-03-04T17:03:35Z</time>
      </trkpt>
      <trkpt lat="43.38424" lon="6.59218">
        <ele>202</ele>
        <time>2017-03-04T17:03:55Z</time>
      </trkpt>
      <trkpt lat="43.38391" lon="6.5914">
        <ele>194</ele>
        <time>2017-03-04T17:04:15Z</time>
      </trkpt>
      <trkpt lat="43.38335" lon="6.59059">
        <ele>187</ele>
        <time>2017-03-04T17:04:35Z</time>
      </trkpt>
      <trkpt lat="43.38309" lon="6.58952">
        <ele>182</ele>
        <time>2017-03-04T17:04:55Z</time>
      </trkpt>
      <trkpt lat="43.38268" lon="6.58919">
        <ele>180</ele>
        <time>2017-03-04T17:05:15Z</time>
      </trkpt>
      <trkpt lat="43.38313" lon="6.58834">
        <ele>177</ele>
        <time>2017-03-04T17:05:35Z</time>
      </trkpt>
      <trkpt lat="43.38306" lon="6.58803">
        <ele>179</ele>
        <time>2017-03-04T17:05:55Z</time>
      </trkpt>
      <trkpt lat="43.38285" lon="6.58769">
        <ele>180</ele>
        <time>2017-03-04T17:06:15Z</time>
      </trkpt>
      <trkpt lat="43.38282" lon="6.58694">
        <ele>184</ele>
        <time>2017-03-04T17:06:35Z</time>
      </trkpt>
      <trkpt lat="43.38256" lon="6.58632">
        <ele>187</ele>
        <time>2017-03-04T17:06:55Z</time>
      </trkpt>
      <trkpt lat="43.38256" lon="6.58567">
        <ele>190</ele>
        <time>2017-03-04T17:07:15Z</time>
      </trkpt>
      <trkpt lat="43.38235" lon="6.58488">
        <ele>200</ele>
        <time>2017-03-04T17:07:35Z</time>
      </trkpt>
      <trkpt lat="43.38257" lon="6.58387">
        <ele>202</ele>
        <time>2017-03-04T17:07:55Z</time>
      </trkpt>
      <trkpt lat="43.38229" lon="6.58325">
        <ele>211</ele>
        <time>2017-03-04T17:08:15Z</time>
      </trkpt>
      <trkpt lat="43.38221" lon="6.58162">
        <ele>232</ele>
        <time>2017-03-04T17:08:35Z</time>
      </trkpt>
      <trkpt lat="43.3819" lon="6.58269">
        <ele>219</ele>
        <time>2017-03-04T17:08:55Z</time>
      </trkpt>
      <trkpt lat="43.38122" lon="6.58336">
        <ele>226</ele>
        <time>2017-03-04T17:09:15Z</time>
      </trkpt>
      <trkpt lat="43.38061" lon="6.5834">
        <ele>239</ele>
        <time>2017-03-04T17:09:35Z</time>
      </trkpt>
      <trkpt lat="43.3805" lon="6.58391">
        <ele>238</ele>
        <time>2017-03-04T17:09:55Z</time>
      </trkpt>
      <trkpt lat="43.37987" lon="6.584">
        <ele>251</ele>
        <time>2017-03-04T17:10:15Z</time>
      </trkpt>
      <trkpt lat="43.37964" lon="6.58413">
        <ele>253</ele>
        <time>2017-03-04T17:10:35Z</time>
      </trkpt>
      <trkpt lat="43.37941" lon="6.58385">
        <ele>256</ele>
        <time>2017-03-04T17:10:55Z</time>
      </trkpt>
      <trkpt lat="43.37903" lon="6.58374">
        <ele>265</ele>
        <time>2017-03-04T17:11:15Z</time>
      </trkpt>
      <trkpt lat="43.37964" lon="6.58319">
        <ele>269</ele>
        <time>2017-03-04T17:11:35Z</time>
      </trkpt>
      <trkpt lat="43.37973" lon="6.58278">
        <ele>272</ele>
        <time>2017-03-04T17:11:55Z</time>
      </trkpt>
      <trkpt lat="43.38012" lon="6.58243">
        <ele>270</ele>
        <time>2017-03-04T17:12:15Z</time>
      </trkpt>
      <trkpt lat="43.38034" lon="6.57982">
        <ele>301</ele>
        <time>2017-03-04T17:12:35Z</time>
      </trkpt>
      <trkpt lat="43.38033" lon="6.57939">
        <ele>302</ele>
        <time>2017-03-04T17:12:55Z</time>
      </trkpt>
      <trkpt lat="43.38048" lon="6.57922">
        <ele>300</ele>
        <time>2017-03-04T17:13:15Z</time>
      </trkpt>
      <trkpt lat="43.38111" lon="6.57726">
        <ele>310</ele>
        <time>2017-03-04T17:13:35Z</time>
      </trkpt>
      <trkpt lat="43.38065" lon="6.57737">
        <ele>311</ele>
        <time>2017-03-04T17:13:55Z</time>
      </trkpt>
      <trkpt lat="43.37997" lon="6.57728">
        <ele>307</ele>
        <time>2017-03-04T17:14:15Z</time>
      </trkpt>
      <trkpt lat="43.37989" lon="6.57763">
        <ele>311</ele>
        <time>2017-03-04T17:14:35Z</time>
      </trkpt>
      <trkpt lat="43.37955" lon="6.57776">
        <ele>310</ele>
        <time>2017-03-04T17:14:55Z</time>
      </trkpt>
      <trkpt lat="43.37922" lon="6.57756">
        <ele>304</ele>
        <time>2017-03-04T17:15:15Z</time>
      </trkpt>
      <trkpt lat="43.37903" lon="6.57773">
        <ele>303</ele>
        <time>2017-03-04T17:15:35Z</time>
      </trkpt>
      <trkpt lat="43.37844" lon="6.57758">
        <ele>297</ele>
        <time>2017-03-04T17:15:55Z</time>
      </trkpt>
      <trkpt lat="43.37796" lon="6.57806">
        <ele>295</ele>
        <time>2017-03-04T17:16:15Z</time>
      </trkpt>
      <trkpt lat="43.37757" lon="6.57801">
        <ele>294</ele>
        <time>2017-03-04T17:16:35Z</time>
      </trkpt>
      <trkpt lat="43.37724" lon="6.57748">
        <ele>287</ele>
        <time>2017-03-04T17:16:55Z</time>
      </trkpt>
      <trkpt lat="43.37616" lon="6.57748">
        <ele>278</ele>
        <time>2017-03-04T17:17:15Z</time>
      </trkpt>
      <trkpt lat="43.37551" lon="6.57853">
        <ele>290</ele>
        <time>2017-03-04T17:17:35Z</time>
      </trkpt>
      <trkpt lat="43.3751" lon="6.57844">
        <ele>286</ele>
        <time>2017-03-04T17:17:55Z</time>
      </trkpt>
      <trkpt lat="43.37487" lon="6.57767">
        <ele>277</ele>
        <time>2017-03-04T17:18:15Z</time>
      </trkpt>
      <trkpt lat="43.37462" lon="6.5775">
        <ele>276</ele>
        <time>2017-03-04T17:18:35Z</time>
      </trkpt>
      <trkpt lat="43.37412" lon="6.57548">
        <ele>269</ele>
        <time>2017-03-04T17:18:55Z</time>
      </trkpt>
      <trkpt lat="43.37325" lon="6.57346">
        <ele>251</ele>
        <time>2017-03-04T17:19:15Z</time>
      </trkpt>
      <trkpt lat="43.37276" lon="6.57289">
        <ele>246</ele>
        <time>2017-03-04T17:19:35Z</time>
      </trkpt>
      <trkpt lat="43.37155" lon="6.57209">
        <ele>248</ele>
        <time>2017-03-04T17:19:55Z</time>
      </trkpt>
      <trkpt lat="43.37048" lon="6.57063">
        <ele>246</ele>
        <time>2017-03-04T17:20:15Z</time>
      </trkpt>
      <trkpt lat="43.36966" lon="6.56909">
        <ele>255</ele>
        <time>2017-03-04T17:20:35Z</time>
      </trkpt>
      <trkpt lat="43.36897" lon="6.56709">
        <ele>260</ele>
        <time>2017-03-04T17:20:55Z</time>
      </trkpt>
      <trkpt lat="43.36843" lon="6.5666">
        <ele>262</ele>
        <time>2017-03-04T17:21:15Z</time>
      </trkpt>
      <trkpt lat="43.36808" lon="6.56671">
        <ele>257</ele>
        <time>2017-03-04T17:21:35Z</time>
      </trkpt>
      <trkpt lat="43.36738" lon="6.56634">
        <ele>253</ele>
        <time>2017-03-04T17:21:55Z</time>
      </trkpt>
      <trkpt lat="43.36693" lon="6.56688">
        <ele>247</ele>
        <time>2017-03-04T17:22:15Z</time>
      </trkpt>
      <trkpt lat="43.36601" lon="6.56471">
        <ele>232</ele>
        <time>2017-03-04T17:22:35Z</time>
      </trkpt>
      <trkpt lat="43.36392" lon="6.56171">
        <ele>228</ele>
        <time>2017-03-04T17:22:55Z</time>
      </trkpt>
      <trkpt lat="43.364" lon="6.56096">
        <ele>229</ele>
        <time>2017-03-04T17:23:15Z</time>
      </trkpt>
      <trkpt lat="43.36356" lon="6.55832">
        <ele>244</ele>
        <time>2017-03-04T17:23:35Z</time>
      </trkpt>
      <trkpt lat="43.36398" lon="6.5566">
        <ele>255</ele>
        <time>2017-03-04T17:23:55Z</time>
      </trkpt>
      <trkpt lat="43.3639" lon="6.55615">
        <ele>257</ele>
        <time>2017-03-04T17:24:15Z</time>
      </trkpt>
      <trkpt lat="43.36412" lon="6.55535">
        <ele>261</ele>
        <time>2017-03-04T17:24:35Z</time>
      </trkpt>
      <trkpt lat="43.36381" lon="6.5546">
        <ele>262</ele>
        <time>2017-03-04T17:24:55Z</time>
      </trkpt>
      <trkpt lat="43.36215" lon="6.55342">
        <ele>275</ele>
        <time>2017-03-04T17:25:15Z</time>
      </trkpt>
      <trkpt lat="43.36152" lon="6.55355">
        <ele>278</ele>
        <time>2017-03-04T17:25:35Z</time>
      </trkpt>
      <trkpt lat="43.36117" lon="6.55405">
        <ele>279</ele>
        <time>2017-03-04T17:25:55Z</time>
      </trkpt>
      <trkpt lat="43.36105" lon="6.55325">
        <ele>282</ele>
        <time>2017-03-04T17:26:15Z</time>
      </trkpt>
      <trkpt lat="43.36003" lon="6.55104">
        <ele>288</ele>
        <time>2017-03-04T17:26:35Z</time>
      </trkpt>
      <trkpt lat="43.35939" lon="6.55055">
        <ele>290</ele>
        <time>2017-03-04T17:26:55Z</time>
      </trkpt>
      <trkpt lat="43.35877" lon="6.54924">
        <ele>289</ele>
        <time>2017-03-04T17:27:15Z</time>
      </trkpt>
      <trkpt lat="43.35863" lon="6.5481">
        <ele>286</ele>
        <time>2017-03-04T17:27:35Z</time>
      </trkpt>
      <trkpt lat="43.35777" lon="6.54645">
        <ele>293</ele>
        <time>2017-03-04T17:27:55Z</time>
      </trkpt>
      <trkpt lat="43.35766" lon="6.54555">
        <ele>297</ele>
        <time>2017-03-04T17:28:15Z</time>
      </trkpt>
      <trkpt lat="43.35613" lon="6.54338">
        <ele>289</ele>
        <time>2017-03-04T17:28:35Z</time>
      </trkpt>
      <trkpt lat="43.35599" lon="6.54203">
        <ele>291</ele>
        <time>2017-03-04T17:28:55Z</time>
      </trkpt>
      <trkpt lat="43.35541" lon="6.54126">
        <ele>296</ele>
        <time>2017-03-04T17:29:15Z</time>
      </trkpt>
      <trkpt lat="43.35562" lon="6.5407">
        <ele>299</ele>
        <time>2017-03-04T17:29:35Z</time>
      </trkpt>
      <trkpt lat="43.3546" lon="6.539">
        <ele>305</ele>
        <time>2017-03-04T17:29:55Z</time>
      </trkpt>
      <trkpt lat="43.3542" lon="6.53765">
        <ele>312</ele>
        <time>2017-03-04T17:30:15Z</time>
      </trkpt>
      <trkpt lat="43.35393" lon="6.53718">
        <ele>314</ele>
        <time>2017-03-04T17:30:35Z</time>
      </trkpt>
      <trkpt lat="43.35381" lon="6.53632">
        <ele>309</ele>
        <time>2017-03-04T17:30:55Z</time>
      </trkpt>
      <trkpt lat="43.35401" lon="6.53587">
        <ele>306</ele>
        <time>2017-03-04T17:31:15Z</time>
      </trkpt>
      <trkpt lat="43.35393" lon="6.53529">
        <ele>302</ele>
        <time>2017-03-04T17:31:35Z</time>
      </trkpt>
      <trkpt lat="43.35389" lon="6.53484">
        <ele>303</ele>
        <time>2017-03-04T17:31:55Z</time>
      </trkpt>
      <trkpt lat="43.35429" lon="6.53407">
        <ele>305</ele>
        <time>2017-03-04T17:32:15Z</time>
      </trkpt>
      <trkpt lat="43.35426" lon="6.5331">
        <ele>316</ele>
        <time>2017-03-04T17:32:35Z</time>
      </trkpt>
      <trkpt lat="43.35364" lon="6.5327">
        <ele>327</ele>
        <time>2017-03-04T17:32:55Z</time>
      </trkpt>
      <trkpt lat="43.35384" lon="6.53173">
        <ele>338</ele>
        <time>2017-03-04T17:33:15Z</time>
      </trkpt>
      <trkpt lat="43.35354" lon="6.53091">
        <ele>347</ele>
        <time>2017-03-04T17:33:35Z</time>
      </trkpt>
      <trkpt lat="43.35378" lon="6.53025">
        <ele>353</ele>
        <time>2017-03-04T17:33:55Z</time>
      </trkpt>
      <trkpt lat="43.35423" lon="6.53051">
        <ele>358</ele>
        <time>2017-03-04T17:34:15Z</time>
      </trkpt>
      <trkpt lat="43.35434" lon="6.52999">
        <ele>364</ele>
        <time>2017-03-04T17:34:35Z</time>
      </trkpt>
      <trkpt lat="43.35473" lon="6.52894">
        <ele>368</ele>
        <time>2017-03-04T17:34:55Z</time>
      </trkpt>
      <trkpt lat="43.35532" lon="6.52828">
        <ele>380</ele>
        <time>2017-03-04T17:35:15Z</time>
      </trkpt>
      <trkpt lat="43.35517" lon="6.52705">
        <ele>396</ele>
        <time>2017-03-04T17:35:35Z</time>
      </trkpt>
      <trkpt lat="43.35398" lon="6.526">
        <ele>387</ele>
        <time>2017-03-04T17:35:55Z</time>
      </trkpt>
      <trkpt lat="43.35398" lon="6.52519">
        <ele>404</ele>
        <time>2017-03-04T17:36:15Z</time>
      </trkpt>
      <trkpt lat="43.35379" lon="6.52435">
        <ele>420</ele>
        <time>2017-03-04T17:36:35Z</time>
      </trkpt>
      <trkpt lat="43.35342" lon="6.52439">
        <ele>419</ele>
        <time>2017-03-04T17:36:55Z</time>
      </trkpt>
      <trkpt lat="43.35307" lon="6.52467">
        <ele>407</ele>
        <time>2017-03-04T17:37:15Z</time>
      </trkpt>
      <trkpt lat="43.35258" lon="6.52443">
        <ele>410</ele>
        <time>2017-03-04T17:37:35Z</time>
      </trkpt>
      <trkpt lat="43.35264" lon="6.52358">
        <ele>427</ele>
        <time>2017-03-04T17:37:55Z</time>
      </trkpt>
      <trkpt lat="43.35245" lon="6.52274">
        <ele>432</ele>
        <time>2017-03-04T17:38:15Z</time>
      </trkpt>
      <trkpt lat="43.35225" lon="6.5224">
        <ele>443</ele>
        <time>2017-03-04T17:38:35Z</time>
      </trkpt>
      <trkpt lat="43.35173" lon="6.52252">
        <ele>436</ele>
        <time>2017-03-04T17:38:55Z</time>
      </trkpt>
      <trkpt lat="43.35072" lon="6.5225">
        <ele>439</ele>
        <time>2017-03-04T17:39:15Z</time>
      </trkpt>
      <trkpt lat="43.35011" lon="6.52177">
        <ele>447</ele>
        <time>2017-03-04T17:39:35Z</time>
      </trkpt>
      <trkpt lat="43.34936" lon="6.52184">
        <ele>452</ele>
        <time>2017-03-04T17:39:55Z</time>
      </trkpt>
      <trkpt lat="43.34902" lon="6.5225">
        <ele>451</ele>
        <time>2017-03-04T17:40:15Z</time>
      </trkpt>
      <trkpt lat="43.34814" lon="6.52235">
        <ele>463</ele>
        <time>2017-03-04T17:40:35Z</time>
      </trkpt>
      <trkpt lat="43.34777" lon="6.52199">
        <ele>466</ele>
        <time>2017-03-04T17:40:55Z</time>
      </trkpt>
      <trkpt lat="43.34638" lon="6.52171">
        <ele>456</ele>
        <time>2017-03-04T17:41:15Z</time>
      </trkpt>
      <trkpt lat="43.34599" lon="6.52186">
        <ele>452</ele>
        <time>2017-03-04T17:41:35Z</time>
      </trkpt>
      <trkpt lat="43.34548" lon="6.52167">
        <ele>451</ele>
        <time>2017-03-04T17:41:55Z</time>
      </trkpt>
      <trkpt lat="43.34507" lon="6.52023">
        <ele>458</ele>
        <time>2017-03-04T17:42:15Z</time>
      </trkpt>
      <trkpt lat="43.34509" lon="6.5195">
        <ele>473</ele>
        <time>2017-03-04T17:42:35Z</time>
      </trkpt>
      <trkpt lat="43.34401" lon="6.51903">
        <ele>447</ele>
        <time>2017-03-04T17:42:55Z</time>
      </trkpt>
      <trkpt lat="43.34373" lon="6.5186">
        <ele>450</ele>
        <time>2017-03-04T17:43:15Z</time>
      </trkpt>
      <trkpt lat="43.34298" lon="6.5183">
        <ele>443</ele>
        <time>2017-03-04T17:43:35Z</time>
      </trkpt>
      <trkpt lat="43.34271" lon="6.51785">
        <ele>444</ele>
        <time>2017-03-04T17:43:55Z</time>
      </trkpt>
      <trkpt lat="43.34156" lon="6.51707">
        <ele>417</ele>
        <time>2017-03-04T17:44:15Z</time>
      </trkpt>
      <trkpt lat="43.34073" lon="6.51609">
        <ele>395</ele>
        <time>2017-03-04T17:44:35Z</time>
      </trkpt>
      <trkpt lat="43.34167" lon="6.51512">
        <ele>427</ele>
        <time>2017-03-04T17:44:55Z</time>
      </trkpt>
      <trkpt lat="43.34148" lon="6.51405">
        <ele>408</ele>
        <time>2017-03-04T17:45:15Z</time>
      </trkpt>
      <trkpt lat="43.34054" lon="6.51257">
        <ele>381</ele>
        <time>2017-03-04T17:45:35Z</time>
      </trkpt>
      <trkpt lat="43.34072" lon="6.51094">
        <ele>395</ele>
        <time>2017-03-04T17:45:55Z</time>
      </trkpt>
      <trkpt lat="43.33967" lon="6.51001">
        <ele>365</ele>
        <time>2017-03-04T17:46:15Z</time>
      </trkpt>
      <trkpt lat="43.34001" lon="6.50941">
        <ele>372</ele>
        <time>2017-03-04T17:46:35Z</time>
      </trkpt>
      <trkpt lat="43.34068" lon="6.50931">
        <ele>379</ele>
        <time>2017-03-04T17:46:55Z</time>
      </trkpt>
      <trkpt lat="43.34104" lon="6.50879">
        <ele>375</ele>
        <time>2017-03-04T17:47:15Z</time>
      </trkpt>
      <trkpt lat="43.34134" lon="6.50858">
        <ele>376</ele>
        <time>2017-03-04T17:47:35Z</time>
      </trkpt>
      <trkpt lat="43.34147" lon="6.50686">
        <ele>349</ele>
        <time>2017-03-04T17:47:55Z</time>
      </trkpt>
      <trkpt lat="43.34076" lon="6.50628">
        <ele>340</ele>
        <time>2017-03-04T17:48:15Z</time>
      </trkpt>
      <trkpt lat="43.34015" lon="6.50519">
        <ele>357</ele>
        <time>2017-03-04T17:48:35Z</time>
      </trkpt>
      <trkpt lat="43.33951" lon="6.50471">
        <ele>362</ele>
        <time>2017-03-04T17:48:55Z</time>
      </trkpt>
      <trkpt lat="43.33894" lon="6.50403">
        <ele>378</ele>
        <time>2017-03-04T17:49:15Z</time>
      </trkpt>
      <trkpt lat="43.33806" lon="6.50396">
        <ele>363</ele>
        <time>2017-03-04T17:49:35Z</time>
      </trkpt>
      <trkpt lat="43.33769" lon="6.50364">
        <ele>364</ele>
        <time>2017-03-04T17:49:55Z</time>
      </trkpt>
      <trkpt lat="43.33747" lon="6.50285">
        <ele>363</ele>
        <time>2017-03-04T17:50:15Z</time>
      </trkpt>
      <trkpt lat="43.337" lon="6.50248">
        <ele>365</ele>
        <time>2017-03-04T17:50:35Z</time>
      </trkpt>
      <trkpt lat="43.33685" lon="6.50171">
        <ele>367</ele>
        <time>2017-03-04T17:50:55Z</time>
      </trkpt>
      <trkpt lat="43.33636" lon="6.50122">
        <ele>366</ele>
        <time>2017-03-04T17:51:15Z</time>
      </trkpt>
      <trkpt lat="43.33546" lon="6.5009">
        <ele>352</ele>
        <time>2017-03-04T17:51:35Z</time>
      </trkpt>
      <trkpt lat="43.33468" lon="6.50029">
        <ele>362</ele>
        <time>2017-03-04T17:51:55Z</time>
      </trkpt>
      <trkpt lat="43.33438" lon="6.50019">
        <ele>361</ele>
        <time>2017-03-04T17:52:15Z</time>
      </trkpt>
      <trkpt lat="43.33415" lon="6.49961">
        <ele>360</ele>
        <time>2017-03-04T17:52:35Z</time>
      </trkpt>
      <trkpt lat="43.33371" lon="6.50341">
        <ele>325</ele>
        <time>2017-03-04T17:52:55Z</time>
      </trkpt>
      <trkpt lat="43.33327" lon="6.50431">
        <ele>318</ele>
        <time>2017-03-04T17:53:15Z</time>
      </trkpt>
      <trkpt lat="43.33255" lon="6.50407">
        <ele>331</ele>
        <time>2017-03-04T17:53:35Z</time>
      </trkpt>
      <trkpt lat="43.33301" lon="6.50459">
        <ele>311</ele>
        <time>2017-03-04T17:53:55Z</time>
      </trkpt>
      <trkpt lat="43.33368" lon="6.50444">
        <ele>302</ele>
        <time>2017-03-04T17:54:15Z</time>
      </trkpt>
      <trkpt lat="43.33455" lon="6.50246">
        <ele>320</ele>
        <time>2017-03-04T17:54:35Z</time>
      </trkpt>
      <trkpt lat="43.33471" lon="6.50246">
        <ele>316</ele>
        <time>2017-03-04T17:54:55Z</time>
      </trkpt>
      <trkpt lat="43.33413" lon="6.50459">
        <ele>294</ele>
        <time>2017-03-04T17:55:15Z</time>
      </trkpt>
      <trkpt lat="43.33393" lon="6.50497">
        <ele>291</ele>
        <time>2017-03-04T17:55:35Z</time>
      </trkpt>
      <trkpt lat="43.3341" lon="6.50508">
        <ele>277</ele>
        <time>2017-03-04T17:55:55Z</time>
      </trkpt>
      <trkpt lat="43.33502" lon="6.50311">
        <ele>289</ele>
        <time>2017-03-04T17:56:15Z</time>
      </trkpt>
      <trkpt lat="43.33536" lon="6.50345">
        <ele>279</ele>
        <time>2017-03-04T17:56:35Z</time>
      </trkpt>
      <trkpt lat="43.33564" lon="6.50433">
        <ele>266</ele>
        <time>2017-03-04T17:56:55Z</time>
      </trkpt>
      <trkpt lat="43.33589" lon="6.50467">
        <ele>274</ele>
        <time>2017-03-04T17:57:15Z</time>
      </trkpt>
      <trkpt lat="43.33602" lon="6.50547">
        <ele>258</ele>
        <time>2017-03-04T17:57:35Z</time>
      </trkpt>
      <trkpt lat="43.33683" lon="6.50611">
        <ele>258</ele>
        <time>2017-03-04T17:57:55Z</time>
      </trkpt>
      <trkpt lat="43.33758" lon="6.50714">
        <ele>256</ele>
        <time>2017-03-04T17:58:15Z</time>
      </trkpt>
      <trkpt lat="43.33608" lon="6.50652">
        <ele>235</ele>
        <time>2017-03-04T17:58:35Z</time>
      </trkpt>
      <trkpt lat="43.33555" lon="6.50645">
        <ele>226</ele>
        <time>2017-03-04T17:58:55Z</time>
      </trkpt>
      <trkpt lat="43.33489" lon="6.50579">
        <ele>238</ele>
        <time>2017-03-04T17:59:15Z</time>
      </trkpt>
      <trkpt lat="43.33489" lon="6.50639">
        <ele>226</ele>
        <time>2017-03-04T17:59:35Z</time>
      </trkpt>
      <trkpt lat="43.33457" lon="6.50707">
        <ele>214</ele>
        <time>2017-03-04T17:59:55Z</time>
      </trkpt>
      <trkpt lat="43.33416" lon="6.50718">
        <ele>221</ele>
        <time>2017-03-04T18:00:15Z</time>
      </trkpt>
      <trkpt lat="43.33422" lon="6.50755">
        <ele>208</ele>
        <time>2017-03-04T18:00:35Z</time>
      </trkpt>
      <trkpt lat="43.33415" lon="6.50926">
        <ele>190</ele>
        <time>2017-03-04T18:00:55Z</time>
      </trkpt>
      <trkpt lat="43.33361" lon="6.50903">
        <ele>201</ele>
        <time>2017-03-04T18:01:15Z</time>
      </trkpt>
      <trkpt lat="43.33386" lon="6.50989">
        <ele>190</ele>
        <time>2017-03-04T18:01:35Z</time>
      </trkpt>
      <trkpt lat="43.33397" lon="6.51012">
        <ele>183</ele>
        <time>2017-03-04T18:01:55Z</time>
      </trkpt>
      <trkpt lat="43.33396" lon="6.51062">
        <ele>182</ele>
        <time>2017-03-04T18:02:15Z</time>
      </trkpt>
      <trkpt lat="43.3334" lon="6.51218">
        <ele>173</ele>
        <time>2017-03-04T18:02:35Z</time>
      </trkpt>
      <trkpt lat="43.33371" lon="6.51218">
        <ele>173</ele>
        <time>2017-03-04T18:02:55Z</time>
      </trkpt>
      <trkpt lat="43.33363" lon="6.51379">
        <ele>170</ele>
        <time>2017-03-04T18:03:15Z</time>
      </trkpt>
      <trkpt lat="43.33382" lon="6.51534">
        <ele>162</ele>
        <time>2017-03-04T18:03:35Z</time>
      </trkpt>
      <trkpt lat="43.33349" lon="6.51557">
        <ele>160</ele>
        <time>2017-03-04T18:03:55Z</time>
      </trkpt>
      <trkpt lat="43.33338" lon="6.51619">
        <ele>156</ele>
        <time>2017-03-04T18:04:15Z</time>
      </trkpt>
      <trkpt lat="43.33363" lon="6.51731">
        <ele>150</ele>
        <time>2017-03-04T18:04:35Z</time>
      </trkpt>
      <trkpt lat="43.33338" lon="6.51783">
        <ele>144</ele>
        <time>2017-03-04T18:04:55Z</time>
      </trkpt>
      <trkpt lat="43.33468" lon="6.51918">
        <ele>137</ele>
        <time>2017-03-04T18:05:15Z</time>
      </trkpt>
      <trkpt lat="43.33465" lon="6.51973">
        <ele>137</ele>
        <time>2017-03-04T18:05:35Z</time>
      </trkpt>
      <trkpt lat="43.33475" lon="6.5204">
        <ele>138</ele>
        <time>2017-03-04T18:05:55Z</time>
      </trkpt>
      <trkpt lat="43.3345" lon="6.52212">
        <ele>138</ele>
        <time>2017-03-04T18:06:15Z</time>
      </trkpt>
      <trkpt lat="43.33415" lon="6.52265">
        <ele>125</ele>
        <time>2017-03-04T18:06:35Z</time>
      </trkpt>
      <trkpt lat="43.33382" lon="6.52398">
        <ele>119</ele>
        <time>2017-03-04T18:06:55Z</time>
      </trkpt>
      <trkpt lat="43.33408" lon="6.52456">
        <ele>118</ele>
        <time>2017-03-04T18:07:15Z</time>
      </trkpt>
      <trkpt lat="43.33458" lon="6.5248">
        <ele>125</ele>
        <time>2017-03-04T18:07:35Z</time>
      </trkpt>
      <trkpt lat="43.33383" lon="6.52542">
        <ele>116</ele>
        <time>2017-03-04T18:07:55Z</time>
      </trkpt>
      <trkpt lat="43.33372" lon="6.52589">
        <ele>117</ele>
        <time>2017-03-04T18:08:15Z</time>
      </trkpt>
      <trkpt lat="43.33404" lon="6.52622">
        <ele>120</ele>
        <time>2017-03-04T18:08:35Z</time>
      </trkpt>
      <trkpt lat="43.33316" lon="6.52765">
        <ele>114</ele>
        <time>2017-03-04T18:08:55Z</time>
      </trkpt>
      <trkpt lat="43.33301" lon="6.52858">
        <ele>114</ele>
        <time>2017-03-04T18:09:15Z</time>
      </trkpt>
      <trkpt lat="43.33421" lon="6.53038">
        <ele>112</ele>
        <time>2017-03-04T18:09:35Z</time>
      </trkpt>
      <trkpt lat="43.33482" lon="6.5319">
        <ele>104</ele>
        <time>2017-03-04T18:09:55Z</time>
      </trkpt>
      <trkpt lat="43.33493" lon="6.53287">
        <ele>101</ele>
        <time>2017-03-04T18:10:15Z</time>
      </trkpt>
      <trkpt lat="43.3351" lon="6.53302">
        <ele>101</ele>
        <time>2017-03-04T18:10:35Z</time>
      </trkpt>
      <trkpt lat="43.3351" lon="6.53353">
        <ele>101</ele>
        <time>2017-03-04T18:10:55Z</time>
      </trkpt>
      <trkpt lat="43.33549" lon="6.5339">
        <ele>104</ele>
        <time>2017-03-04T18:11:15Z</time>
      </trkpt>
      <trkpt lat="43.33569" lon="6.53456">
        <ele>106</ele>
        <time>2017-03-04T18:11:35Z</time>
      </trkpt>
      <trkpt lat="43.3353" lon="6.53458">
        <ele>104</ele>
        <time>2017-03-04T18:11:55Z</time>
      </trkpt>
      <trkpt lat="43.33483" lon="6.53538">
        <ele>98</ele>
        <time>2017-03-04T18:12:15Z</time>
      </trkpt>
      <trkpt lat="43.33449" lon="6.53673">
        <ele>99</ele>
        <time>2017-03-04T18:12:35Z</time>
      </trkpt>
      <trkpt lat="43.33388" lon="6.53682">
        <ele>95</ele>
        <time>2017-03-04T18:12:55Z</time>
      </trkpt>
      <trkpt lat="43.33305" lon="6.53754">
        <ele>91</ele>
        <time>2017-03-04T18:13:15Z</time>
      </trkpt>
      <trkpt lat="43.33237" lon="6.53797">
        <ele>85</ele>
        <time>2017-03-04T18:13:35Z</time>
      </trkpt>
      <trkpt lat="43.33218" lon="6.53864">
        <ele>86</ele>
        <time>2017-03-04T18:13:55Z</time>
      </trkpt>
      <trkpt lat="43.33146" lon="6.53894">
        <ele>79</ele>
        <time>2017-03-04T18:14:15Z</time>
      </trkpt>
      <trkpt lat="43.33154" lon="6.53954">
        <ele>79</ele>
        <time>2017-03-04T18:14:35Z</time>
      </trkpt>
      <trkpt lat="43.33124" lon="6.54033">
        <ele>76</ele>
        <time>2017-03-04T18:14:55Z</time>
      </trkpt>
      <trkpt lat="43.3314" lon="6.54121">
        <ele>74</ele>
        <time>2017-03-04T18:15:15Z</time>
      </trkpt>
      <trkpt lat="43.33166" lon="6.54181">
        <ele>72</ele>
        <time>2017-03-04T18:15:35Z</time>
      </trkpt>
      <trkpt lat="43.33176" lon="6.5442">
        <ele>71</ele>
        <time>2017-03-04T18:15:55Z</time>
      </trkpt>
      <trkpt lat="43.33093" lon="6.54366">
        <ele>67</ele>
        <time>2017-03-04T18:16:15Z</time>
      </trkpt>
      <trkpt lat="43.3294" lon="6.54456">
        <ele>60</ele>
        <time>2017-03-04T18:16:35Z</time>
      </trkpt>
      <trkpt lat="43.32923" lon="6.54501">
        <ele>61</ele>
        <time>2017-03-04T18:16:55Z</time>
      </trkpt>
      <trkpt lat="43.32939" lon="6.5463">
        <ele>60</ele>
        <time>2017-03-04T18:17:15Z</time>
      </trkpt>
      <trkpt lat="43.32862" lon="6.54724">
        <ele>62</ele>
        <time>2017-03-04T18:17:35Z</time>
      </trkpt>
      <trkpt lat="43.32762" lon="6.54819">
        <ele>69</ele>
        <time>2017-03-04T18:17:55Z</time>
      </trkpt>
      <trkpt lat="43.32667" lon="6.54965">
        <ele>77</ele>
        <time>2017-03-04T18:18:15Z</time>
      </trkpt>
      <trkpt lat="43.32564" lon="6.55023">
        <ele>84</ele>
        <time>2017-03-04T18:18:35Z</time>
      </trkpt>
      <trkpt lat="43.32408" lon="6.54978">
        <ele>80</ele>
        <time>2017-03-04T18:18:55Z</time>
      </trkpt>
      <trkpt lat="43.3228" lon="6.5481">
        <ele>83</ele>
        <time>2017-03-04T18:19:15Z</time>
      </trkpt>
      <trkpt lat="43.3223" lon="6.54804">
        <ele>83</ele>
        <time>2017-03-04T18:19:35Z</time>
      </trkpt>
      <trkpt lat="43.32225" lon="6.54763">
        <ele>83</ele>
        <time>2017-03-04T18:19:55Z</time>
      </trkpt>
      <trkpt lat="43.32082" lon="6.54761">
        <ele>97</ele>
        <time>2017-03-04T18:20:15Z</time>
      </trkpt>
      <trkpt lat="43.31899" lon="6.54834">
        <ele>117</ele>
        <time>2017-03-04T18:20:35Z</time>
      </trkpt>
      <trkpt lat="43.31857" lon="6.5483">
        <ele>119</ele>
        <time>2017-03-04T18:20:55Z</time>
      </trkpt>
      <trkpt lat="43.31749" lon="6.54872">
        <ele>138</ele>
        <time>2017-03-04T18:21:15Z</time>
      </trkpt>
      <trkpt lat="43.31699" lon="6.54868">
        <ele>141</ele>
        <time>2017-03-04T18:21:35Z</time>
      </trkpt>
      <trkpt lat="43.31512" lon="6.54896">
        <ele>162</ele>
        <time>2017-03-04T18:21:55Z</time>
      </trkpt>
      <trkpt lat="43.31443" lon="6.54879">
        <ele>165</ele>
        <time>2017-03-04T18:22:15Z</time>
      </trkpt>
      <trkpt lat="43.31329" lon="6.54907">
        <ele>174</ele>
        <time>2017-03-04T18:22:35Z</time>
      </trkpt>
      <trkpt lat="43.31318" lon="6.5486">
        <ele>177</ele>
        <time>2017-03-04T18:22:55Z</time>
      </trkpt>
      <trkpt lat="43.31081" lon="6.55048">
        <ele>186</ele>
        <time>2017-03-04T18:23:15Z</time>
      </trkpt>
      <trkpt lat="43.31092" lon="6.55012">
        <ele>187</ele>
        <time>2017-03-04T18:23:35Z</time>
      </trkpt>
      <trkpt lat="43.31178" lon="6.54917">
        <ele>188</ele>
        <time>2017-03-04T18:23:55Z</time>
      </trkpt>
      <trkpt lat="43.31204" lon="6.54757">
        <ele>195</ele>
        <time>2017-03-04T18:24:15Z</time>
      </trkpt>
      <trkpt lat="43.31237" lon="6.54701">
        <ele>202</ele>
        <time>2017-03-04T18:24:35Z</time>
      </trkpt>
      <trkpt lat="43.31293" lon="6.54679">
        <ele>193</ele>
        <time>2017-03-04T18:24:55Z</time>
      </trkpt>
      <trkpt lat="43.31334" lon="6.54501">
        <ele>196</ele>
        <time>2017-03-04T18:25:15Z</time>
      </trkpt>
      <trkpt lat="43.31321" lon="6.54398">
        <ele>211</ele>
        <time>2017-03-04T18:25:35Z</time>
      </trkpt>
      <trkpt lat="43.31363" lon="6.54317">
        <ele>198</ele>
        <time>2017-03-04T18:25:55Z</time>
      </trkpt>
      <trkpt lat="43.3129" lon="6.54214">
        <ele>209</ele>
        <time>2017-03-04T18:26:15Z</time>
      </trkpt>
      <trkpt lat="43.31276" lon="6.54205">
        <ele>211</ele>
        <time>2017-03-04T18:26:35Z</time>
      </trkpt>
      <trkpt lat="43.31299" lon="6.54151">
        <ele>205</ele>
        <time>2017-03-04T18:26:55Z</time>
      </trkpt>
      <trkpt lat="43.31309" lon="6.54068">
        <ele>201</ele>
        <time>2017-03-04T18:27:15Z</time>
      </trkpt>
      <trkpt lat="43.31281" lon="6.54021">
        <ele>207</ele>
        <time>2017-03-04T18:27:35Z</time>
      </trkpt>
      <trkpt lat="43.31296" lon="6.53975">
        <ele>204</ele>
        <time>2017-03-04T18:27:55Z</time>
      </trkpt>
      <trkpt lat="43.31295" lon="6.53883">
        <ele>207</ele>
        <time>2017-03-04T18:28:15Z</time>
      </trkpt>
      <trkpt lat="43.31281" lon="6.53842">
        <ele>211</ele>
        <time>2017-03-04T18:28:35Z</time>
      </trkpt>
      <trkpt lat="43.31298" lon="6.53793">
        <ele>209</ele>
        <time>2017-03-04T18:28:55Z</time>
      </trkpt>
      <trkpt lat="43.31301" lon="6.53722">
        <ele>212</ele>
        <time>2017-03-04T18:29:15Z</time>
      </trkpt>
      <trkpt lat="43.31313" lon="6.53604">
        <ele>219</ele>
        <time>2017-03-04T18:29:35Z</time>
      </trkpt>
      <trkpt lat="43.31345" lon="6.53542">
        <ele>202</ele>
        <time>2017-03-04T18:29:55Z</time>
      </trkpt>
      <trkpt lat="43.31326" lon="6.53445">
        <ele>238</ele>
        <time>2017-03-04T18:30:15Z</time>
      </trkpt>
      <trkpt lat="43.31381" lon="6.53358">
        <ele>226</ele>
        <time>2017-03-04T18:30:35Z</time>
      </trkpt>
      <trkpt lat="43.31407" lon="6.53355">
        <ele>222</ele>
        <time>2017-03-04T18:30:55Z</time>
      </trkpt>
      <trkpt lat="43.31457" lon="6.53255">
        <ele>218</ele>
        <time>2017-03-04T18:31:15Z</time>
      </trkpt>
      <trkpt lat="43.31457" lon="6.53255">
        <ele>218</ele>
        <time>2017-03-04T18:31:35Z</time>
      </trkpt>
      <trkpt lat="43.31484" lon="6.5314">
        <ele>233</ele>
        <time>2017-03-04T18:31:55Z</time>
      </trkpt>
      <trkpt lat="43.31475" lon="6.52977">
        <ele>233</ele>
        <time>2017-03-04T18:32:15Z</time>
      </trkpt>
      <trkpt lat="43.31438" lon="6.52936">
        <ele>243</ele>
        <time>2017-03-04T18:32:35Z</time>
      </trkpt>
      <trkpt lat="43.31447" lon="6.52876">
        <ele>238</ele>
        <time>2017-03-04T18:32:55Z</time>
      </trkpt>
      <trkpt lat="43.31414" lon="6.52754">
        <ele>254</ele>
        <time>2017-03-04T18:33:15Z</time>
      </trkpt>
      <trkpt lat="43.31413" lon="6.52675">
        <ele>252</ele>
        <time>2017-03-04T18:33:35Z</time>
      </trkpt>
      <trkpt lat="43.31325" lon="6.5266">
        <ele>256</ele>
        <time>2017-03-04T18:33:55Z</time>
      </trkpt>
      <trkpt lat="43.31261" lon="6.52589">
        <ele>250</ele>
        <time>2017-03-04T18:34:15Z</time>
      </trkpt>
      <trkpt lat="43.31052" lon="6.52587">
        <ele>245</ele>
        <time>2017-03-04T18:34:35Z</time>
      </trkpt>
      <trkpt lat="43.31057" lon="6.5255">
        <ele>243</ele>
        <time>2017-03-04T18:34:55Z</time>
      </trkpt>
      <trkpt lat="43.31092" lon="6.52488">
        <ele>241</ele>
        <time>2017-03-04T18:35:15Z</time>
      </trkpt>
      <trkpt lat="43.31096" lon="6.52402">
        <ele>245</ele>
        <time>2017-03-04T18:35:35Z</time>
      </trkpt>
      <trkpt lat="43.31078" lon="6.52366">
        <ele>255</ele>
        <time>2017-03-04T18:35:55Z</time>
      </trkpt>
      <trkpt lat="43.31092" lon="6.52318">
        <ele>250</ele>
        <time>2017-03-04T18:36:15Z</time>
      </trkpt>
      <trkpt lat="43.31068" lon="6.52271">
        <ele>255</ele>
        <time>2017-03-04T18:36:35Z</time>
      </trkpt>
      <trkpt lat="43.31004" lon="6.52222">
        <ele>250</ele>
        <time>2017-03-04T18:36:55Z</time>
      </trkpt>
      <trkpt lat="43.30946" lon="6.52271">
        <ele>263</ele>
        <time>2017-03-04T18:37:15Z</time>
      </trkpt>
      <trkpt lat="43.30854" lon="6.52269">
        <ele>265</ele>
        <time>2017-03-04T18:37:35Z</time>
      </trkpt>
      <trkpt lat="43.3081" lon="6.52226">
        <ele>262</ele>
        <time>2017-03-04T18:37:55Z</time>
      </trkpt>
      <trkpt lat="43.30716" lon="6.52226">
        <ele>271</ele>
        <time>2017-03-04T18:38:15Z</time>
      </trkpt>
      <trkpt lat="43.30672" lon="6.5217">
        <ele>268</ele>
        <time>2017-03-04T18:38:35Z</time>
      </trkpt>
      <trkpt lat="43.30643" lon="6.52166">
        <ele>268</ele>
        <time>2017-03-04T18:38:55Z</time>
      </trkpt>
      <trkpt lat="43.30569" lon="6.52115">
        <ele>274</ele>
        <time>2017-03-04T18:39:15Z</time>
      </trkpt>
      <trkpt lat="43.30501" lon="6.52078">
        <ele>271</ele>
        <time>2017-03-04T18:39:35Z</time>
      </trkpt>
      <trkpt lat="43.30437" lon="6.52095">
        <ele>277</ele>
        <time>2017-03-04T18:39:55Z</time>
      </trkpt>
      <trkpt lat="43.3037" lon="6.52061">
        <ele>270</ele>
        <time>2017-03-04T18:40:15Z</time>
      </trkpt>
      <trkpt lat="43.30312" lon="6.52048">
        <ele>268</ele>
        <time>2017-03-04T18:40:35Z</time>
      </trkpt>
      <trkpt lat="43.30265" lon="6.52009">
        <ele>271</ele>
        <time>2017-03-04T18:40:55Z</time>
      </trkpt>
      <trkpt lat="43.30132" lon="6.5199">
        <ele>266</ele>
        <time>2017-03-04T18:41:15Z</time>
      </trkpt>
      <trkpt lat="43.3009" lon="6.5193">
        <ele>268</ele>
        <time>2017-03-04T18:41:35Z</time>
      </trkpt>
      <trkpt lat="43.30014" lon="6.51919">
        <ele>256</ele>
        <time>2017-03-04T18:41:55Z</time>
      </trkpt>
      <trkpt lat="43.29957" lon="6.51926">
        <ele>241</ele>
        <time>2017-03-04T18:42:15Z</time>
      </trkpt>
      <trkpt lat="43.2982" lon="6.51786">
        <ele>230</ele>
        <time>2017-03-04T18:42:35Z</time>
      </trkpt>
      <trkpt lat="43.29828" lon="6.51733">
        <ele>244</ele>
        <time>2017-03-04T18:42:55Z</time>
      </trkpt>
      <trkpt lat="43.29789" lon="6.51722">
        <ele>244</ele>
        <time>2017-03-04T18:43:15Z</time>
      </trkpt>
      <trkpt lat="43.29742" lon="6.51756">
        <ele>225</ele>
        <time>2017-03-04T18:43:35Z</time>
      </trkpt>
      <trkpt lat="43.29693" lon="6.51752">
        <ele>224</ele>
        <time>2017-03-04T18:43:55Z</time>
      </trkpt>
      <trkpt lat="43.29659" lon="6.51791">
        <ele>220</ele>
        <time>2017-03-04T18:44:15Z</time>
      </trkpt>
      <trkpt lat="43.29517" lon="6.51831">
        <ele>207</ele>
        <time>2017-03-04T18:44:35Z</time>
      </trkpt>
      <trkpt lat="43.29439" lon="6.51791">
        <ele>197</ele>
        <time>2017-03-04T18:44:55Z</time>
      </trkpt>
      <trkpt lat="43.29358" lon="6.51799">
        <ele>182</ele>
        <time>2017-03-04T18:45:15Z</time>
      </trkpt>
      <trkpt lat="43.29304" lon="6.51782">
        <ele>174</ele>
        <time>2017-03-04T18:45:35Z</time>
      </trkpt>
      <trkpt lat="43.2932" lon="6.51836">
        <ele>171</ele>
        <time>2017-03-04T18:45:55Z</time>
      </trkpt>
      <trkpt lat="43.2928" lon="6.51838">
        <ele>165</ele>
        <time>2017-03-04T18:46:15Z</time>
      </trkpt>
      <trkpt lat="43.29242" lon="6.51859">
        <ele>157</ele>
        <time>2017-03-04T18:46:35Z</time>
      </trkpt>
      <trkpt lat="43.29228" lon="6.51823">
        <ele>162</ele>
        <time>2017-03-04T18:46:55Z</time>
      </trkpt>
      <trkpt lat="43.29184" lon="6.51797">
        <ele>158</ele>
        <time>2017-03-04T18:47:15Z</time>
      </trkpt>
      <trkpt lat="43.29137" lon="6.51801">
        <ele>145</ele>
        <time>2017-03-04T18:47:35Z</time>
      </trkpt>
      <trkpt lat="43.28997" lon="6.5169">
        <ele>131</ele>
        <time>2017-03-04T18:47:55Z</time>
      </trkpt>
      <trkpt lat="43.28944" lon="6.51685">
        <ele>129</ele>
        <time>2017-03-04T18:48:15Z</time>
      </trkpt>
      <trkpt lat="43.28992" lon="6.51735">
        <ele>124</ele>
        <time>2017-03-04T18:48:35Z</time>
      </trkpt>
      <trkpt lat="43.28933" lon="6.51743">
        <ele>121</ele>
        <time>2017-03-04T18:48:55Z</time>
      </trkpt>
      <trkpt lat="43.28903" lon="6.51782">
        <ele>103</ele>
        <time>2017-03-04T18:49:15Z</time>
      </trkpt>
      <trkpt lat="43.28802" lon="6.51746">
        <ele>105</ele>
        <time>2017-03-04T18:49:35Z</time>
      </trkpt>
      <trkpt lat="43.28728" lon="6.51709">
        <ele>94</ele>
        <time>2017-03-04T18:49:55Z</time>
      </trkpt>
      <trkpt lat="43.28602" lon="6.51726">
        <ele>81</ele>
        <time>2017-03-04T18:50:15Z</time>
      </trkpt>
      <trkpt lat="43.28527" lon="6.51718">
        <ele>77</ele>
        <time>2017-03-04T18:50:35Z</time>
      </trkpt>
      <trkpt lat="43.28438" lon="6.51726">
        <ele>67</ele>
        <time>2017-03-04T18:50:55Z</time>
      </trkpt>
      <trkpt lat="43.28405" lon="6.51703">
        <ele>62</ele>
        <time>2017-03-04T18:51:15Z</time>
      </trkpt>
      <trkpt lat="43.28361" lon="6.51715">
        <ele>61</ele>
        <time>2017-03-04T18:51:35Z</time>
      </trkpt>
      <trkpt lat="43.28222" lon="6.5169">
        <ele>61</ele>
        <time>2017-03-04T18:51:55Z</time>
      </trkpt>
      <trkpt lat="43.28185" lon="6.51709">
        <ele>61</ele>
        <time>2017-03-04T18:52:15Z</time>
      </trkpt>
      <trkpt lat="43.28111" lon="6.51666">
        <ele>66</ele>
        <time>2017-03-04T18:52:35Z</time>
      </trkpt>
      <trkpt lat="43.27742" lon="6.51585">
        <ele>65</ele>
        <time>2017-03-04T18:52:55Z</time>
      </trkpt>
      <trkpt lat="43.27571" lon="6.51561">
        <ele>65</ele>
        <time>2017-03-04T18:53:15Z</time>
      </trkpt>
      <trkpt lat="43.27571" lon="6.51561">
        <ele>65</ele>
        <time>2017-03-04T18:53:35Z</time>
      </trkpt>
      <trkpt lat="43.27557" lon="6.51591">
        <ele>69</ele>
        <time>2017-03-04T18:53:55Z</time>
      </trkpt>
      <trkpt lat="43.2745" lon="6.51604">
        <ele>62</ele>
        <time>2017-03-04T18:54:15Z</time>
      </trkpt>
      <trkpt lat="43.27365" lon="6.51644">
        <ele>55</ele>
        <time>2017-03-04T18:54:35Z</time>
      </trkpt>
      <trkpt lat="43.27262" lon="6.51683">
        <ele>51</ele>
        <time>2017-03-04T18:54:55Z</time>
      </trkpt>
      <trkpt lat="43.27127" lon="6.51765">
        <ele>49</ele>
        <time>2017-03-04T18:55:15Z</time>
      </trkpt>
      <trkpt lat="43.27035" lon="6.51857">
        <ele>48</ele>
        <time>2017-03-04T18:55:35Z</time>
      </trkpt>
      <trkpt lat="43.27019" lon="6.51943">
        <ele>45</ele>
        <time>2017-03-04T18:55:55Z</time>
      </trkpt>
      <trkpt lat="43.2696" lon="6.52011">
        <ele>35</ele>
        <time>2017-03-04T18:56:15Z</time>
      </trkpt>
      <trkpt lat="43.26926" lon="6.52007">
        <ele>34</ele>
        <time>2017-03-04T18:56:35Z</time>
      </trkpt>
      <trkpt lat="43.26879" lon="6.52033">
        <ele>28</ele>
        <time>2017-03-04T18:56:55Z</time>
      </trkpt>
      <trkpt lat="43.26852" lon="6.52009">
        <ele>27</ele>
        <time>2017-03-04T18:57:15Z</time>
      </trkpt>
      <trkpt lat="43.26793" lon="6.52026">
        <ele>20</ele>
        <time>2017-03-04T18:57:35Z</time>
      </trkpt>
      <trkpt lat="43.26726" lon="6.52164">
        <ele>17</ele>
        <time>2017-03-04T18:57:55Z</time>
      </trkpt>
      <trkpt lat="43.26621" lon="6.52305">
        <ele>16</ele>
        <time>2017-03-04T18:58:15Z</time>
      </trkpt>
      <trkpt lat="43.26601" lon="6.52385">
        <ele>16</ele>
        <time>2017-03-04T18:58:35Z</time>
      </trkpt>
      <trkpt lat="43.26507" lon="6.5237">
        <ele>15</ele>
        <time>2017-03-04T18:58:55Z</time>
      </trkpt>
      <trkpt lat="43.26396" lon="6.52436">
        <ele>14</ele>
        <time>2017-03-04T18:59:15Z</time>
      </trkpt>
      <trkpt lat="43.26285" lon="6.52584">
        <ele>13</ele>
        <time>2017-03-04T18:59:35Z</time>
      </trkpt>
      <trkpt lat="43.26235" lon="6.52601">
        <ele>12</ele>
        <time>2017-03-04T18:59:55Z</time>
      </trkpt>
      <trkpt lat="43.26138" lon="6.52702">
        <ele>12</ele>
        <time>2017-03-04T19:00:15Z</time>
      </trkpt>
      <trkpt lat="43.26033" lon="6.52874">
        <ele>12</ele>
        <time>2017-03-04T19:00:35Z</time>
      </trkpt>
      <trkpt lat="43.25999" lon="6.52951">
        <ele>11</ele>
        <time>2017-03-04T19:00:55Z</time>
      </trkpt>
      <trkpt lat="43.2593" lon="6.52992">
        <ele>10</ele>
        <time>2017-03-04T19:01:15Z</time>
      </trkpt>
      <trkpt lat="43.25829" lon="6.53176">
        <ele>10</ele>
        <time>2017-03-04T19:01:35Z</time>
      </trkpt>
      <trkpt lat="43.25685" lon="6.53217">
        <ele>9</ele>
        <time>2017-03-04T19:01:55Z</time>
      </trkpt>
      <trkpt lat="43.25613" lon="6.53215">
        <ele>13</ele>
        <time>2017-03-04T19:02:15Z</time>
      </trkpt>
      <trkpt lat="43.2554" lon="6.53297">
        <ele>14</ele>
        <time>2017-03-04T19:02:35Z</time>
      </trkpt>
      <trkpt lat="43.25318" lon="6.53314">
        <ele>36</ele>
        <time>2017-03-04T19:02:55Z</time>
      </trkpt>
      <trkpt lat="43.25255" lon="6.53284">
        <ele>36</ele>
        <time>2017-03-04T19:03:15Z</time>
      </trkpt>
      <trkpt lat="43.2524" lon="6.53245">
        <ele>36</ele>
        <time>2017-03-04T19:03:35Z</time>
      </trkpt>
      <trkpt lat="43.25126" lon="6.53194">
        <ele>26</ele>
        <time>2017-03-04T19:03:55Z</time>
      </trkpt>
      <trkpt lat="43.24899" lon="6.53217">
        <ele>18</ele>
        <time>2017-03-04T19:04:15Z</time>
      </trkpt>
      <trkpt lat="43.24868" lon="6.53247">
        <ele>18</ele>
        <time>2017-03-04T19:04:35Z</time>
      </trkpt>
      <trkpt lat="43.2478" lon="6.53404">
        <ele>18</ele>
        <time>2017-03-04T19:04:55Z</time>
      </trkpt>
      <trkpt lat="43.24677" lon="6.53406">
        <ele>17</ele>
        <time>2017-03-04T19:05:15Z</time>
      </trkpt>
      <trkpt lat="43.24572" lon="6.53333">
        <ele>19</ele>
        <time>2017-03-04T19:05:35Z</time>
      </trkpt>
      <trkpt lat="43.24513" lon="6.53376">
        <ele>16</ele>
        <time>2017-03-04T19:05:55Z</time>
      </trkpt>
      <trkpt lat="43.24525" lon="6.53412">
        <ele>15</ele>
        <time>2017-03-04T19:06:15Z</time>
      </trkpt>
      <trkpt lat="43.24514" lon="6.53477">
        <ele>11</ele>
        <time>2017-03-04T19:06:35Z</time>
      </trkpt>
      <trkpt lat="43.24466" lon="6.5358">
        <ele>9</ele>
        <time>2017-03-04T19:06:55Z</time>
      </trkpt>
      <trkpt lat="43.24443" lon="6.53666">
        <ele>9</ele>
        <time>2017-03-04T19:07:15Z</time>
      </trkpt>
      <trkpt lat="43.24314" lon="6.53794">
        <ele>10</ele>
        <time>2017-03-04T19:07:35Z</time>
      </trkpt>
      <trkpt lat="43.2423" lon="6.53784">
        <ele>10</ele>
        <time>2017-03-04T19:07:55Z</time>
      </trkpt>
      <trkpt lat="43.24189" lon="6.53799">
        <ele>9</ele>
        <time>2017-03-04T19:08:15Z</time>
      </trkpt>
      <trkpt lat="43.24092" lon="6.5387">
        <ele>9</ele>
        <time>2017-03-04T19:08:35Z</time>
      </trkpt>
      <trkpt lat="43.24003" lon="6.53835">
        <ele>13</ele>
        <time>2017-03-04T19:08:55Z</time>
      </trkpt>
      <trkpt lat="43.23731" lon="6.54151">
        <ele>10</ele>
        <time>2017-03-04T19:09:15Z</time>
      </trkpt>
      <trkpt lat="43.23703" lon="6.54215">
        <ele>11</ele>
        <time>2017-03-04T19:09:35Z</time>
      </trkpt>
      <trkpt lat="43.23642" lon="6.54275">
        <ele>15</ele>
        <time>2017-03-04T19:09:55Z</time>
      </trkpt>
      <trkpt lat="43.2352" lon="6.54453">
        <ele>26</ele>
        <time>2017-03-04T19:10:15Z</time>
      </trkpt>
      <trkpt lat="43.23326" lon="6.5453">
        <ele>32</ele>
        <time>2017-03-04T19:10:35Z</time>
      </trkpt>
      <trkpt lat="43.2327" lon="6.54627">
        <ele>40</ele>
        <time>2017-03-04T19:10:55Z</time>
      </trkpt>
      <trkpt lat="43.2319" lon="6.5464">
        <ele>42</ele>
        <time>2017-03-04T19:11:15Z</time>
      </trkpt>
      <trkpt lat="43.23129" lon="6.54719">
        <ele>59</ele>
        <time>2017-03-04T19:11:35Z</time>
      </trkpt>
      <trkpt lat="43.23143" lon="6.54743">
        <ele>59</ele>
        <time>2017-03-04T19:11:55Z</time>
      </trkpt>
      <trkpt lat="43.23172" lon="6.54736">
        <ele>55</ele>
        <time>2017-03-04T19:12:15Z</time>
      </trkpt>
      <trkpt lat="43.23209" lon="6.54786">
        <ele>57</ele>
        <time>2017-03-04T19:12:35Z</time>
      </trkpt>
      <trkpt lat="43.23186" lon="6.54829">
        <ele>60</ele>
        <time>2017-03-04T19:12:55Z</time>
      </trkpt>
      <trkpt lat="43.23108" lon="6.54852">
        <ele>67</ele>
        <time>2017-03-04T19:13:15Z</time>
      </trkpt>
      <trkpt lat="43.23042" lon="6.54949">
        <ele>71</ele>
        <time>2017-03-04T19:13:35Z</time>
      </trkpt>
      <trkpt lat="43.22846" lon="6.55043">
        <ele>80</ele>
        <time>2017-03-04T19:13:55Z</time>
      </trkpt>
      <trkpt lat="43.22756" lon="6.54979">
        <ele>83</ele>
        <time>2017-03-04T19:14:15Z</time>
      </trkpt>
      <trkpt lat="43.2267" lon="6.54977">
        <ele>80</ele>
        <time>2017-03-04T19:14:35Z</time>
      </trkpt>
      <trkpt lat="43.22582" lon="6.54865">
        <ele>81</ele>
        <time>2017-03-04T19:14:55Z</time>
      </trkpt>
      <trkpt lat="43.22571" lon="6.54822">
        <ele>90</ele>
        <time>2017-03-04T19:15:15Z</time>
      </trkpt>
      <trkpt lat="43.22523" lon="6.54758">
        <ele>87</ele>
        <time>2017-03-04T19:15:35Z</time>
      </trkpt>
      <trkpt lat="43.22524" lon="6.54648">
        <ele>107</ele>
        <time>2017-03-04T19:15:55Z</time>
      </trkpt>
      <trkpt lat="43.22492" lon="6.54593">
        <ele>98</ele>
        <time>2017-03-04T19:16:15Z</time>
      </trkpt>
      <trkpt lat="43.22488" lon="6.54533">
        <ele>104</ele>
        <time>2017-03-04T19:16:35Z</time>
      </trkpt>
      <trkpt lat="43.22443" lon="6.54445">
        <ele>113</ele>
        <time>2017-03-04T19:16:55Z</time>
      </trkpt>
      <trkpt lat="43.22427" lon="6.54389">
        <ele>125</ele>
        <time>2017-03-04T19:17:15Z</time>
      </trkpt>
      <trkpt lat="43.22326" lon="6.54215">
        <ele>123</ele>
        <time>2017-03-04T19:17:35Z</time>
      </trkpt>
      <trkpt lat="43.22305" lon="6.54123">
        <ele>140</ele>
        <time>2017-03-04T19:17:55Z</time>
      </trkpt>
      <trkpt lat="43.22268" lon="6.54073">
        <ele>144</ele>
        <time>2017-03-04T19:18:15Z</time>
      </trkpt>
      <trkpt lat="43.22237" lon="6.53945">
        <ele>155</ele>
        <time>2017-03-04T19:18:35Z</time>
      </trkpt>
      <trkpt lat="43.2221" lon="6.53912">
        <ele>169</ele>
        <time>2017-03-04T19:18:55Z</time>
      </trkpt>
      <trkpt lat="43.22024" lon="6.53824">
        <ele>186</ele>
        <time>2017-03-04T19:19:15Z</time>
      </trkpt>
      <trkpt lat="43.21947" lon="6.53842">
        <ele>190</ele>
        <time>2017-03-04T19:19:35Z</time>
      </trkpt>
      <trkpt lat="43.21924" lon="6.53955">
        <ele>182</ele>
        <time>2017-03-04T19:19:55Z</time>
      </trkpt>
      <trkpt lat="43.21854" lon="6.54026">
        <ele>197</ele>
        <time>2017-03-04T19:20:15Z</time>
      </trkpt>
      <trkpt lat="43.21766" lon="6.54048">
        <ele>208</ele>
        <time>2017-03-04T19:20:35Z</time>
      </trkpt>
      <trkpt lat="43.21702" lon="6.54039">
        <ele>218</ele>
        <time>2017-03-04T19:20:55Z</time>
      </trkpt>
      <trkpt lat="43.21752" lon="6.54123">
        <ele>212</ele>
        <time>2017-03-04T19:21:15Z</time>
      </trkpt>
      <trkpt lat="43.21785" lon="6.54114">
        <ele>210</ele>
        <time>2017-03-04T19:21:35Z</time>
      </trkpt>
      <trkpt lat="43.2194" lon="6.54159">
        <ele>206</ele>
        <time>2017-03-04T19:21:55Z</time>
      </trkpt>
      <trkpt lat="43.21976" lon="6.54213">
        <ele>211</ele>
        <time>2017-03-04T19:22:15Z</time>
      </trkpt>
      <trkpt lat="43.21961" lon="6.5426">
        <ele>213</ele>
        <time>2017-03-04T19:22:35Z</time>
      </trkpt>
      <trkpt lat="43.21899" lon="6.54305">
        <ele>226</ele>
        <time>2017-03-04T19:22:55Z</time>
      </trkpt>
      <trkpt lat="43.21819" lon="6.54256">
        <ele>236</ele>
        <time>2017-03-04T19:23:15Z</time>
      </trkpt>
      <trkpt lat="43.21753" lon="6.54277">
        <ele>239</ele>
        <time>2017-03-04T19:23:35Z</time>
      </trkpt>
      <trkpt lat="43.21702" lon="6.54266">
        <ele>250</ele>
        <time>2017-03-04T19:23:55Z</time>
      </trkpt>
      <trkpt lat="43.21696" lon="6.54163">
        <ele>230</ele>
        <time>2017-03-04T19:24:15Z</time>
      </trkpt>
      <trkpt lat="43.21588" lon="6.54129">
        <ele>245</ele>
        <time>2017-03-04T19:24:35Z</time>
      </trkpt>
      <trkpt lat="43.21525" lon="6.54043">
        <ele>245</ele>
        <time>2017-03-04T19:24:55Z</time>
      </trkpt>
      <trkpt lat="43.2148" lon="6.54073">
        <ele>255</ele>
        <time>2017-03-04T19:25:15Z</time>
      </trkpt>
      <trkpt lat="43.21433" lon="6.54063">
        <ele>258</ele>
        <time>2017-03-04T19:25:35Z</time>
      </trkpt>
      <trkpt lat="43.21395" lon="6.54099">
        <ele>270</ele>
        <time>2017-03-04T19:25:55Z</time>
      </trkpt>
      <trkpt lat="43.21381" lon="6.54041">
        <ele>266</ele>
        <time>2017-03-04T19:26:15Z</time>
      </trkpt>
      <trkpt lat="43.21309" lon="6.53996">
        <ele>274</ele>
        <time>2017-03-04T19:26:35Z</time>
      </trkpt>
      <trkpt lat="43.21251" lon="6.53998">
        <ele>281</ele>
        <time>2017-03-04T19:26:55Z</time>
      </trkpt>
      <trkpt lat="43.21266" lon="6.53942">
        <ele>278</ele>
        <time>2017-03-04T19:27:15Z</time>
      </trkpt>
      <trkpt lat="43.2122" lon="6.53816">
        <ele>294</ele>
        <time>2017-03-04T19:27:35Z</time>
      </trkpt>
      <trkpt lat="43.21084" lon="6.53732">
        <ele>306</ele>
        <time>2017-03-04T19:27:55Z</time>
      </trkpt>
      <trkpt lat="43.21026" lon="6.53715">
        <ele>310</ele>
        <time>2017-03-04T19:28:15Z</time>
      </trkpt>
      <trkpt lat="43.21095" lon="6.53573">
        <ele>317</ele>
        <time>2017-03-04T19:28:35Z</time>
      </trkpt>
      <trkpt lat="43.21025" lon="6.53434">
        <ele>327</ele>
        <time>2017-03-04T19:28:55Z</time>
      </trkpt>
      <trkpt lat="43.21008" lon="6.5337">
        <ele>333</ele>
        <time>2017-03-04T19:29:15Z</time>
      </trkpt>
      <trkpt lat="43.20975" lon="6.5332">
        <ele>339</ele>
        <time>2017-03-04T19:29:35Z</time>
      </trkpt>
      <trkpt lat="43.2097" lon="6.53282">
        <ele>341</ele>
        <time>2017-03-04T19:29:55Z</time>
      </trkpt>
      <trkpt lat="43.20918" lon="6.53221">
        <ele>346</ele>
        <time>2017-03-04T19:30:15Z</time>
      </trkpt>
      <trkpt lat="43.20909" lon="6.53187">
        <ele>351</ele>
        <time>2017-03-04T19:30:35Z</time>
      </trkpt>
      <trkpt lat="43.2082" lon="6.53054">
        <ele>361</ele>
        <time>2017-03-04T19:30:55Z</time>
      </trkpt>
      <trkpt lat="43.2082" lon="6.52945">
        <ele>367</ele>
        <time>2017-03-04T19:31:15Z</time>
      </trkpt>
      <trkpt lat="43.20801" lon="6.52895">
        <ele>369</ele>
        <time>2017-03-04T19:31:35Z</time>
      </trkpt>
      <trkpt lat="43.20804" lon="6.52777">
        <ele>368</ele>
        <time>2017-03-04T19:31:55Z</time>
      </trkpt>
      <trkpt lat="43.20817" lon="6.52722">
        <ele>366</ele>
        <time>2017-03-04T19:32:15Z</time>
      </trkpt>
      <trkpt lat="43.20815" lon="6.52593">
        <ele>366</ele>
        <time>2017-03-04T19:32:35Z</time>
      </trkpt>
      <trkpt lat="43.20831" lon="6.52488">
        <ele>366</ele>
        <time>2017-03-04T19:32:55Z</time>
      </trkpt>
      <trkpt lat="43.20817" lon="6.52408">
        <ele>355</ele>
        <time>2017-03-04T19:33:15Z</time>
      </trkpt>
      <trkpt lat="43.20782" lon="6.52365">
        <ele>348</ele>
        <time>2017-03-04T19:33:35Z</time>
      </trkpt>
      <trkpt lat="43.20731" lon="6.52329">
        <ele>333</ele>
        <time>2017-03-04T19:33:55Z</time>
      </trkpt>
      <trkpt lat="43.20649" lon="6.52196">
        <ele>316</ele>
        <time>2017-03-04T19:34:15Z</time>
      </trkpt>
      <trkpt lat="43.20613" lon="6.52116">
        <ele>324</ele>
        <time>2017-03-04T19:34:35Z</time>
      </trkpt>
      <trkpt lat="43.20563" lon="6.5208">
        <ele>328</ele>
        <time>2017-03-04T19:34:55Z</time>
      </trkpt>
      <trkpt lat="43.20535" lon="6.52022">
        <ele>330</ele>
        <time>2017-03-04T19:35:15Z</time>
      </trkpt>
      <trkpt lat="43.20482" lon="6.51988">
        <ele>334</ele>
        <time>2017-03-04T19:35:35Z</time>
      </trkpt>
      <trkpt lat="43.20459" lon="6.51947">
        <ele>340</ele>
        <time>2017-03-04T19:35:55Z</time>
      </trkpt>
      <trkpt lat="43.20429" lon="6.51958">
        <ele>335</ele>
        <time>2017-03-04T19:36:15Z</time>
      </trkpt>
      <trkpt lat="43.20393" lon="6.51945">
        <ele>331</ele>
        <time>2017-03-04T19:36:35Z</time>
      </trkpt>
      <trkpt lat="43.20326" lon="6.51955">
        <ele>322</ele>
        <time>2017-03-04T19:36:55Z</time>
      </trkpt>
      <trkpt lat="43.20257" lon="6.51902">
        <ele>339</ele>
        <time>2017-03-04T19:37:15Z</time>
      </trkpt>
      <trkpt lat="43.20158" lon="6.51923">
        <ele>316</ele>
        <time>2017-03-04T19:37:35Z</time>
      </trkpt>
      <trkpt lat="43.20064" lon="6.51915">
        <ele>323</ele>
        <time>2017-03-04T19:37:55Z</time>
      </trkpt>
      <trkpt lat="43.19992" lon="6.51859">
        <ele>320</ele>
        <time>2017-03-04T19:38:15Z</time>
      </trkpt>
      <trkpt lat="43.19941" lon="6.51865">
        <ele>312</ele>
        <time>2017-03-04T19:38:35Z</time>
      </trkpt>
      <trkpt lat="43.1988" lon="6.51711">
        <ele>325</ele>
        <time>2017-03-04T19:38:55Z</time>
      </trkpt>
      <trkpt lat="43.1985" lon="6.51674">
        <ele>321</ele>
        <time>2017-03-04T19:39:15Z</time>
      </trkpt>
      <trkpt lat="43.19777" lon="6.51496">
        <ele>344</ele>
        <time>2017-03-04T19:39:35Z</time>
      </trkpt>
      <trkpt lat="43.19717" lon="6.51458">
        <ele>318</ele>
        <time>2017-03-04T19:39:55Z</time>
      </trkpt>
      <trkpt lat="43.19708" lon="6.51331">
        <ele>338</ele>
        <time>2017-03-04T19:40:15Z</time>
      </trkpt>
      <trkpt lat="43.19665" lon="6.5117">
        <ele>339</ele>
        <time>2017-03-04T19:40:35Z</time>
      </trkpt>
      <trkpt lat="43.19573" lon="6.51089">
        <ele>358</ele>
        <time>2017-03-04T19:40:55Z</time>
      </trkpt>
      <trkpt lat="43.19475" lon="6.51084">
        <ele>369</ele>
        <time>2017-03-04T19:41:15Z</time>
      </trkpt>
      <trkpt lat="43.19371" lon="6.51029">
        <ele>384</ele>
        <time>2017-03-04T19:41:35Z</time>
      </trkpt>
      <trkpt lat="43.19285" lon="6.50996">
        <ele>402</ele>
        <time>2017-03-04T19:41:55Z</time>
      </trkpt>
      <trkpt lat="43.19246" lon="6.50964">
        <ele>420</ele>
        <time>2017-03-04T19:42:15Z</time>
      </trkpt>
      <trkpt lat="43.19209" lon="6.5096">
        <ele>424</ele>
        <time>2017-03-04T19:42:35Z</time>
      </trkpt>
      <trkpt lat="43.19162" lon="6.50906">
        <ele>448</ele>
        <time>2017-03-04T19:42:55Z</time>
      </trkpt>
      <trkpt lat="43.19063" lon="6.50893">
        <ele>463</ele>
        <time>2017-03-04T19:43:15Z</time>
      </trkpt>
      <trkpt lat="43.18974" lon="6.50846">
        <ele>464</ele>
        <time>2017-03-04T19:43:35Z</time>
      </trkpt>
      <trkpt lat="43.18988" lon="6.5076">
        <ele>476</ele>
        <time>2017-03-04T19:43:55Z</time>
      </trkpt>
      <trkpt lat="43.18949" lon="6.50677">
        <ele>486</ele>
        <time>2017-03-04T19:44:15Z</time>
      </trkpt>
      <trkpt lat="43.18994" lon="6.50509">
        <ele>510</ele>
        <time>2017-03-04T19:44:35Z</time>
      </trkpt>
      <trkpt lat="43.18979" lon="6.50406">
        <ele>518</ele>
        <time>2017-03-04T19:44:55Z</time>
      </trkpt>
      <trkpt lat="43.19012" lon="6.50346">
        <ele>518</ele>
        <time>2017-03-04T19:45:15Z</time>
      </trkpt>
      <trkpt lat="43.19004" lon="6.50297">
        <ele>520</ele>
        <time>2017-03-04T19:45:35Z</time>
      </trkpt>
      <trkpt lat="43.19044" lon="6.5023">
        <ele>520</ele>
        <time>2017-03-04T19:45:55Z</time>
      </trkpt>
      <trkpt lat="43.19012" lon="6.50164">
        <ele>517</ele>
        <time>2017-03-04T19:46:15Z</time>
      </trkpt>
      <trkpt lat="43.19008" lon="6.50104">
        <ele>519</ele>
        <time>2017-03-04T19:46:35Z</time>
      </trkpt>
      <trkpt lat="43.18955" lon="6.50031">
        <ele>519</ele>
        <time>2017-03-04T19:46:55Z</time>
      </trkpt>
      <trkpt lat="43.18891" lon="6.50031">
        <ele>516</ele>
        <time>2017-03-04T19:47:15Z</time>
      </trkpt>
      <trkpt lat="43.18847" lon="6.50063">
        <ele>511</ele>
        <time>2017-03-04T19:47:35Z</time>
      </trkpt>
      <trkpt lat="43.18811" lon="6.50054">
        <ele>507</ele>
        <time>2017-03-04T19:47:55Z</time>
      </trkpt>
      <trkpt lat="43.18699" lon="6.50052">
        <ele>497</ele>
        <time>2017-03-04T19:48:15Z</time>
      </trkpt>
      <trkpt lat="43.18678" lon="6.50026">
        <ele>496</ele>
        <time>2017-03-04T19:48:35Z</time>
      </trkpt>
      <trkpt lat="43.18677" lon="6.49981">
        <ele>494</ele>
        <time>2017-03-04T19:48:55Z</time>
      </trkpt>
      <trkpt lat="43.18619" lon="6.49904">
        <ele>471</ele>
        <time>2017-03-04T19:49:15Z</time>
      </trkpt>
      <trkpt lat="43.18542" lon="6.49911">
        <ele>466</ele>
        <time>2017-03-04T19:49:35Z</time>
      </trkpt>
      <trkpt lat="43.18528" lon="6.49885">
        <ele>464</ele>
        <time>2017-03-04T19:49:55Z</time>
      </trkpt>
      <trkpt lat="43.18431" lon="6.49844">
        <ele>460</ele>
        <time>2017-03-04T19:50:15Z</time>
      </trkpt>
      <trkpt lat="43.18406" lon="6.49874">
        <ele>459</ele>
        <time>2017-03-04T19:50:35Z</time>
      </trkpt>
      <trkpt lat="43.18303" lon="6.49941">
        <ele>467</ele>
        <time>2017-03-04T19:50:55Z</time>
      </trkpt>
      <trkpt lat="43.1822" lon="6.49923">
        <ele>476</ele>
        <time>2017-03-04T19:51:15Z</time>
      </trkpt>
      <trkpt lat="43.18175" lon="6.49951">
        <ele>476</ele>
        <time>2017-03-04T19:51:35Z</time>
      </trkpt>
      <trkpt lat="43.18132" lon="6.50011">
        <ele>474</ele>
        <time>2017-03-04T19:51:55Z</time>
      </trkpt>
      <trkpt lat="43.18123" lon="6.50095">
        <ele>465</ele>
        <time>2017-03-04T19:52:15Z</time>
      </trkpt>
      <trkpt lat="43.18099" lon="6.50114">
        <ele>464</ele>
        <time>2017-03-04T19:52:35Z</time>
      </trkpt>
      <trkpt lat="43.18092" lon="6.50144">
        <ele>461</ele>
        <time>2017-03-04T19:52:55Z</time>
      </trkpt>
      <trkpt lat="43.18051" lon="6.50153">
        <ele>452</ele>
        <time>2017-03-04T19:53:15Z</time>
      </trkpt>
      <trkpt lat="43.18024" lon="6.50074">
        <ele>444</ele>
        <time>2017-03-04T19:53:35Z</time>
      </trkpt>
      <trkpt lat="43.17965" lon="6.50134">
        <ele>424</ele>
        <time>2017-03-04T19:53:55Z</time>
      </trkpt>
      <trkpt lat="43.1796" lon="6.50228">
        <ele>425</ele>
        <time>2017-03-04T19:54:15Z</time>
      </trkpt>
      <trkpt lat="43.17943" lon="6.50222">
        <ele>424</ele>
        <time>2017-03-04T19:54:35Z</time>
      </trkpt>
      <trkpt lat="43.17955" lon="6.50114">
        <ele>420</ele>
        <time>2017-03-04T19:54:55Z</time>
      </trkpt>
      <trkpt lat="43.17987" lon="6.5002">
        <ele>417</ele>
        <time>2017-03-04T19:55:15Z</time>
      </trkpt>
      <trkpt lat="43.17985" lon="6.49962">
        <ele>413</ele>
        <time>2017-03-04T19:55:35Z</time>
      </trkpt>
      <trkpt lat="43.17934" lon="6.49906">
        <ele>403</ele>
        <time>2017-03-04T19:55:55Z</time>
      </trkpt>
      <trkpt lat="43.1793" lon="6.4984">
        <ele>406</ele>
        <time>2017-03-04T19:56:15Z</time>
      </trkpt>
      <trkpt lat="43.17904" lon="6.49803">
        <ele>388</ele>
        <time>2017-03-04T19:56:35Z</time>
      </trkpt>
      <trkpt lat="43.17851" lon="6.49662">
        <ele>390</ele>
        <time>2017-03-04T19:56:55Z</time>
      </trkpt>
      <trkpt lat="43.17791" lon="6.49642">
        <ele>366</ele>
        <time>2017-03-04T19:57:15Z</time>
      </trkpt>
      <trkpt lat="43.17761" lon="6.49563">
        <ele>372</ele>
        <time>2017-03-04T19:57:35Z</time>
      </trkpt>
      <trkpt lat="43.17729" lon="6.49526">
        <ele>357</ele>
        <time>2017-03-04T19:57:55Z</time>
      </trkpt>
      <trkpt lat="43.17696" lon="6.49449">
        <ele>365</ele>
        <time>2017-03-04T19:58:15Z</time>
      </trkpt>
      <trkpt lat="43.17636" lon="6.49445">
        <ele>343</ele>
        <time>2017-03-04T19:58:35Z</time>
      </trkpt>
      <trkpt lat="43.17621" lon="6.49402">
        <ele>348</ele>
        <time>2017-03-04T19:58:55Z</time>
      </trkpt>
      <trkpt lat="43.17632" lon="6.4932">
        <ele>350</ele>
        <time>2017-03-04T19:59:15Z</time>
      </trkpt>
      <trkpt lat="43.17591" lon="6.49241">
        <ele>340</ele>
        <time>2017-03-04T19:59:35Z</time>
      </trkpt>
      <trkpt lat="43.17524" lon="6.48823">
        <ele>316</ele>
        <time>2017-03-04T19:59:55Z</time>
      </trkpt>
      <trkpt lat="43.1745" lon="6.48726">
        <ele>310</ele>
        <time>2017-03-04T20:00:15Z</time>
      </trkpt>
      <trkpt lat="43.1742" lon="6.48524">
        <ele>306</ele>
        <time>2017-03-04T20:00:35Z</time>
      </trkpt>
      <trkpt lat="43.174" lon="6.48233">
        <ele>301</ele>
        <time>2017-03-04T20:00:55Z</time>
      </trkpt>
      <trkpt lat="43.17309" lon="6.48239">
        <ele>299</ele>
        <time>2017-03-04T20:01:15Z</time>
      </trkpt>
      <trkpt lat="43.17269" lon="6.48181">
        <ele>303</ele>
        <time>2017-03-04T20:01:35Z</time>
      </trkpt>
      <trkpt lat="43.17222" lon="6.48164">
        <ele>300</ele>
        <time>2017-03-04T20:01:55Z</time>
      </trkpt>
      <trkpt lat="43.172" lon="6.48065">
        <ele>311</ele>
        <time>2017-03-04T20:02:15Z</time>
      </trkpt>
      <trkpt lat="43.17037" lon="6.47896">
        <ele>305</ele>
        <time>2017-03-04T20:02:35Z</time>
      </trkpt>
      <trkpt lat="43.1701" lon="6.47891">
        <ele>304</ele>
        <time>2017-03-04T20:02:55Z</time>
      </trkpt>
      <trkpt lat="43.16924" lon="6.47928">
        <ele>294</ele>
        <time>2017-03-04T20:03:15Z</time>
      </trkpt>
      <trkpt lat="43.16829" lon="6.47939">
        <ele>293</ele>
        <time>2017-03-04T20:03:35Z</time>
      </trkpt>
      <trkpt lat="43.16772" lon="6.47964">
        <ele>290</ele>
        <time>2017-03-04T20:03:55Z</time>
      </trkpt>
      <trkpt lat="43.16761" lon="6.4793">
        <ele>289</ele>
        <time>2017-03-04T20:04:15Z</time>
      </trkpt>
      <trkpt lat="43.16807" lon="6.47803">
        <ele>285</ele>
        <time>2017-03-04T20:04:35Z</time>
      </trkpt>
      <trkpt lat="43.16819" lon="6.47722">
        <ele>275</ele>
        <time>2017-03-04T20:04:55Z</time>
      </trkpt>
      <trkpt lat="43.16887" lon="6.47529">
        <ele>262</ele>
        <time>2017-03-04T20:05:15Z</time>
      </trkpt>
      <trkpt lat="43.16893" lon="6.47467">
        <ele>258</ele>
        <time>2017-03-04T20:05:35Z</time>
      </trkpt>
      <trkpt lat="43.16971" lon="6.47396">
        <ele>261</ele>
        <time>2017-03-04T20:05:55Z</time>
      </trkpt>
      <trkpt lat="43.17045" lon="6.47254">
        <ele>256</ele>
        <time>2017-03-04T20:06:15Z</time>
      </trkpt>
      <trkpt lat="43.17049" lon="6.47192">
        <ele>257</ele>
        <time>2017-03-04T20:06:35Z</time>
      </trkpt>
      <trkpt lat="43.16987" lon="6.47003">
        <ele>253</ele>
        <time>2017-03-04T20:06:55Z</time>
      </trkpt>
      <trkpt lat="43.1701" lon="6.46906">
        <ele>256</ele>
        <time>2017-03-04T20:07:15Z</time>
      </trkpt>
      <trkpt lat="43.17079" lon="6.46722">
        <ele>272</ele>
        <time>2017-03-04T20:07:35Z</time>
      </trkpt>
      <trkpt lat="43.17156" lon="6.46713">
        <ele>269</ele>
        <time>2017-03-04T20:07:55Z</time>
      </trkpt>
      <trkpt lat="43.1722" lon="6.46623">
        <ele>269</ele>
        <time>2017-03-04T20:08:15Z</time>
      </trkpt>
      <trkpt lat="43.17201" lon="6.46546">
        <ele>272</ele>
        <time>2017-03-04T20:08:35Z</time>
      </trkpt>
      <trkpt lat="43.17161" lon="6.46495">
        <ele>282</ele>
        <time>2017-03-04T20:08:55Z</time>
      </trkpt>
      <trkpt lat="43.17084" lon="6.4634">
        <ele>291</ele>
        <time>2017-03-04T20:09:15Z</time>
      </trkpt>
      <trkpt lat="43.17148" lon="6.46224">
        <ele>290</ele>
        <time>2017-03-04T20:09:35Z</time>
      </trkpt>
      <trkpt lat="43.17148" lon="6.46158">
        <ele>300</ele>
        <time>2017-03-04T20:09:55Z</time>
      </trkpt>
      <trkpt lat="43.17184" lon="6.46125">
        <ele>297</ele>
        <time>2017-03-04T20:10:15Z</time>
      </trkpt>
      <trkpt lat="43.17211" lon="6.46117">
        <ele>295</ele>
        <time>2017-03-04T20:10:35Z</time>
      </trkpt>
      <trkpt lat="43.1727" lon="6.46048">
        <ele>294</ele>
        <time>2017-03-04T20:10:55Z</time>
      </trkpt>
      <trkpt lat="43.17276" lon="6.45997">
        <ele>308</ele>
        <time>2017-03-04T20:11:15Z</time>
      </trkpt>
      <trkpt lat="43.17239" lon="6.4604">
        <ele>310</ele>
        <time>2017-03-04T20:11:35Z</time>
      </trkpt>
      <trkpt lat="43.17187" lon="6.46055">
        <ele>313</ele>
        <time>2017-03-04T20:11:55Z</time>
      </trkpt>
      <trkpt lat="43.17186" lon="6.4602">
        <ele>316</ele>
        <time>2017-03-04T20:12:15Z</time>
      </trkpt>
      <trkpt lat="43.17218" lon="6.45958">
        <ele>324</ele>
        <time>2017-03-04T20:12:35Z</time>
      </trkpt>
      <trkpt lat="43.17192" lon="6.45795">
        <ele>344</ele>
        <time>2017-03-04T20:12:55Z</time>
      </trkpt>
      <trkpt lat="43.17172" lon="6.45748">
        <ele>343</ele>
        <time>2017-03-04T20:13:15Z</time>
      </trkpt>
      <trkpt lat="43.17173" lon="6.45726">
        <ele>352</ele>
        <time>2017-03-04T20:13:35Z</time>
      </trkpt>
      <trkpt lat="43.17159" lon="6.45671">
        <ele>342</ele>
        <time>2017-03-04T20:13:55Z</time>
      </trkpt>
      <trkpt lat="43.1715" lon="6.45598">
        <ele>346</ele>
        <time>2017-03-04T20:14:15Z</time>
      </trkpt>
      <trkpt lat="43.17098" lon="6.45527">
        <ele>346</ele>
        <time>2017-03-04T20:14:35Z</time>
      </trkpt>
      <trkpt lat="43.17048" lon="6.45372">
        <ele>353</ele>
        <time>2017-03-04T20:14:55Z</time>
      </trkpt>
      <trkpt lat="43.17078" lon="6.45332">
        <ele>379</ele>
        <time>2017-03-04T20:15:15Z</time>
      </trkpt>
      <trkpt lat="43.17079" lon="6.45306">
        <ele>383</ele>
        <time>2017-03-04T20:15:35Z</time>
      </trkpt>
      <trkpt lat="43.17095" lon="6.45289">
        <ele>404</ele>
        <time>2017-03-04T20:15:55Z</time>
      </trkpt>
      <trkpt lat="43.17093" lon="6.45254">
        <ele>407</ele>
        <time>2017-03-04T20:16:15Z</time>
      </trkpt>
      <trkpt lat="43.17073" lon="6.45216">
        <ele>397</ele>
        <time>2017-03-04T20:16:35Z</time>
      </trkpt>
      <trkpt lat="43.17085" lon="6.45166">
        <ele>403</ele>
        <time>2017-03-04T20:16:55Z</time>
      </trkpt>
      <trkpt lat="43.17121" lon="6.45153">
        <ele>409</ele>
        <time>2017-03-04T20:17:15Z</time>
      </trkpt>
      <trkpt lat="43.17161" lon="6.45183">
        <ele>420</ele>
        <time>2017-03-04T20:17:35Z</time>
      </trkpt>
      <trkpt lat="43.17186" lon="6.45044">
        <ele>417</ele>
        <time>2017-03-04T20:17:55Z</time>
      </trkpt>
      <trkpt lat="43.17256" lon="6.44965">
        <ele>408</ele>
        <time>2017-03-04T20:18:15Z</time>
      </trkpt>
      <trkpt lat="43.17278" lon="6.44896">
        <ele>401</ele>
        <time>2017-03-04T20:18:35Z</time>
      </trkpt>
      <trkpt lat="43.1733" lon="6.44866">
        <ele>398</ele>
        <time>2017-03-04T20:18:55Z</time>
      </trkpt>
      <trkpt lat="43.17362" lon="6.44769">
        <ele>393</ele>
        <time>2017-03-04T20:19:15Z</time>
      </trkpt>
      <trkpt lat="43.17355" lon="6.44621">
        <ele>391</ele>
        <time>2017-03-04T20:19:35Z</time>
      </trkpt>
      <trkpt lat="43.1727" lon="6.4451">
        <ele>391</ele>
        <time>2017-03-04T20:19:55Z</time>
      </trkpt>
      <trkpt lat="43.17156" lon="6.4443">
        <ele>395</ele>
        <time>2017-03-04T20:20:15Z</time>
      </trkpt>
      <trkpt lat="43.17087" lon="6.44334">
        <ele>401</ele>
        <time>2017-03-04T20:20:35Z</time>
      </trkpt>
      <trkpt lat="43.17056" lon="6.44259">
        <ele>400</ele>
        <time>2017-03-04T20:20:55Z</time>
      </trkpt>
      <trkpt lat="43.16952" lon="6.44106">
        <ele>406</ele>
        <time>2017-03-04T20:21:15Z</time>
      </trkpt>
      <trkpt lat="43.16935" lon="6.44042">
        <ele>413</ele>
        <time>2017-03-04T20:21:35Z</time>
      </trkpt>
      <trkpt lat="43.16982" lon="6.43772">
        <ele>417</ele>
        <time>2017-03-04T20:21:55Z</time>
      </trkpt>
      <trkpt lat="43.1704" lon="6.43677">
        <ele>424</ele>
        <time>2017-03-04T20:22:15Z</time>
      </trkpt>
      <trkpt lat="43.17092" lon="6.43677">
        <ele>433</ele>
        <time>2017-03-04T20:22:35Z</time>
      </trkpt>
      <trkpt lat="43.17131" lon="6.43602">
        <ele>426</ele>
        <time>2017-03-04T20:22:55Z</time>
      </trkpt>
      <trkpt lat="43.17201" lon="6.43578">
        <ele>429</ele>
        <time>2017-03-04T20:23:15Z</time>
      </trkpt>
      <trkpt lat="43.17258" lon="6.43508">
        <ele>434</ele>
        <time>2017-03-04T20:23:35Z</time>
      </trkpt>
      <trkpt lat="43.17337" lon="6.43445">
        <ele>437</ele>
        <time>2017-03-04T20:23:55Z</time>
      </trkpt>
      <trkpt lat="43.17463" lon="6.43192">
        <ele>444</ele>
        <time>2017-03-04T20:24:15Z</time>
      </trkpt>
      <trkpt lat="43.17458" lon="6.43119">
        <ele>449</ele>
        <time>2017-03-04T20:24:35Z</time>
      </trkpt>
      <trkpt lat="43.17417" lon="6.43033">
        <ele>449</ele>
        <time>2017-03-04T20:24:55Z</time>
      </trkpt>
      <trkpt lat="43.17398" lon="6.42952">
        <ele>448</ele>
        <time>2017-03-04T20:25:15Z</time>
      </trkpt>
      <trkpt lat="43.1738" lon="6.4292">
        <ele>447</ele>
        <time>2017-03-04T20:25:35Z</time>
      </trkpt>
      <trkpt lat="43.1737" lon="6.42787">
        <ele>442</ele>
        <time>2017-03-04T20:25:55Z</time>
      </trkpt>
      <trkpt lat="43.17384" lon="6.42731">
        <ele>440</ele>
        <time>2017-03-04T20:26:15Z</time>
      </trkpt>
      <trkpt lat="43.17359" lon="6.42651">
        <ele>438</ele>
        <time>2017-03-04T20:26:35Z</time>
      </trkpt>
      <trkpt lat="43.1733" lon="6.42585">
        <ele>437</ele>
        <time>2017-03-04T20:26:55Z</time>
      </trkpt>
      <trkpt lat="43.17375" lon="6.42493">
        <ele>440</ele>
        <time>2017-03-04T20:27:15Z</time>
      </trkpt>
      <trkpt lat="43.17373" lon="6.4245">
        <ele>441</ele>
        <time>2017-03-04T20:27:35Z</time>
      </trkpt>
      <trkpt lat="43.17397" lon="6.42351">
        <ele>441</ele>
        <time>2017-03-04T20:27:55Z</time>
      </trkpt>
      <trkpt lat="43.17386" lon="6.42312">
        <ele>441</ele>
        <time>2017-03-04T20:28:15Z</time>
      </trkpt>
      <trkpt lat="43.17384" lon="6.42259">
        <ele>441</ele>
        <time>2017-03-04T20:28:35Z</time>
      </trkpt>
      <trkpt lat="43.17398" lon="6.42224">
        <ele>441</ele>
        <time>2017-03-04T20:28:55Z</time>
      </trkpt>
      <trkpt lat="43.17391" lon="6.42147">
        <ele>440</ele>
        <time>2017-03-04T20:29:15Z</time>
      </trkpt>
      <trkpt lat="43.17445" lon="6.41984">
        <ele>434</ele>
        <time>2017-03-04T20:29:35Z</time>
      </trkpt>
      <trkpt lat="43.17452" lon="6.419">
        <ele>429</ele>
        <time>2017-03-04T20:29:55Z</time>
      </trkpt>
      <trkpt lat="43.17475" lon="6.41858">
        <ele>426</ele>
        <time>2017-03-04T20:30:15Z</time>
      </trkpt>
      <trkpt lat="43.17506" lon="6.41853">
        <ele>420</ele>
        <time>2017-03-04T20:30:35Z</time>
      </trkpt>
      <trkpt lat="43.17508" lon="6.41817">
        <ele>417</ele>
        <time>2017-03-04T20:30:55Z</time>
      </trkpt>
      <trkpt lat="43.17495" lon="6.41729">
        <ele>414</ele>
        <time>2017-03-04T20:31:15Z</time>
      </trkpt>
      <trkpt lat="43.17456" lon="6.41604">
        <ele>404</ele>
        <time>2017-03-04T20:31:35Z</time>
      </trkpt>
      <trkpt lat="43.17434" lon="6.41574">
        <ele>399</ele>
        <time>2017-03-04T20:31:55Z</time>
      </trkpt>
      <trkpt lat="43.17414" lon="6.41415">
        <ele>388</ele>
        <time>2017-03-04T20:32:15Z</time>
      </trkpt>
      <trkpt lat="43.17398" lon="6.41383">
        <ele>385</ele>
        <time>2017-03-04T20:32:35Z</time>
      </trkpt>
      <trkpt lat="43.17386" lon="6.41323">
        <ele>380</ele>
        <time>2017-03-04T20:32:55Z</time>
      </trkpt>
      <trkpt lat="43.17406" lon="6.4128">
        <ele>379</ele>
        <time>2017-03-04T20:33:15Z</time>
      </trkpt>
      <trkpt lat="43.1737" lon="6.41218">
        <ele>376</ele>
        <time>2017-03-04T20:33:35Z</time>
      </trkpt>
      <trkpt lat="43.17373" lon="6.41083">
        <ele>375</ele>
        <time>2017-03-04T20:33:55Z</time>
      </trkpt>
      <trkpt lat="43.17356" lon="6.41019">
        <ele>376</ele>
        <time>2017-03-04T20:34:15Z</time>
      </trkpt>
      <trkpt lat="43.1738" lon="6.41019">
        <ele>377</ele>
        <time>2017-03-04T20:34:35Z</time>
      </trkpt>
      <trkpt lat="43.17403" lon="6.40961">
        <ele>382</ele>
        <time>2017-03-04T20:34:55Z</time>
      </trkpt>
      <trkpt lat="43.17398" lon="6.40898">
        <ele>388</ele>
        <time>2017-03-04T20:35:15Z</time>
      </trkpt>
      <trkpt lat="43.17414" lon="6.40795">
        <ele>400</ele>
        <time>2017-03-04T20:35:35Z</time>
      </trkpt>
      <trkpt lat="43.17427" lon="6.40772">
        <ele>404</ele>
        <time>2017-03-04T20:35:55Z</time>
      </trkpt>
      <trkpt lat="43.17417" lon="6.40735">
        <ele>413</ele>
        <time>2017-03-04T20:36:15Z</time>
      </trkpt>
      <trkpt lat="43.17459" lon="6.40592">
        <ele>429</ele>
        <time>2017-03-04T20:36:35Z</time>
      </trkpt>
      <trkpt lat="43.1742" lon="6.406">
        <ele>430</ele>
        <time>2017-03-04T20:36:55Z</time>
      </trkpt>
      <trkpt lat="43.17377" lon="6.40553">
        <ele>427</ele>
        <time>2017-03-04T20:37:15Z</time>
      </trkpt>
      <trkpt lat="43.17375" lon="6.40506">
        <ele>427</ele>
        <time>2017-03-04T20:37:35Z</time>
      </trkpt>
      <trkpt lat="43.17306" lon="6.40446">
        <ele>424</ele>
        <time>2017-03-04T20:37:55Z</time>
      </trkpt>
      <trkpt lat="43.17193" lon="6.40321">
        <ele>414</ele>
        <time>2017-03-04T20:38:15Z</time>
      </trkpt>
      <trkpt lat="43.17143" lon="6.40302">
        <ele>413</ele>
        <time>2017-03-04T20:38:35Z</time>
      </trkpt>
      <trkpt lat="43.17114" lon="6.40255">
        <ele>410</ele>
        <time>2017-03-04T20:38:55Z</time>
      </trkpt>
      <trkpt lat="43.17051" lon="6.40233">
        <ele>403</ele>
        <time>2017-03-04T20:39:15Z</time>
      </trkpt>
      <trkpt lat="43.17031" lon="6.40177">
        <ele>401</ele>
        <time>2017-03-04T20:39:35Z</time>
      </trkpt>
      <trkpt lat="43.16992" lon="6.40124">
        <ele>399</ele>
        <time>2017-03-04T20:39:55Z</time>
      </trkpt>
      <trkpt lat="43.16995" lon="6.40081">
        <ele>399</ele>
        <time>2017-03-04T20:40:15Z</time>
      </trkpt>
      <trkpt lat="43.16893" lon="6.39989">
        <ele>407</ele>
        <time>2017-03-04T20:40:35Z</time>
      </trkpt>
      <trkpt lat="43.16859" lon="6.39971">
        <ele>409</ele>
        <time>2017-03-04T20:40:55Z</time>
      </trkpt>
      <trkpt lat="43.16869" lon="6.39935">
        <ele>410</ele>
        <time>2017-03-04T20:41:15Z</time>
      </trkpt>
      <trkpt lat="43.1681" lon="6.39879">
        <ele>417</ele>
        <time>2017-03-04T20:41:35Z</time>
      </trkpt>
      <trkpt lat="43.16808" lon="6.39851">
        <ele>418</ele>
        <time>2017-03-04T20:41:55Z</time>
      </trkpt>
      <trkpt lat="43.16791" lon="6.39834">
        <ele>418</ele>
        <time>2017-03-04T20:42:15Z</time>
      </trkpt>
      <trkpt lat="43.16779" lon="6.39594">
        <ele>426</ele>
        <time>2017-03-04T20:42:35Z</time>
      </trkpt>
      <trkpt lat="43.16835" lon="6.39289">
        <ele>448</ele>
        <time>2017-03-04T20:42:55Z</time>
      </trkpt>
      <trkpt lat="43.16813" lon="6.39158">
        <ele>466</ele>
        <time>2017-03-04T20:43:15Z</time>
      </trkpt>
      <trkpt lat="43.16799" lon="6.39126">
        <ele>469</ele>
        <time>2017-03-04T20:43:35Z</time>
      </trkpt>
      <trkpt lat="43.16787" lon="6.39042">
        <ele>471</ele>
        <time>2017-03-04T20:43:55Z</time>
      </trkpt>
      <trkpt lat="43.16832" lon="6.38978">
        <ele>471</ele>
        <time>2017-03-04T20:44:15Z</time>
      </trkpt>
      <trkpt lat="43.1684" lon="6.38879">
        <ele>474</ele>
        <time>2017-03-04T20:44:35Z</time>
      </trkpt>
      <trkpt lat="43.16807" lon="6.38849">
        <ele>476</ele>
        <time>2017-03-04T20:44:55Z</time>
      </trkpt>
      <trkpt lat="43.16772" lon="6.3877">
        <ele>470</ele>
        <time>2017-03-04T20:45:15Z</time>
      </trkpt>
      <trkpt lat="43.16777" lon="6.38677">
        <ele>463</ele>
        <time>2017-03-04T20:45:35Z</time>
      </trkpt>
      <trkpt lat="43.16727" lon="6.3851">
        <ele>449</ele>
        <time>2017-03-04T20:45:55Z</time>
      </trkpt>
      <trkpt lat="43.16647" lon="6.38364">
        <ele>445</ele>
        <time>2017-03-04T20:46:15Z</time>
      </trkpt>
      <trkpt lat="43.16597" lon="6.38255">
        <ele>443</ele>
        <time>2017-03-04T20:46:35Z</time>
      </trkpt>
      <trkpt lat="43.16613" lon="6.38165">
        <ele>442</ele>
        <time>2017-03-04T20:46:55Z</time>
      </trkpt>
      <trkpt lat="43.16614" lon="6.37954">
        <ele>444</ele>
        <time>2017-03-04T20:47:15Z</time>
      </trkpt>
      <trkpt lat="43.16622" lon="6.37892">
        <ele>445</ele>
        <time>2017-03-04T20:47:35Z</time>
      </trkpt>
      <trkpt lat="43.16616" lon="6.37851">
        <ele>445</ele>
        <time>2017-03-04T20:47:55Z</time>
      </trkpt>
      <trkpt lat="43.16621" lon="6.37772">
        <ele>445</ele>
        <time>2017-03-04T20:48:15Z</time>
      </trkpt>
      <trkpt lat="43.1666" lon="6.37695">
        <ele>446</ele>
        <time>2017-03-04T20:48:35Z</time>
      </trkpt>
      <trkpt lat="43.16672" lon="6.37611">
        <ele>438</ele>
        <time>2017-03-04T20:48:55Z</time>
      </trkpt>
      <trkpt lat="43.16668" lon="6.37555">
        <ele>438</ele>
        <time>2017-03-04T20:49:15Z</time>
      </trkpt>
      <trkpt lat="43.16672" lon="6.37502">
        <ele>442</ele>
        <time>2017-03-04T20:49:35Z</time>
      </trkpt>
      <trkpt lat="43.16639" lon="6.3745">
        <ele>447</ele>
        <time>2017-03-04T20:49:55Z</time>
      </trkpt>
      <trkpt lat="43.16646" lon="6.37414">
        <ele>444</ele>
        <time>2017-03-04T20:50:15Z</time>
      </trkpt>
      <trkpt lat="43.1673" lon="6.37351">
        <ele>429</ele>
        <time>2017-03-04T20:50:35Z</time>
      </trkpt>
      <trkpt lat="43.16754" lon="6.37308">
        <ele>415</ele>
        <time>2017-03-04T20:50:55Z</time>
      </trkpt>
      <trkpt lat="43.1681" lon="6.37287">
        <ele>409</ele>
        <time>2017-03-04T20:51:15Z</time>
      </trkpt>
      <trkpt lat="43.16815" lon="6.37238">
        <ele>401</ele>
        <time>2017-03-04T20:51:35Z</time>
      </trkpt>
      <trkpt lat="43.16851" lon="6.37195">
        <ele>388</ele>
        <time>2017-03-04T20:51:55Z</time>
      </trkpt>
      <trkpt lat="43.16876" lon="6.37195">
        <ele>386</ele>
        <time>2017-03-04T20:52:15Z</time>
      </trkpt>
      <trkpt lat="43.16888" lon="6.37154">
        <ele>379</ele>
        <time>2017-03-04T20:52:35Z</time>
      </trkpt>
      <trkpt lat="43.16959" lon="6.37107">
        <ele>375</ele>
        <time>2017-03-04T20:52:55Z</time>
      </trkpt>
      <trkpt lat="43.16965" lon="6.37057">
        <ele>376</ele>
        <time>2017-03-04T20:53:15Z</time>
      </trkpt>
      <trkpt lat="43.17096" lon="6.36982">
        <ele>406</ele>
        <time>2017-03-04T20:53:35Z</time>
      </trkpt>
      <trkpt lat="43.17114" lon="6.36961">
        <ele>411</ele>
        <time>2017-03-04T20:53:55Z</time>
      </trkpt>
      <trkpt lat="43.17156" lon="6.36961">
        <ele>418</ele>
        <time>2017-03-04T20:54:15Z</time>
      </trkpt>
      <trkpt lat="43.17187" lon="6.36931">
        <ele>436</ele>
        <time>2017-03-04T20:54:35Z</time>
      </trkpt>
      <trkpt lat="43.1719" lon="6.36907">
        <ele>440</ele>
        <time>2017-03-04T20:54:55Z</time>
      </trkpt>
      <trkpt lat="43.17214" lon="6.36862">
        <ele>443</ele>
        <time>2017-03-04T20:55:15Z</time>
      </trkpt>
      <trkpt lat="43.1719" lon="6.36791">
        <ele>440</ele>
        <time>2017-03-04T20:55:35Z</time>
      </trkpt>
      <trkpt lat="43.17129" lon="6.36663">
        <ele>431</ele>
        <time>2017-03-04T20:55:55Z</time>
      </trkpt>
      <trkpt lat="43.17093" lon="6.36517">
        <ele>431</ele>
        <time>2017-03-04T20:56:15Z</time>
      </trkpt>
      <trkpt lat="43.17085" lon="6.36405">
        <ele>428</ele>
        <time>2017-03-04T20:56:35Z</time>
      </trkpt>
      <trkpt lat="43.17073" lon="6.36371">
        <ele>420</ele>
        <time>2017-03-04T20:56:55Z</time>
      </trkpt>
      <trkpt lat="43.17098" lon="6.36317">
        <ele>427</ele>
        <time>2017-03-04T20:57:15Z</time>
      </trkpt>
      <trkpt lat="43.17073" lon="6.36242">
        <ele>426</ele>
        <time>2017-03-04T20:57:35Z</time>
      </trkpt>
      <trkpt lat="43.17029" lon="6.3618">
        <ele>422</ele>
        <time>2017-03-04T20:57:55Z</time>
      </trkpt>
      <trkpt lat="43.16962" lon="6.36152">
        <ele>425</ele>
        <time>2017-03-04T20:58:15Z</time>
      </trkpt>
      <trkpt lat="43.16929" lon="6.36115">
        <ele>426</ele>
        <time>2017-03-04T20:58:35Z</time>
      </trkpt>
      <trkpt lat="43.16995" lon="6.3592">
        <ele>439</ele>
        <time>2017-03-04T20:58:55Z</time>
      </trkpt>
      <trkpt lat="43.16987" lon="6.35875">
        <ele>440</ele>
        <time>2017-03-04T20:59:15Z</time>
      </trkpt>
      <trkpt lat="43.17012" lon="6.35821">
        <ele>441</ele>
        <time>2017-03-04T20:59:35Z</time>
      </trkpt>
      <trkpt lat="43.16934" lon="6.35624">
        <ele>441</ele>
        <time>2017-03-04T20:59:55Z</time>
      </trkpt>
      <trkpt lat="43.16815" lon="6.35463">
        <ele>437</ele>
        <time>2017-03-04T21:00:15Z</time>
      </trkpt>
      <trkpt lat="43.16774" lon="6.35422">
        <ele>435</ele>
        <time>2017-03-04T21:00:35Z</time>
      </trkpt>
      <trkpt lat="43.16749" lon="6.35424">
        <ele>431</ele>
        <time>2017-03-04T21:00:55Z</time>
      </trkpt>
      <trkpt lat="43.16721" lon="6.35354">
        <ele>428</ele>
        <time>2017-03-04T21:01:15Z</time>
      </trkpt>
      <trkpt lat="43.16726" lon="6.35212">
        <ele>420</ele>
        <time>2017-03-04T21:01:35Z</time>
      </trkpt>
      <trkpt lat="43.16715" lon="6.35085">
        <ele>414</ele>
        <time>2017-03-04T21:01:55Z</time>
      </trkpt>
      <trkpt lat="43.16743" lon="6.34985">
        <ele>409</ele>
        <time>2017-03-04T21:02:15Z</time>
      </trkpt>
      <trkpt lat="43.16771" lon="6.34912">
        <ele>411</ele>
        <time>2017-03-04T21:02:35Z</time>
      </trkpt>
      <trkpt lat="43.16782" lon="6.34776">
        <ele>412</ele>
        <time>2017-03-04T21:02:55Z</time>
      </trkpt>
      <trkpt lat="43.16769" lon="6.34742">
        <ele>415</ele>
        <time>2017-03-04T21:03:15Z</time>
      </trkpt>
      <trkpt lat="43.16774" lon="6.34708">
        <ele>415</ele>
        <time>2017-03-04T21:03:35Z</time>
      </trkpt>
      <trkpt lat="43.16758" lon="6.34609">
        <ele>423</ele>
        <time>2017-03-04T21:03:55Z</time>
      </trkpt>
      <trkpt lat="43.16721" lon="6.34551">
        <ele>412</ele>
        <time>2017-03-04T21:04:15Z</time>
      </trkpt>
      <trkpt lat="43.16735" lon="6.34502">
        <ele>418</ele>
        <time>2017-03-04T21:04:35Z</time>
      </trkpt>
      <trkpt lat="43.16754" lon="6.3439">
        <ele>416</ele>
        <time>2017-03-04T21:04:55Z</time>
      </trkpt>
      <trkpt lat="43.16808" lon="6.34281">
        <ele>396</ele>
        <time>2017-03-04T21:05:15Z</time>
      </trkpt>
      <trkpt lat="43.16805" lon="6.34176">
        <ele>381</ele>
        <time>2017-03-04T21:05:35Z</time>
      </trkpt>
      <trkpt lat="43.16735" lon="6.34111">
        <ele>372</ele>
        <time>2017-03-04T21:05:55Z</time>
      </trkpt>
      <trkpt lat="43.16735" lon="6.34025">
        <ele>368</ele>
        <time>2017-03-04T21:06:15Z</time>
      </trkpt>
      <trkpt lat="43.16815" lon="6.3385">
        <ele>342</ele>
        <time>2017-03-04T21:06:35Z</time>
      </trkpt>
      <trkpt lat="43.16832" lon="6.33766">
        <ele>321</ele>
        <time>2017-03-04T21:06:55Z</time>
      </trkpt>
      <trkpt lat="43.16857" lon="6.33699">
        <ele>297</ele>
        <time>2017-03-04T21:07:15Z</time>
      </trkpt>
      <trkpt lat="43.16891" lon="6.33534">
        <ele>256</ele>
        <time>2017-03-04T21:07:35Z</time>
      </trkpt>
      <trkpt lat="43.16901" lon="6.3345">
        <ele>237</ele>
        <time>2017-03-04T21:07:55Z</time>
      </trkpt>
      <trkpt lat="43.16932" lon="6.33356">
        <ele>215</ele>
        <time>2017-03-04T21:08:15Z</time>
      </trkpt>
      <trkpt lat="43.16967" lon="6.33347">
        <ele>213</ele>
        <time>2017-03-04T21:08:35Z</time>
      </trkpt>
      <trkpt lat="43.17032" lon="6.33251">
        <ele>199</ele>
        <time>2017-03-04T21:08:55Z</time>
      </trkpt>
      <trkpt lat="43.17064" lon="6.33242">
        <ele>196</ele>
        <time>2017-03-04T21:09:15Z</time>
      </trkpt>
      <trkpt lat="43.17139" lon="6.3327">
        <ele>194</ele>
        <time>2017-03-04T21:09:35Z</time>
      </trkpt>
      <trkpt lat="43.17137" lon="6.33217">
        <ele>197</ele>
        <time>2017-03-04T21:09:55Z</time>
      </trkpt>
      <trkpt lat="43.1711" lon="6.33156">
        <ele>201</ele>
        <time>2017-03-04T21:10:15Z</time>
      </trkpt>
      <trkpt lat="43.17148" lon="6.33068">
        <ele>216</ele>
        <time>2017-03-04T21:10:35Z</time>
      </trkpt>
      <trkpt lat="43.17153" lon="6.33017">
        <ele>222</ele>
        <time>2017-03-04T21:10:55Z</time>
      </trkpt>
      <trkpt lat="43.17178" lon="6.32955">
        <ele>232</ele>
        <time>2017-03-04T21:11:15Z</time>
      </trkpt>
      <trkpt lat="43.17289" lon="6.32916">
        <ele>235</ele>
        <time>2017-03-04T21:11:35Z</time>
      </trkpt>
      <trkpt lat="43.17497" lon="6.32899">
        <ele>279</ele>
        <time>2017-03-04T21:11:55Z</time>
      </trkpt>
      <trkpt lat="43.17577" lon="6.32841">
        <ele>282</ele>
        <time>2017-03-04T21:12:15Z</time>
      </trkpt>
      <trkpt lat="43.17607" lon="6.32807">
        <ele>270</ele>
        <time>2017-03-04T21:12:35Z</time>
      </trkpt>
      <trkpt lat="43.17691" lon="6.32766">
        <ele>250</ele>
        <time>2017-03-04T21:12:55Z</time>
      </trkpt>
      <trkpt lat="43.17976" lon="6.32742">
        <ele>254</ele>
        <time>2017-03-04T21:13:15Z</time>
      </trkpt>
      <trkpt lat="43.18143" lon="6.32644">
        <ele>301</ele>
        <time>2017-03-04T21:13:35Z</time>
      </trkpt>
      <trkpt lat="43.18189" lon="6.32583">
        <ele>313</ele>
        <time>2017-03-04T21:13:55Z</time>
      </trkpt>
      <trkpt lat="43.18243" lon="6.32526">
        <ele>323</ele>
        <time>2017-03-04T21:14:15Z</time>
      </trkpt>
      <trkpt lat="43.18289" lon="6.32405">
        <ele>349</ele>
        <time>2017-03-04T21:14:35Z</time>
      </trkpt>
      <trkpt lat="43.18381" lon="6.32371">
        <ele>385</ele>
        <time>2017-03-04T21:14:55Z</time>
      </trkpt>
      <trkpt lat="43.18381" lon="6.32371">
        <ele>385</ele>
        <time>2017-03-04T21:15:15Z</time>
      </trkpt>
      <trkpt lat="43.1845" lon="6.3232">
        <ele>410</ele>
        <time>2017-03-04T21:15:35Z</time>
      </trkpt>
      <trkpt lat="43.18519" lon="6.32408">
        <ele>422</ele>
        <time>2017-03-04T21:15:55Z</time>
      </trkpt>
      <trkpt lat="43.18552" lon="6.32369">
        <ele>424</ele>
        <time>2017-03-04T21:16:15Z</time>
      </trkpt>
      <trkpt lat="43.18567" lon="6.32405">
        <ele>424</ele>
        <time>2017-03-04T21:16:35Z</time>
      </trkpt>
      <trkpt lat="43.18538" lon="6.32448">
        <ele>419</ele>
        <time>2017-03-04T21:16:55Z</time>
      </trkpt>
      <trkpt lat="43.18538" lon="6.32448">
        <ele>419</ele>
        <time>2017-03-04T21:17:15Z</time>
      </trkpt>
      <trkpt lat="43.18574" lon="6.32528">
        <ele>416</ele>
        <time>2017-03-04T21:17:35Z</time>
      </trkpt>
      <trkpt lat="43.1865" lon="6.32774">
        <ele>407</ele>
        <time>2017-03-04T21:17:55Z</time>
      </trkpt>
      <trkpt lat="43.18661" lon="6.32843">
        <ele>402</ele>
        <time>2017-03-04T21:18:15Z</time>
      </trkpt>
      <trkpt lat="43.18681" lon="6.32772">
        <ele>391</ele>
        <time>2017-03-04T21:18:35Z</time>
      </trkpt>
      <trkpt lat="43.18675" lon="6.32646">
        <ele>389</ele>
        <time>2017-03-04T21:18:55Z</time>
      </trkpt>
      <trkpt lat="43.18667" lon="6.32607">
        <ele>388</ele>
        <time>2017-03-04T21:19:15Z</time>
      </trkpt>
      <trkpt lat="43.1868" lon="6.32534">
        <ele>388</ele>
        <time>2017-03-04T21:19:35Z</time>
      </trkpt>
      <trkpt lat="43.18752" lon="6.32519">
        <ele>379</ele>
        <time>2017-03-04T21:19:55Z</time>
      </trkpt>
      <trkpt lat="43.18818" lon="6.32444">
        <ele>382</ele>
        <time>2017-03-04T21:20:15Z</time>
      </trkpt>
      <trkpt lat="43.18854" lon="6.32652">
        <ele>383</ele>
        <time>2017-03-04T21:20:35Z</time>
      </trkpt>
      <trkpt lat="43.18882" lon="6.32691">
        <ele>380</ele>
        <time>2017-03-04T21:20:55Z</time>
      </trkpt>
      <trkpt lat="43.18926" lon="6.32708">
        <ele>395</ele>
        <time>2017-03-04T21:21:15Z</time>
      </trkpt>
      <trkpt lat="43.18958" lon="6.32789">
        <ele>385</ele>
        <time>2017-03-04T21:21:35Z</time>
      </trkpt>
      <trkpt lat="43.18991" lon="6.32826">
        <ele>390</ele>
        <time>2017-03-04T21:21:55Z</time>
      </trkpt>
      <trkpt lat="43.18983" lon="6.3289">
        <ele>379</ele>
        <time>2017-03-04T21:22:15Z</time>
      </trkpt>
      <trkpt lat="43.19019" lon="6.32935">
        <ele>383</ele>
        <time>2017-03-04T21:22:35Z</time>
      </trkpt>
      <trkpt lat="43.19084" lon="6.32976">
        <ele>389</ele>
        <time>2017-03-04T21:22:55Z</time>
      </trkpt>
      <trkpt lat="43.19102" lon="6.32839">
        <ele>409</ele>
        <time>2017-03-04T21:23:15Z</time>
      </trkpt>
      <trkpt lat="43.19123" lon="6.32764">
        <ele>419</ele>
        <time>2017-03-04T21:23:35Z</time>
      </trkpt>
      <trkpt lat="43.19116" lon="6.32697">
        <ele>428</ele>
        <time>2017-03-04T21:23:55Z</time>
      </trkpt>
      <trkpt lat="43.19135" lon="6.32676">
        <ele>430</ele>
        <time>2017-03-04T21:24:15Z</time>
      </trkpt>
      <trkpt lat="43.19174" lon="6.32781">
        <ele>431</ele>
        <time>2017-03-04T21:24:35Z</time>
      </trkpt>
      <trkpt lat="43.19187" lon="6.3289">
        <ele>428</ele>
        <time>2017-03-04T21:24:55Z</time>
      </trkpt>
      <trkpt lat="43.19243" lon="6.32955">
        <ele>429</ele>
        <time>2017-03-04T21:25:15Z</time>
      </trkpt>
      <trkpt lat="43.19256" lon="6.33021">
        <ele>436</ele>
        <time>2017-03-04T21:25:35Z</time>
      </trkpt>
      <trkpt lat="43.19281" lon="6.33043">
        <ele>437</ele>
        <time>2017-03-04T21:25:55Z</time>
      </trkpt>
      <trkpt lat="43.19299" lon="6.33041">
        <ele>439</ele>
        <time>2017-03-04T21:26:15Z</time>
      </trkpt>
      <trkpt lat="43.1937" lon="6.33103">
        <ele>445</ele>
        <time>2017-03-04T21:26:35Z</time>
      </trkpt>
      <trkpt lat="43.19431" lon="6.33111">
        <ele>465</ele>
        <time>2017-03-04T21:26:55Z</time>
      </trkpt>
      <trkpt lat="43.1939" lon="6.33081">
        <ele>459</ele>
        <time>2017-03-04T21:27:15Z</time>
      </trkpt>
      <trkpt lat="43.19353" lon="6.33011">
        <ele>459</ele>
        <time>2017-03-04T21:27:35Z</time>
      </trkpt>
      <trkpt lat="43.19353" lon="6.32968">
        <ele>471</ele>
        <time>2017-03-04T21:27:55Z</time>
      </trkpt>
      <trkpt lat="43.19332" lon="6.32933">
        <ele>462</ele>
        <time>2017-03-04T21:28:15Z</time>
      </trkpt>
      <trkpt lat="43.19303" lon="6.32843">
        <ele>465</ele>
        <time>2017-03-04T21:28:35Z</time>
      </trkpt>
      <trkpt lat="43.19321" lon="6.32832">
        <ele>471</ele>
        <time>2017-03-04T21:28:55Z</time>
      </trkpt>
      <trkpt lat="43.19348" lon="6.32877">
        <ele>482</ele>
        <time>2017-03-04T21:29:15Z</time>
      </trkpt>
      <trkpt lat="43.19411" lon="6.3292">
        <ele>489</ele>
        <time>2017-03-04T21:29:35Z</time>
      </trkpt>
      <trkpt lat="43.19437" lon="6.32974">
        <ele>492</ele>
        <time>2017-03-04T21:29:55Z</time>
      </trkpt>
      <trkpt lat="43.19517" lon="6.3303">
        <ele>499</ele>
        <time>2017-03-04T21:30:15Z</time>
      </trkpt>
      <trkpt lat="43.19572" lon="6.33038">
        <ele>504</ele>
        <time>2017-03-04T21:30:35Z</time>
      </trkpt>
      <trkpt lat="43.19528" lon="6.33004">
        <ele>501</ele>
        <time>2017-03-04T21:30:55Z</time>
      </trkpt>
      <trkpt lat="43.19514" lon="6.32959">
        <ele>514</ele>
        <time>2017-03-04T21:31:15Z</time>
      </trkpt>
      <trkpt lat="43.19467" lon="6.32852">
        <ele>513</ele>
        <time>2017-03-04T21:31:35Z</time>
      </trkpt>
      <trkpt lat="43.19545" lon="6.3291">
        <ele>531</ele>
        <time>2017-03-04T21:31:55Z</time>
      </trkpt>
      <trkpt lat="43.19497" lon="6.32839">
        <ele>524</ele>
        <time>2017-03-04T21:32:15Z</time>
      </trkpt>
      <trkpt lat="43.19501" lon="6.32796">
        <ele>537</ele>
        <time>2017-03-04T21:32:35Z</time>
      </trkpt>
      <trkpt lat="43.19534" lon="6.32781">
        <ele>541</ele>
        <time>2017-03-04T21:32:55Z</time>
      </trkpt>
      <trkpt lat="43.1955" lon="6.32747">
        <ele>547</ele>
        <time>2017-03-04T21:33:15Z</time>
      </trkpt>
      <trkpt lat="43.19498" lon="6.32678">
        <ele>538</ele>
        <time>2017-03-04T21:33:35Z</time>
      </trkpt>
      <trkpt lat="43.19542" lon="6.32702">
        <ele>548</ele>
        <time>2017-03-04T21:33:55Z</time>
      </trkpt>
      <trkpt lat="43.19573" lon="6.32729">
        <ele>551</ele>
        <time>2017-03-04T21:34:15Z</time>
      </trkpt>
      <trkpt lat="43.19565" lon="6.328">
        <ele>544</ele>
        <time>2017-03-04T21:34:35Z</time>
      </trkpt>
      <trkpt lat="43.19601" lon="6.32841">
        <ele>552</ele>
        <time>2017-03-04T21:34:55Z</time>
      </trkpt>
      <trkpt lat="43.1964" lon="6.32847">
        <ele>556</ele>
        <time>2017-03-04T21:35:15Z</time>
      </trkpt>
      <trkpt lat="43.19683" lon="6.32899">
        <ele>561</ele>
        <time>2017-03-04T21:35:35Z</time>
      </trkpt>
      <trkpt lat="43.19775" lon="6.32869">
        <ele>575</ele>
        <time>2017-03-04T21:35:55Z</time>
      </trkpt>
      <trkpt lat="43.19806" lon="6.32895">
        <ele>577</ele>
        <time>2017-03-04T21:36:15Z</time>
      </trkpt>
      <trkpt lat="43.19813" lon="6.32862">
        <ele>578</ele>
        <time>2017-03-04T21:36:35Z</time>
      </trkpt>
      <trkpt lat="43.19767" lon="6.32815">
        <ele>579</ele>
        <time>2017-03-04T21:36:55Z</time>
      </trkpt>
      <trkpt lat="43.19816" lon="6.32826">
        <ele>583</ele>
        <time>2017-03-04T21:37:15Z</time>
      </trkpt>
      <trkpt lat="43.19866" lon="6.32824">
        <ele>586</ele>
        <time>2017-03-04T21:37:35Z</time>
      </trkpt>
      <trkpt lat="43.19894" lon="6.32719">
        <ele>589</ele>
        <time>2017-03-04T21:37:55Z</time>
      </trkpt>
      <trkpt lat="43.19938" lon="6.32667">
        <ele>589</ele>
        <time>2017-03-04T21:38:15Z</time>
      </trkpt>
      <trkpt lat="43.20019" lon="6.32652">
        <ele>586</ele>
        <time>2017-03-04T21:38:35Z</time>
      </trkpt>
      <trkpt lat="43.20125" lon="6.32596">
        <ele>583</ele>
        <time>2017-03-04T21:38:55Z</time>
      </trkpt>
      <trkpt lat="43.20125" lon="6.32596">
        <ele>583</ele>
        <time>2017-03-04T21:39:15Z</time>
      </trkpt>
      <trkpt lat="43.20204" lon="6.32596">
        <ele>578</ele>
        <time>2017-03-04T21:39:35Z</time>
      </trkpt>
      <trkpt lat="43.20232" lon="6.32581">
        <ele>577</ele>
        <time>2017-03-04T21:39:55Z</time>
      </trkpt>
      <trkpt lat="43.20238" lon="6.32521">
        <ele>576</ele>
        <time>2017-03-04T21:40:15Z</time>
      </trkpt>
      <trkpt lat="43.20199" lon="6.32444">
        <ele>572</ele>
        <time>2017-03-04T21:40:35Z</time>
      </trkpt>
      <trkpt lat="43.20147" lon="6.32408">
        <ele>576</ele>
        <time>2017-03-04T21:40:55Z</time>
      </trkpt>
      <trkpt lat="43.20135" lon="6.3233">
        <ele>574</ele>
        <time>2017-03-04T21:41:15Z</time>
      </trkpt>
      <trkpt lat="43.20168" lon="6.32187">
        <ele>559</ele>
        <time>2017-03-04T21:41:35Z</time>
      </trkpt>
      <trkpt lat="43.20179" lon="6.3221">
        <ele>557</ele>
        <time>2017-03-04T21:41:55Z</time>
      </trkpt>
      <trkpt lat="43.20164" lon="6.32317">
        <ele>570</ele>
        <time>2017-03-04T21:42:15Z</time>
      </trkpt>
      <trkpt lat="43.20179" lon="6.32367">
        <ele>564</ele>
        <time>2017-03-04T21:42:35Z</time>
      </trkpt>
      <trkpt lat="43.20244" lon="6.32388">
        <ele>561</ele>
        <time>2017-03-04T21:42:55Z</time>
      </trkpt>
      <trkpt lat="43.20297" lon="6.32442">
        <ele>552</ele>
        <time>2017-03-04T21:43:15Z</time>
      </trkpt>
      <trkpt lat="43.2026" lon="6.3235">
        <ele>549</ele>
        <time>2017-03-04T21:43:35Z</time>
      </trkpt>
      <trkpt lat="43.20244" lon="6.32337">
        <ele>553</ele>
        <time>2017-03-04T21:43:55Z</time>
      </trkpt>
      <trkpt lat="43.20238" lon="6.32315">
        <ele>554</ele>
        <time>2017-03-04T21:44:15Z</time>
      </trkpt>
      <trkpt lat="43.20337" lon="6.3232">
        <ele>535</ele>
        <time>2017-03-04T21:44:35Z</time>
      </trkpt>
      <trkpt lat="43.20407" lon="6.32378">
        <ele>529</ele>
        <time>2017-03-04T21:44:55Z</time>
      </trkpt>
      <trkpt lat="43.20419" lon="6.32354">
        <ele>518</ele>
        <time>2017-03-04T21:45:15Z</time>
      </trkpt>
      <trkpt lat="43.20402" lon="6.32251">
        <ele>524</ele>
        <time>2017-03-04T21:45:35Z</time>
      </trkpt>
      <trkpt lat="43.20301" lon="6.3215">
        <ele>526</ele>
        <time>2017-03-04T21:45:55Z</time>
      </trkpt>
      <trkpt lat="43.20333" lon="6.32041">
        <ele>496</ele>
        <time>2017-03-04T21:46:15Z</time>
      </trkpt>
      <trkpt lat="43.20316" lon="6.31991">
        <ele>498</ele>
        <time>2017-03-04T21:46:35Z</time>
      </trkpt>
      <trkpt lat="43.20279" lon="6.31978">
        <ele>501</ele>
        <time>2017-03-04T21:46:55Z</time>
      </trkpt>
      <trkpt lat="43.20219" lon="6.31987">
        <ele>520</ele>
        <time>2017-03-04T21:47:15Z</time>
      </trkpt>
      <trkpt lat="43.20229" lon="6.31918">
        <ele>510</ele>
        <time>2017-03-04T21:47:35Z</time>
      </trkpt>
      <trkpt lat="43.20222" lon="6.31835">
        <ele>501</ele>
        <time>2017-03-04T21:47:55Z</time>
      </trkpt>
      <trkpt lat="43.20236" lon="6.31762">
        <ele>494</ele>
        <time>2017-03-04T21:48:15Z</time>
      </trkpt>
      <trkpt lat="43.20254" lon="6.31624">
        <ele>470</ele>
        <time>2017-03-04T21:48:35Z</time>
      </trkpt>
      <trkpt lat="43.20243" lon="6.31523">
        <ele>493</ele>
        <time>2017-03-04T21:48:55Z</time>
      </trkpt>
      <trkpt lat="43.20261" lon="6.31339">
        <ele>466</ele>
        <time>2017-03-04T21:49:15Z</time>
      </trkpt>
      <trkpt lat="43.20302" lon="6.31324">
        <ele>458</ele>
        <time>2017-03-04T21:49:35Z</time>
      </trkpt>
      <trkpt lat="43.2039" lon="6.31165">
        <ele>457</ele>
        <time>2017-03-04T21:49:55Z</time>
      </trkpt>
      <trkpt lat="43.20399" lon="6.31109">
        <ele>459</ele>
        <time>2017-03-04T21:50:15Z</time>
      </trkpt>
      <trkpt lat="43.20427" lon="6.31075">
        <ele>473</ele>
        <time>2017-03-04T21:50:35Z</time>
      </trkpt>
      <trkpt lat="43.20429" lon="6.31036">
        <ele>475</ele>
        <time>2017-03-04T21:50:55Z</time>
      </trkpt>
      <trkpt lat="43.20474" lon="6.30981">
        <ele>486</ele>
        <time>2017-03-04T21:51:15Z</time>
      </trkpt>
      <trkpt lat="43.20473" lon="6.30893">
        <ele>489</ele>
        <time>2017-03-04T21:51:35Z</time>
      </trkpt>
      <trkpt lat="43.20413" lon="6.30815">
        <ele>466</ele>
        <time>2017-03-04T21:51:55Z</time>
      </trkpt>
      <trkpt lat="43.20401" lon="6.30599">
        <ele>438</ele>
        <time>2017-03-04T21:52:15Z</time>
      </trkpt>
      <trkpt lat="43.20419" lon="6.30506">
        <ele>421</ele>
        <time>2017-03-04T21:52:35Z</time>
      </trkpt>
      <trkpt lat="43.20416" lon="6.30423">
        <ele>411</ele>
        <time>2017-03-04T21:52:55Z</time>
      </trkpt>
      <trkpt lat="43.20312" lon="6.30298">
        <ele>392</ele>
        <time>2017-03-04T21:53:15Z</time>
      </trkpt>
      <trkpt lat="43.20312" lon="6.30298">
        <ele>392</ele>
        <time>2017-03-04T21:53:35Z</time>
      </trkpt>
      <trkpt lat="43.20294" lon="6.30225">
        <ele>403</ele>
        <time>2017-03-04T21:53:55Z</time>
      </trkpt>
      <trkpt lat="43.20209" lon="6.30049">
        <ele>397</ele>
        <time>2017-03-04T21:54:15Z</time>
      </trkpt>
      <trkpt lat="43.20142" lon="6.29851">
        <ele>395</ele>
        <time>2017-03-04T21:54:35Z</time>
      </trkpt>
      <trkpt lat="43.20087" lon="6.29804">
        <ele>395</ele>
        <time>2017-03-04T21:54:55Z</time>
      </trkpt>
      <trkpt lat="43.20082" lon="6.29712">
        <ele>387</ele>
        <time>2017-03-04T21:55:15Z</time>
      </trkpt>
      <trkpt lat="43.20032" lon="6.29656">
        <ele>385</ele>
        <time>2017-03-04T21:55:35Z</time>
      </trkpt>
      <trkpt lat="43.20032" lon="6.29579">
        <ele>391</ele>
        <time>2017-03-04T21:55:55Z</time>
      </trkpt>
      <trkpt lat="43.20017" lon="6.2953">
        <ele>389</ele>
        <time>2017-03-04T21:56:15Z</time>
      </trkpt>
      <trkpt lat="43.20017" lon="6.29405">
        <ele>398</ele>
        <time>2017-03-04T21:56:35Z</time>
      </trkpt>
      <trkpt lat="43.19906" lon="6.29278">
        <ele>375</ele>
        <time>2017-03-04T21:56:55Z</time>
      </trkpt>
      <trkpt lat="43.19896" lon="6.29218">
        <ele>375</ele>
        <time>2017-03-04T21:57:15Z</time>
      </trkpt>
      <trkpt lat="43.19964" lon="6.29064">
        <ele>385</ele>
        <time>2017-03-04T21:57:35Z</time>
      </trkpt>
      <trkpt lat="43.2001" lon="6.28761">
        <ele>393</ele>
        <time>2017-03-04T21:57:55Z</time>
      </trkpt>
      <trkpt lat="43.20032" lon="6.28718">
        <ele>396</ele>
        <time>2017-03-04T21:58:15Z</time>
      </trkpt>
      <trkpt lat="43.2004" lon="6.28626">
        <ele>412</ele>
        <time>2017-03-04T21:58:35Z</time>
      </trkpt>
      <trkpt lat="43.20142" lon="6.28551">
        <ele>417</ele>
        <time>2017-03-04T21:58:55Z</time>
      </trkpt>
      <trkpt lat="43.20148" lon="6.28485">
        <ele>427</ele>
        <time>2017-03-04T21:59:15Z</time>
      </trkpt>
      <trkpt lat="43.20167" lon="6.28448">
        <ele>416</ele>
        <time>2017-03-04T21:59:35Z</time>
      </trkpt>
      <trkpt lat="43.20186" lon="6.28334">
        <ele>429</ele>
        <time>2017-03-04T21:59:55Z</time>
      </trkpt>
      <trkpt lat="43.20156" lon="6.28347">
        <ele>433</ele>
        <time>2017-03-04T22:00:15Z</time>
      </trkpt>
      <trkpt lat="43.20139" lon="6.28332">
        <ele>429</ele>
        <time>2017-03-04T22:00:35Z</time>
      </trkpt>
      <trkpt lat="43.20143" lon="6.28182">
        <ele>422</ele>
        <time>2017-03-04T22:00:55Z</time>
      </trkpt>
      <trkpt lat="43.20179" lon="6.28133">
        <ele>424</ele>
        <time>2017-03-04T22:01:15Z</time>
      </trkpt>
      <trkpt lat="43.20237" lon="6.28126">
        <ele>425</ele>
        <time>2017-03-04T22:01:35Z</time>
      </trkpt>
      <trkpt lat="43.2037" lon="6.28015">
        <ele>405</ele>
        <time>2017-03-04T22:01:55Z</time>
      </trkpt>
      <trkpt lat="43.204" lon="6.28064">
        <ele>412</ele>
        <time>2017-03-04T22:02:15Z</time>
      </trkpt>
      <trkpt lat="43.20442" lon="6.28077">
        <ele>412</ele>
        <time>2017-03-04T22:02:35Z</time>
      </trkpt>
      <trkpt lat="43.2048" lon="6.28034">
        <ele>405</ele>
        <time>2017-03-04T22:02:55Z</time>
      </trkpt>
      <trkpt lat="43.2052" lon="6.28045">
        <ele>409</ele>
        <time>2017-03-04T22:03:15Z</time>
      </trkpt>
      <trkpt lat="43.20561" lon="6.27965">
        <ele>390</ele>
        <time>2017-03-04T22:03:35Z</time>
      </trkpt>
      <trkpt lat="43.20605" lon="6.2792">
        <ele>388</ele>
        <time>2017-03-04T22:03:55Z</time>
      </trkpt>
      <trkpt lat="43.2066" lon="6.27925">
        <ele>383</ele>
        <time>2017-03-04T22:04:15Z</time>
      </trkpt>
      <trkpt lat="43.20691" lon="6.2809">
        <ele>392</ele>
        <time>2017-03-04T22:04:35Z</time>
      </trkpt>
      <trkpt lat="43.20757" lon="6.28098">
        <ele>374</ele>
        <time>2017-03-04T22:04:55Z</time>
      </trkpt>
      <trkpt lat="43.20814" lon="6.2815">
        <ele>376</ele>
        <time>2017-03-04T22:05:15Z</time>
      </trkpt>
      <trkpt lat="43.20861" lon="6.28051">
        <ele>375</ele>
        <time>2017-03-04T22:05:35Z</time>
      </trkpt>
      <trkpt lat="43.20877" lon="6.27869">
        <ele>359</ele>
        <time>2017-03-04T22:05:55Z</time>
      </trkpt>
      <trkpt lat="43.20836" lon="6.27611">
        <ele>343</ele>
        <time>2017-03-04T22:06:15Z</time>
      </trkpt>
      <trkpt lat="43.2086" lon="6.2751">
        <ele>332</ele>
        <time>2017-03-04T22:06:35Z</time>
      </trkpt>
      <trkpt lat="43.20947" lon="6.2744">
        <ele>330</ele>
        <time>2017-03-04T22:06:55Z</time>
      </trkpt>
      <trkpt lat="43.21026" lon="6.2745">
        <ele>340</ele>
        <time>2017-03-04T22:07:15Z</time>
      </trkpt>
      <trkpt lat="43.21055" lon="6.27399">
        <ele>323</ele>
        <time>2017-03-04T22:07:35Z</time>
      </trkpt>
      <trkpt lat="43.21085" lon="6.27367">
        <ele>336</ele>
        <time>2017-03-04T22:07:55Z</time>
      </trkpt>
      <trkpt lat="43.21099" lon="6.27255">
        <ele>318</ele>
        <time>2017-03-04T22:08:15Z</time>
      </trkpt>
      <trkpt lat="43.21119" lon="6.27208">
        <ele>318</ele>
        <time>2017-03-04T22:08:35Z</time>
      </trkpt>
      <trkpt lat="43.21118" lon="6.27171">
        <ele>315</ele>
        <time>2017-03-04T22:08:55Z</time>
      </trkpt>
      <trkpt lat="43.21171" lon="6.26942">
        <ele>303</ele>
        <time>2017-03-04T22:09:15Z</time>
      </trkpt>
      <trkpt lat="43.21168" lon="6.26884">
        <ele>296</ele>
        <time>2017-03-04T22:09:35Z</time>
      </trkpt>
      <trkpt lat="43.2119" lon="6.26828">
        <ele>289</ele>
        <time>2017-03-04T22:09:55Z</time>
      </trkpt>
      <trkpt lat="43.21241" lon="6.268">
        <ele>290</ele>
        <time>2017-03-04T22:10:15Z</time>
      </trkpt>
      <trkpt lat="43.21243" lon="6.26682">
        <ele>286</ele>
        <time>2017-03-04T22:10:35Z</time>
      </trkpt>
      <trkpt lat="43.21301" lon="6.26573">
        <ele>286</ele>
        <time>2017-03-04T22:10:55Z</time>
      </trkpt>
      <trkpt lat="43.2137" lon="6.26543">
        <ele>281</ele>
        <time>2017-03-04T22:11:15Z</time>
      </trkpt>
      <trkpt lat="43.21398" lon="6.26386">
        <ele>280</ele>
        <time>2017-03-04T22:11:35Z</time>
      </trkpt>
      <trkpt lat="43.21432" lon="6.26356">
        <ele>277</ele>
        <time>2017-03-04T22:11:55Z</time>
      </trkpt>
      <trkpt lat="43.21452" lon="6.26268">
        <ele>282</ele>
        <time>2017-03-04T22:12:15Z</time>
      </trkpt>
      <trkpt lat="43.21457" lon="6.26161">
        <ele>289</ele>
        <time>2017-03-04T22:12:35Z</time>
      </trkpt>
      <trkpt lat="43.21473" lon="6.26109">
        <ele>294</ele>
        <time>2017-03-04T22:12:55Z</time>
      </trkpt>
      <trkpt lat="43.2146" lon="6.26062">
        <ele>291</ele>
        <time>2017-03-04T22:13:15Z</time>
      </trkpt>
      <trkpt lat="43.21484" lon="6.25974">
        <ele>292</ele>
        <time>2017-03-04T22:13:35Z</time>
      </trkpt>
      <trkpt lat="43.21521" lon="6.25918">
        <ele>305</ele>
        <time>2017-03-04T22:13:55Z</time>
      </trkpt>
      <trkpt lat="43.21515" lon="6.2577">
        <ele>325</ele>
        <time>2017-03-04T22:14:15Z</time>
      </trkpt>
      <trkpt lat="43.21463" lon="6.25706">
        <ele>317</ele>
        <time>2017-03-04T22:14:35Z</time>
      </trkpt>
      <trkpt lat="43.21482" lon="6.25637">
        <ele>318</ele>
        <time>2017-03-04T22:14:55Z</time>
      </trkpt>
      <trkpt lat="43.2156" lon="6.25495">
        <ele>340</ele>
        <time>2017-03-04T22:15:15Z</time>
      </trkpt>
      <trkpt lat="43.21557" lon="6.25431">
        <ele>340</ele>
        <time>2017-03-04T22:15:35Z</time>
      </trkpt>
      <trkpt lat="43.2152" lon="6.25335">
        <ele>339</ele>
        <time>2017-03-04T22:15:55Z</time>
      </trkpt>
      <trkpt lat="43.21526" lon="6.25302">
        <ele>339</ele>
        <time>2017-03-04T22:16:15Z</time>
      </trkpt>
      <trkpt lat="43.21592" lon="6.25296">
        <ele>357</ele>
        <time>2017-03-04T22:16:35Z</time>
      </trkpt>
      <trkpt lat="43.21635" lon="6.25259">
        <ele>360</ele>
        <time>2017-03-04T22:16:55Z</time>
      </trkpt>
      <trkpt lat="43.21693" lon="6.25049">
        <ele>373</ele>
        <time>2017-03-04T22:17:15Z</time>
      </trkpt>
      <trkpt lat="43.21667" lon="6.24959">
        <ele>380</ele>
        <time>2017-03-04T22:17:35Z</time>
      </trkpt>
      <trkpt lat="43.21595" lon="6.24905">
        <ele>368</ele>
        <time>2017-03-04T22:17:55Z</time>
      </trkpt>
      <trkpt lat="43.21599" lon="6.24712">
        <ele>378</ele>
        <time>2017-03-04T22:18:15Z</time>
      </trkpt>
      <trkpt lat="43.21637" lon="6.24644">
        <ele>378</ele>
        <time>2017-03-04T22:18:35Z</time>
      </trkpt>
      <trkpt lat="43.21645" lon="6.24581">
        <ele>376</ele>
        <time>2017-03-04T22:18:55Z</time>
      </trkpt>
      <trkpt lat="43.21693" lon="6.24513">
        <ele>378</ele>
        <time>2017-03-04T22:19:15Z</time>
      </trkpt>
      <trkpt lat="43.21678" lon="6.24457">
        <ele>381</ele>
        <time>2017-03-04T22:19:35Z</time>
      </trkpt>
      <trkpt lat="43.21696" lon="6.24315">
        <ele>395</ele>
        <time>2017-03-04T22:19:55Z</time>
      </trkpt>
      <trkpt lat="43.21687" lon="6.24253">
        <ele>401</ele>
        <time>2017-03-04T22:20:15Z</time>
      </trkpt>
      <trkpt lat="43.217" lon="6.24107">
        <ele>395</ele>
        <time>2017-03-04T22:20:35Z</time>
      </trkpt>
      <trkpt lat="43.21782" lon="6.24058">
        <ele>372</ele>
        <time>2017-03-04T22:20:55Z</time>
      </trkpt>
      <trkpt lat="43.21857" lon="6.23931">
        <ele>360</ele>
        <time>2017-03-04T22:21:15Z</time>
      </trkpt>
      <trkpt lat="43.21857" lon="6.23843">
        <ele>355</ele>
        <time>2017-03-04T22:21:35Z</time>
      </trkpt>
      <trkpt lat="43.21897" lon="6.23734">
        <ele>334</ele>
        <time>2017-03-04T22:21:55Z</time>
      </trkpt>
      <trkpt lat="43.21897" lon="6.23627">
        <ele>323</ele>
        <time>2017-03-04T22:22:15Z</time>
      </trkpt>
      <trkpt lat="43.21926" lon="6.2359">
        <ele>325</ele>
        <time>2017-03-04T22:22:35Z</time>
      </trkpt>
      <trkpt lat="43.21928" lon="6.2356">
        <ele>321</ele>
        <time>2017-03-04T22:22:55Z</time>
      </trkpt>
      <trkpt lat="43.2195" lon="6.23513">
        <ele>316</ele>
        <time>2017-03-04T22:23:15Z</time>
      </trkpt>
      <trkpt lat="43.21967" lon="6.23468">
        <ele>309</ele>
        <time>2017-03-04T22:23:35Z</time>
      </trkpt>
      <trkpt lat="43.22216" lon="6.23251">
        <ele>268</ele>
        <time>2017-03-04T22:23:55Z</time>
      </trkpt>
      <trkpt lat="43.22273" lon="6.23245">
        <ele>271</ele>
        <time>2017-03-04T22:24:15Z</time>
      </trkpt>
      <trkpt lat="43.22302" lon="6.23204">
        <ele>272</ele>
        <time>2017-03-04T22:24:35Z</time>
      </trkpt>
      <trkpt lat="43.22348" lon="6.23189">
        <ele>267</ele>
        <time>2017-03-04T22:24:55Z</time>
      </trkpt>
      <trkpt lat="43.22414" lon="6.23107">
        <ele>284</ele>
        <time>2017-03-04T22:25:15Z</time>
      </trkpt>
      <trkpt lat="43.22492" lon="6.23124">
        <ele>268</ele>
        <time>2017-03-04T22:25:35Z</time>
      </trkpt>
      <trkpt lat="43.22552" lon="6.23024">
        <ele>258</ele>
        <time>2017-03-04T22:25:55Z</time>
      </trkpt>
      <trkpt lat="43.22644" lon="6.23">
        <ele>245</ele>
        <time>2017-03-04T22:26:15Z</time>
      </trkpt>
      <trkpt lat="43.22667" lon="6.22968">
        <ele>243</ele>
        <time>2017-03-04T22:26:35Z</time>
      </trkpt>
      <trkpt lat="43.22711" lon="6.22953">
        <ele>243</ele>
        <time>2017-03-04T22:26:55Z</time>
      </trkpt>
      <trkpt lat="43.22766" lon="6.22897">
        <ele>238</ele>
        <time>2017-03-04T22:27:15Z</time>
      </trkpt>
      <trkpt lat="43.22811" lon="6.22803">
        <ele>223</ele>
        <time>2017-03-04T22:27:35Z</time>
      </trkpt>
      <trkpt lat="43.22841" lon="6.22781">
        <ele>219</ele>
        <time>2017-03-04T22:27:55Z</time>
      </trkpt>
      <trkpt lat="43.22883" lon="6.22687">
        <ele>212</ele>
        <time>2017-03-04T22:28:15Z</time>
      </trkpt>
      <trkpt lat="43.22868" lon="6.22575">
        <ele>212</ele>
        <time>2017-03-04T22:28:35Z</time>
      </trkpt>
      <trkpt lat="43.22897" lon="6.22502">
        <ele>212</ele>
        <time>2017-03-04T22:28:55Z</time>
      </trkpt>
      <trkpt lat="43.22899" lon="6.22416">
        <ele>207</ele>
        <time>2017-03-04T22:29:15Z</time>
      </trkpt>
      <trkpt lat="43.22922" lon="6.22243">
        <ele>200</ele>
        <time>2017-03-04T22:29:35Z</time>
      </trkpt>
      <trkpt lat="43.22977" lon="6.222">
        <ele>196</ele>
        <time>2017-03-04T22:29:55Z</time>
      </trkpt>
      <trkpt lat="43.23011" lon="6.22195">
        <ele>191</ele>
        <time>2017-03-04T22:30:15Z</time>
      </trkpt>
      <trkpt lat="43.23071" lon="6.22116">
        <ele>197</ele>
        <time>2017-03-04T22:30:35Z</time>
      </trkpt>
      <trkpt lat="43.23126" lon="6.22094">
        <ele>188</ele>
        <time>2017-03-04T22:30:55Z</time>
      </trkpt>
      <trkpt lat="43.23171" lon="6.22056">
        <ele>180</ele>
        <time>2017-03-04T22:31:15Z</time>
      </trkpt>
      <trkpt lat="43.23268" lon="6.2206">
        <ele>165</ele>
        <time>2017-03-04T22:31:35Z</time>
      </trkpt>
      <trkpt lat="43.23283" lon="6.22077">
        <ele>164</ele>
        <time>2017-03-04T22:31:55Z</time>
      </trkpt>
      <trkpt lat="43.2334" lon="6.2206">
        <ele>150</ele>
        <time>2017-03-04T22:32:15Z</time>
      </trkpt>
      <trkpt lat="43.2341" lon="6.22006">
        <ele>139</ele>
        <time>2017-03-04T22:32:35Z</time>
      </trkpt>
      <trkpt lat="43.23441" lon="6.21888">
        <ele>119</ele>
        <time>2017-03-04T22:32:55Z</time>
      </trkpt>
      <trkpt lat="43.23527" lon="6.21865">
        <ele>106</ele>
        <time>2017-03-04T22:33:15Z</time>
      </trkpt>
      <trkpt lat="43.23507" lon="6.21794">
        <ele>106</ele>
        <time>2017-03-04T22:33:35Z</time>
      </trkpt>
      <trkpt lat="43.2363" lon="6.21798">
        <ele>95</ele>
        <time>2017-03-04T22:33:55Z</time>
      </trkpt>
      <trkpt lat="43.23656" lon="6.21891">
        <ele>95</ele>
        <time>2017-03-04T22:34:15Z</time>
      </trkpt>
      <trkpt lat="43.23646" lon="6.21983">
        <ele>97</ele>
        <time>2017-03-04T22:34:35Z</time>
      </trkpt>
      <trkpt lat="43.23574" lon="6.22127">
        <ele>100</ele>
        <time>2017-03-04T22:34:55Z</time>
      </trkpt>
      <trkpt lat="43.23523" lon="6.22397">
        <ele>103</ele>
        <time>2017-03-04T22:35:15Z</time>
      </trkpt>
      <trkpt lat="43.23624" lon="6.22446">
        <ele>108</ele>
        <time>2017-03-04T22:35:35Z</time>
      </trkpt>
      <trkpt lat="43.23704" lon="6.22418">
        <ele>113</ele>
        <time>2017-03-04T22:35:55Z</time>
      </trkpt>
      <trkpt lat="43.23704" lon="6.22418">
        <ele>113</ele>
        <time>2017-03-04T22:36:15Z</time>
      </trkpt>
      <trkpt lat="43.23823" lon="6.22485">
        <ele>121</ele>
        <time>2017-03-04T22:36:35Z</time>
      </trkpt>
      <trkpt lat="43.23874" lon="6.22554">
        <ele>128</ele>
        <time>2017-03-04T22:36:55Z</time>
      </trkpt>
      <trkpt lat="43.2399" lon="6.22489">
        <ele>142</ele>
        <time>2017-03-04T22:37:15Z</time>
      </trkpt>
      <trkpt lat="43.24009" lon="6.22584">
        <ele>149</ele>
        <time>2017-03-04T22:37:35Z</time>
      </trkpt>
      <trkpt lat="43.24043" lon="6.22648">
        <ele>151</ele>
        <time>2017-03-04T22:37:55Z</time>
      </trkpt>
      <trkpt lat="43.24115" lon="6.22637">
        <ele>162</ele>
        <time>2017-03-04T22:38:15Z</time>
      </trkpt>
      <trkpt lat="43.24121" lon="6.22607">
        <ele>165</ele>
        <time>2017-03-04T22:38:35Z</time>
      </trkpt>
      <trkpt lat="43.24089" lon="6.22584">
        <ele>166</ele>
        <time>2017-03-04T22:38:55Z</time>
      </trkpt>
      <trkpt lat="43.2414" lon="6.22427">
        <ele>186</ele>
        <time>2017-03-04T22:39:15Z</time>
      </trkpt>
      <trkpt lat="43.24104" lon="6.2238">
        <ele>184</ele>
        <time>2017-03-04T22:39:35Z</time>
      </trkpt>
      <trkpt lat="43.24109" lon="6.2233">
        <ele>188</ele>
        <time>2017-03-04T22:39:55Z</time>
      </trkpt>
      <trkpt lat="43.24129" lon="6.22225">
        <ele>192</ele>
        <time>2017-03-04T22:40:15Z</time>
      </trkpt>
      <trkpt lat="43.24139" lon="6.22328">
        <ele>196</ele>
        <time>2017-03-04T22:40:35Z</time>
      </trkpt>
      <trkpt lat="43.24198" lon="6.22429">
        <ele>203</ele>
        <time>2017-03-04T22:40:55Z</time>
      </trkpt>
      <trkpt lat="43.24214" lon="6.22474">
        <ele>203</ele>
        <time>2017-03-04T22:41:15Z</time>
      </trkpt>
      <trkpt lat="43.24251" lon="6.22487">
        <ele>209</ele>
        <time>2017-03-04T22:41:35Z</time>
      </trkpt>
      <trkpt lat="43.24309" lon="6.22474">
        <ele>216</ele>
        <time>2017-03-04T22:41:55Z</time>
      </trkpt>
      <trkpt lat="43.24403" lon="6.22489">
        <ele>222</ele>
        <time>2017-03-04T22:42:15Z</time>
      </trkpt>
      <trkpt lat="43.24551" lon="6.22472">
        <ele>232</ele>
        <time>2017-03-04T22:42:35Z</time>
      </trkpt>
      <trkpt lat="43.24601" lon="6.22423">
        <ele>238</ele>
        <time>2017-03-04T22:42:55Z</time>
      </trkpt>
      <trkpt lat="43.24779" lon="6.22341">
        <ele>262</ele>
        <time>2017-03-04T22:43:15Z</time>
      </trkpt>
      <trkpt lat="43.24779" lon="6.22341">
        <ele>262</ele>
        <time>2017-03-04T22:43:35Z</time>
      </trkpt>
      <trkpt lat="43.24859" lon="6.22464">
        <ele>277</ele>
        <time>2017-03-04T22:43:55Z</time>
      </trkpt>
      <trkpt lat="43.24872" lon="6.22573">
        <ele>272</ele>
        <time>2017-03-04T22:44:15Z</time>
      </trkpt>
      <trkpt lat="43.25009" lon="6.22661">
        <ele>301</ele>
        <time>2017-03-04T22:44:35Z</time>
      </trkpt>
      <trkpt lat="43.25017" lon="6.2274">
        <ele>297</ele>
        <time>2017-03-04T22:44:55Z</time>
      </trkpt>
      <trkpt lat="43.25065" lon="6.22888">
        <ele>303</ele>
        <time>2017-03-04T22:45:15Z</time>
      </trkpt>
      <trkpt lat="43.25067" lon="6.22841">
        <ele>305</ele>
        <time>2017-03-04T22:45:35Z</time>
      </trkpt>
      <trkpt lat="43.25034" lon="6.22749">
        <ele>302</ele>
        <time>2017-03-04T22:45:55Z</time>
      </trkpt>
      <trkpt lat="43.25022" lon="6.22635">
        <ele>310</ele>
        <time>2017-03-04T22:46:15Z</time>
      </trkpt>
      <trkpt lat="43.2492" lon="6.22526">
        <ele>298</ele>
        <time>2017-03-04T22:46:35Z</time>
      </trkpt>
      <trkpt lat="43.24854" lon="6.22285">
        <ele>296</ele>
        <time>2017-03-04T22:46:55Z</time>
      </trkpt>
      <trkpt lat="43.24817" lon="6.22258">
        <ele>287</ele>
        <time>2017-03-04T22:47:15Z</time>
      </trkpt>
      <trkpt lat="43.24745" lon="6.22255">
        <ele>281</ele>
        <time>2017-03-04T22:47:35Z</time>
      </trkpt>
      <trkpt lat="43.24695" lon="6.22245">
        <ele>280</ele>
        <time>2017-03-04T22:47:55Z</time>
      </trkpt>
      <trkpt lat="43.24634" lon="6.22258">
        <ele>273</ele>
        <time>2017-03-04T22:48:15Z</time>
      </trkpt>
      <trkpt lat="43.24706" lon="6.2209">
        <ele>273</ele>
        <time>2017-03-04T22:48:35Z</time>
      </trkpt>
      <trkpt lat="43.24726" lon="6.22064">
        <ele>269</ele>
        <time>2017-03-04T22:48:55Z</time>
      </trkpt>
      <trkpt lat="43.24742" lon="6.21987">
        <ele>270</ele>
        <time>2017-03-04T22:49:15Z</time>
      </trkpt>
      <trkpt lat="43.24706" lon="6.21936">
        <ele>262</ele>
        <time>2017-03-04T22:49:35Z</time>
      </trkpt>
      <trkpt lat="43.24684" lon="6.21852">
        <ele>270</ele>
        <time>2017-03-04T22:49:55Z</time>
      </trkpt>
      <trkpt lat="43.24636" lon="6.21811">
        <ele>254</ele>
        <time>2017-03-04T22:50:15Z</time>
      </trkpt>
      <trkpt lat="43.24609" lon="6.21618">
        <ele>253</ele>
        <time>2017-03-04T22:50:35Z</time>
      </trkpt>
      <trkpt lat="43.24751" lon="6.21489">
        <ele>265</ele>
        <time>2017-03-04T22:50:55Z</time>
      </trkpt>
      <trkpt lat="43.24753" lon="6.21449">
        <ele>268</ele>
        <time>2017-03-04T22:51:15Z</time>
      </trkpt>
      <trkpt lat="43.24614" lon="6.21189">
        <ele>251</ele>
        <time>2017-03-04T22:51:35Z</time>
      </trkpt>
      <trkpt lat="43.24564" lon="6.21161">
        <ele>246</ele>
        <time>2017-03-04T22:51:55Z</time>
      </trkpt>
      <trkpt lat="43.24515" lon="6.21148">
        <ele>241</ele>
        <time>2017-03-04T22:52:15Z</time>
      </trkpt>
      <trkpt lat="43.24553" lon="6.21">
        <ele>236</ele>
        <time>2017-03-04T22:52:35Z</time>
      </trkpt>
      <trkpt lat="43.2459" lon="6.20979">
        <ele>244</ele>
        <time>2017-03-04T22:52:55Z</time>
      </trkpt>
      <trkpt lat="43.2457" lon="6.20938">
        <ele>226</ele>
        <time>2017-03-04T22:53:15Z</time>
      </trkpt>
      <trkpt lat="43.2457" lon="6.20938">
        <ele>226</ele>
        <time>2017-03-04T22:53:35Z</time>
      </trkpt>
      <trkpt lat="43.24598" lon="6.20691">
        <ele>219</ele>
        <time>2017-03-04T22:53:55Z</time>
      </trkpt>
      <trkpt lat="43.24532" lon="6.20324">
        <ele>188</ele>
        <time>2017-03-04T22:54:15Z</time>
      </trkpt>
      <trkpt lat="43.24493" lon="6.20288">
        <ele>182</ele>
        <time>2017-03-04T22:54:35Z</time>
      </trkpt>
      <trkpt lat="43.24457" lon="6.20159">
        <ele>185</ele>
        <time>2017-03-04T22:54:55Z</time>
      </trkpt>
      <trkpt lat="43.24448" lon="6.2005">
        <ele>188</ele>
        <time>2017-03-04T22:55:15Z</time>
      </trkpt>
      <trkpt lat="43.24411" lon="6.20015">
        <ele>183</ele>
        <time>2017-03-04T22:55:35Z</time>
      </trkpt>
      <trkpt lat="43.24337" lon="6.19906">
        <ele>194</ele>
        <time>2017-03-04T22:55:55Z</time>
      </trkpt>
      <trkpt lat="43.24253" lon="6.19844">
        <ele>189</ele>
        <time>2017-03-04T22:56:15Z</time>
      </trkpt>
      <trkpt lat="43.24145" lon="6.19691">
        <ele>190</ele>
        <time>2017-03-04T22:56:35Z</time>
      </trkpt>
      <trkpt lat="43.24153" lon="6.1955">
        <ele>184</ele>
        <time>2017-03-04T22:56:55Z</time>
      </trkpt>
      <trkpt lat="43.2422" lon="6.19247">
        <ele>167</ele>
        <time>2017-03-04T22:57:15Z</time>
      </trkpt>
      <trkpt lat="43.24198" lon="6.19088">
        <ele>161</ele>
        <time>2017-03-04T22:57:35Z</time>
      </trkpt>
      <trkpt lat="43.24154" lon="6.19017">
        <ele>160</ele>
        <time>2017-03-04T22:57:55Z</time>
      </trkpt>
      <trkpt lat="43.2407" lon="6.18923">
        <ele>153</ele>
        <time>2017-03-04T22:58:15Z</time>
      </trkpt>
      <trkpt lat="43.24018" lon="6.18781">
        <ele>154</ele>
        <time>2017-03-04T22:58:35Z</time>
      </trkpt>
      <trkpt lat="43.23956" lon="6.18687">
        <ele>141</ele>
        <time>2017-03-04T22:58:55Z</time>
      </trkpt>
      <trkpt lat="43.2392" lon="6.1864">
        <ele>140</ele>
        <time>2017-03-04T22:59:15Z</time>
      </trkpt>
      <trkpt lat="43.23901" lon="6.18571">
        <ele>129</ele>
        <time>2017-03-04T22:59:35Z</time>
      </trkpt>
      <trkpt lat="43.23902" lon="6.185">
        <ele>128</ele>
        <time>2017-03-04T22:59:55Z</time>
      </trkpt>
      <trkpt lat="43.23868" lon="6.18395">
        <ele>121</ele>
        <time>2017-03-04T23:00:15Z</time>
      </trkpt>
      <trkpt lat="43.23871" lon="6.18172">
        <ele>110</ele>
        <time>2017-03-04T23:00:35Z</time>
      </trkpt>
      <trkpt lat="43.23918" lon="6.18065">
        <ele>105</ele>
        <time>2017-03-04T23:00:55Z</time>
      </trkpt>
      <trkpt lat="43.23895" lon="6.17972">
        <ele>98</ele>
        <time>2017-03-04T23:01:15Z</time>
      </trkpt>
      <trkpt lat="43.23852" lon="6.17904">
        <ele>90</ele>
        <time>2017-03-04T23:01:35Z</time>
      </trkpt>
      <trkpt lat="43.23913" lon="6.17859">
        <ele>87</ele>
        <time>2017-03-04T23:01:55Z</time>
      </trkpt>
      <trkpt lat="43.23929" lon="6.17835">
        <ele>84</ele>
        <time>2017-03-04T23:02:15Z</time>
      </trkpt>
      <trkpt lat="43.24006" lon="6.17771">
        <ele>85</ele>
        <time>2017-03-04T23:02:35Z</time>
      </trkpt>
      <trkpt lat="43.24048" lon="6.17769">
        <ele>86</ele>
        <time>2017-03-04T23:02:55Z</time>
      </trkpt>
      <trkpt lat="43.24015" lon="6.17721">
        <ele>87</ele>
        <time>2017-03-04T23:03:15Z</time>
      </trkpt>
      <trkpt lat="43.24082" lon="6.17719">
        <ele>88</ele>
        <time>2017-03-04T23:03:35Z</time>
      </trkpt>
      <trkpt lat="43.24124" lon="6.17696">
        <ele>91</ele>
        <time>2017-03-04T23:03:55Z</time>
      </trkpt>
      <trkpt lat="43.24154" lon="6.17704">
        <ele>91</ele>
        <time>2017-03-04T23:04:15Z</time>
      </trkpt>
      <trkpt lat="43.2429" lon="6.17683">
        <ele>102</ele>
        <time>2017-03-04T23:04:35Z</time>
      </trkpt>
      <trkpt lat="43.24345" lon="6.17627">
        <ele>110</ele>
        <time>2017-03-04T23:04:55Z</time>
      </trkpt>
      <trkpt lat="43.24406" lon="6.17636">
        <ele>114</ele>
        <time>2017-03-04T23:05:15Z</time>
      </trkpt>
      <trkpt lat="43.24492" lon="6.1756">
        <ele>110</ele>
        <time>2017-03-04T23:05:35Z</time>
      </trkpt>
      <trkpt lat="43.24612" lon="6.17593">
        <ele>105</ele>
        <time>2017-03-04T23:05:55Z</time>
      </trkpt>
      <trkpt lat="43.24668" lon="6.17629">
        <ele>98</ele>
        <time>2017-03-04T23:06:15Z</time>
      </trkpt>
      <trkpt lat="43.2469" lon="6.1761">
        <ele>97</ele>
        <time>2017-03-04T23:06:35Z</time>
      </trkpt>
      <trkpt lat="43.24734" lon="6.17262">
        <ele>80</ele>
        <time>2017-03-04T23:06:55Z</time>
      </trkpt>
      <trkpt lat="43.24739" lon="6.17095">
        <ele>75</ele>
        <time>2017-03-04T23:07:15Z</time>
      </trkpt>
      <trkpt lat="43.24706" lon="6.17052">
        <ele>74</ele>
        <time>2017-03-04T23:07:35Z</time>
      </trkpt>
      <trkpt lat="43.24686" lon="6.17018">
        <ele>74</ele>
        <time>2017-03-04T23:07:55Z</time>
      </trkpt>
      <trkpt lat="43.24634" lon="6.1697">
        <ele>72</ele>
        <time>2017-03-04T23:08:15Z</time>
      </trkpt>
      <trkpt lat="43.24787" lon="6.16751">
        <ele>80</ele>
        <time>2017-03-04T23:08:35Z</time>
      </trkpt>
      <trkpt lat="43.24856" lon="6.16874">
        <ele>86</ele>
        <time>2017-03-04T23:08:55Z</time>
      </trkpt>
      <trkpt lat="43.24868" lon="6.16912">
        <ele>86</ele>
        <time>2017-03-04T23:09:15Z</time>
      </trkpt>
      <trkpt lat="43.2494" lon="6.16973">
        <ele>89</ele>
        <time>2017-03-04T23:09:35Z</time>
      </trkpt>
      <trkpt lat="43.25084" lon="6.17018">
        <ele>89</ele>
        <time>2017-03-04T23:09:55Z</time>
      </trkpt>
      <trkpt lat="43.25169" lon="6.17026">
        <ele>87</ele>
        <time>2017-03-04T23:10:15Z</time>
      </trkpt>
      <trkpt lat="43.25283" lon="6.16977">
        <ele>93</ele>
        <time>2017-03-04T23:10:35Z</time>
      </trkpt>
      <trkpt lat="43.25283" lon="6.16977">
        <ele>93</ele>
        <time>2017-03-04T23:10:55Z</time>
      </trkpt>
      <trkpt lat="43.25359" lon="6.16988">
        <ele>92</ele>
        <time>2017-03-04T23:11:15Z</time>
      </trkpt>
      <trkpt lat="43.25426" lon="6.17045">
        <ele>88</ele>
        <time>2017-03-04T23:11:35Z</time>
      </trkpt>
      <trkpt lat="43.25472" lon="6.17052">
        <ele>89</ele>
        <time>2017-03-04T23:11:55Z</time>
      </trkpt>
      <trkpt lat="43.25528" lon="6.17103">
        <ele>90</ele>
        <time>2017-03-04T23:12:15Z</time>
      </trkpt>
      <trkpt lat="43.25625" lon="6.17166">
        <ele>99</ele>
        <time>2017-03-04T23:12:35Z</time>
      </trkpt>
      <trkpt lat="43.25725" lon="6.17251">
        <ele>93</ele>
        <time>2017-03-04T23:12:55Z</time>
      </trkpt>
      <trkpt lat="43.25912" lon="6.17376">
        <ele>94</ele>
        <time>2017-03-04T23:13:15Z</time>
      </trkpt>
      <trkpt lat="43.25964" lon="6.17447">
        <ele>94</ele>
        <time>2017-03-04T23:13:35Z</time>
      </trkpt>
      <trkpt lat="43.26053" lon="6.17625">
        <ele>94</ele>
        <time>2017-03-04T23:13:55Z</time>
      </trkpt>
      <trkpt lat="43.26077" lon="6.17623">
        <ele>95</ele>
        <time>2017-03-04T23:14:15Z</time>
      </trkpt>
      <trkpt lat="43.26122" lon="6.17565">
        <ele>104</ele>
        <time>2017-03-04T23:14:35Z</time>
      </trkpt>
      <trkpt lat="43.26114" lon="6.17522">
        <ele>103</ele>
        <time>2017-03-04T23:14:55Z</time>
      </trkpt>
      <trkpt lat="43.26177" lon="6.17485">
        <ele>113</ele>
        <time>2017-03-04T23:15:15Z</time>
      </trkpt>
      <trkpt lat="43.26209" lon="6.17479">
        <ele>117</ele>
        <time>2017-03-04T23:15:35Z</time>
      </trkpt>
      <trkpt lat="43.2625" lon="6.17447">
        <ele>120</ele>
        <time>2017-03-04T23:15:55Z</time>
      </trkpt>
      <trkpt lat="43.26289" lon="6.17447">
        <ele>131</ele>
        <time>2017-03-04T23:16:15Z</time>
      </trkpt>
      <trkpt lat="43.26334" lon="6.17421">
        <ele>137</ele>
        <time>2017-03-04T23:16:35Z</time>
      </trkpt>
      <trkpt lat="43.26408" lon="6.17393">
        <ele>137</ele>
        <time>2017-03-04T23:16:55Z</time>
      </trkpt>
      <trkpt lat="43.26506" lon="6.17194">
        <ele>140</ele>
        <time>2017-03-04T23:17:15Z</time>
      </trkpt>
      <trkpt lat="43.26536" lon="6.17187">
        <ele>141</ele>
        <time>2017-03-04T23:17:35Z</time>
      </trkpt>
      <trkpt lat="43.26639" lon="6.17054">
        <ele>158</ele>
        <time>2017-03-04T23:17:55Z</time>
      </trkpt>
      <trkpt lat="43.26716" lon="6.17003">
        <ele>165</ele>
        <time>2017-03-04T23:18:15Z</time>
      </trkpt>
      <trkpt lat="43.26741" lon="6.16925">
        <ele>162</ele>
        <time>2017-03-04T23:18:35Z</time>
      </trkpt>
      <trkpt lat="43.26756" lon="6.1676">
        <ele>140</ele>
        <time>2017-03-04T23:18:55Z</time>
      </trkpt>
      <trkpt lat="43.26778" lon="6.16689">
        <ele>128</ele>
        <time>2017-03-04T23:19:15Z</time>
      </trkpt>
      <trkpt lat="43.26828" lon="6.16704">
        <ele>127</ele>
        <time>2017-03-04T23:19:35Z</time>
      </trkpt>
      <trkpt lat="43.26816" lon="6.16674">
        <ele>124</ele>
        <time>2017-03-04T23:19:55Z</time>
      </trkpt>
      <trkpt lat="43.26834" lon="6.16539">
        <ele>109</ele>
        <time>2017-03-04T23:20:15Z</time>
      </trkpt>
      <trkpt lat="43.268" lon="6.16533">
        <ele>111</ele>
        <time>2017-03-04T23:20:35Z</time>
      </trkpt>
      <trkpt lat="43.26775" lon="6.16267">
        <ele>106</ele>
        <time>2017-03-04T23:20:55Z</time>
      </trkpt>
      <trkpt lat="43.26823" lon="6.1617">
        <ele>106</ele>
        <time>2017-03-04T23:21:15Z</time>
      </trkpt>
      <trkpt lat="43.26853" lon="6.16061">
        <ele>110</ele>
        <time>2017-03-04T23:21:35Z</time>
      </trkpt>
      <trkpt lat="43.26827" lon="6.15996">
        <ele>110</ele>
        <time>2017-03-04T23:21:55Z</time>
      </trkpt>
      <trkpt lat="43.26852" lon="6.15958">
        <ele>111</ele>
        <time>2017-03-04T23:22:15Z</time>
      </trkpt>
      <trkpt lat="43.26773" lon="6.15664">
        <ele>110</ele>
        <time>2017-03-04T23:22:35Z</time>
      </trkpt>
      <trkpt lat="43.26686" lon="6.15625">
        <ele>108</ele>
        <time>2017-03-04T23:22:55Z</time>
      </trkpt>
      <trkpt lat="43.26658" lon="6.15554">
        <ele>107</ele>
        <time>2017-03-04T23:23:15Z</time>
      </trkpt>
      <trkpt lat="43.26658" lon="6.1552">
        <ele>107</ele>
        <time>2017-03-04T23:23:35Z</time>
      </trkpt>
      <trkpt lat="43.26602" lon="6.15359">
        <ele>107</ele>
        <time>2017-03-04T23:23:55Z</time>
      </trkpt>
      <trkpt lat="43.26581" lon="6.1532">
        <ele>107</ele>
        <time>2017-03-04T23:24:15Z</time>
      </trkpt>
      <trkpt lat="43.26552" lon="6.15228">
        <ele>109</ele>
        <time>2017-03-04T23:24:35Z</time>
      </trkpt>
      <trkpt lat="43.26869" lon="6.15093">
        <ele>116</ele>
        <time>2017-03-04T23:24:55Z</time>
      </trkpt>
      <trkpt lat="43.26878" lon="6.15129">
        <ele>116</ele>
        <time>2017-03-04T23:25:15Z</time>
      </trkpt>
      <trkpt lat="43.26748" lon="6.15192">
        <ele>114</ele>
        <time>2017-03-04T23:25:35Z</time>
      </trkpt>
      <trkpt lat="43.26845" lon="6.15694">
        <ele>113</ele>
        <time>2017-03-04T23:25:55Z</time>
      </trkpt>
      <trkpt lat="43.26931" lon="6.15747">
        <ele>114</ele>
        <time>2017-03-04T23:26:15Z</time>
      </trkpt>
      <trkpt lat="43.27002" lon="6.15818">
        <ele>114</ele>
        <time>2017-03-04T23:26:35Z</time>
      </trkpt>
      <trkpt lat="43.27105" lon="6.15771">
        <ele>117</ele>
        <time>2017-03-04T23:26:55Z</time>
      </trkpt>
      <trkpt lat="43.27144" lon="6.15767">
        <ele>117</ele>
        <time>2017-03-04T23:27:15Z</time>
      </trkpt>
      <trkpt lat="43.2723" lon="6.15717">
        <ele>119</ele>
        <time>2017-03-04T23:27:35Z</time>
      </trkpt>
      <trkpt lat="43.27253" lon="6.15679">
        <ele>120</ele>
        <time>2017-03-04T23:27:55Z</time>
      </trkpt>
      <trkpt lat="43.27309" lon="6.15616">
        <ele>121</ele>
        <time>2017-03-04T23:28:15Z</time>
      </trkpt>
      <trkpt lat="43.27367" lon="6.15593">
        <ele>122</ele>
        <time>2017-03-04T23:28:35Z</time>
      </trkpt>
      <trkpt lat="43.274" lon="6.15595">
        <ele>123</ele>
        <time>2017-03-04T23:28:55Z</time>
      </trkpt>
      <trkpt lat="43.27448" lon="6.15586">
        <ele>125</ele>
        <time>2017-03-04T23:29:15Z</time>
      </trkpt>
      <trkpt lat="43.27539" lon="6.15528">
        <ele>128</ele>
        <time>2017-03-04T23:29:35Z</time>
      </trkpt>
      <trkpt lat="43.27575" lon="6.15445">
        <ele>129</ele>
        <time>2017-03-04T23:29:55Z</time>
      </trkpt>
      <trkpt lat="43.27708" lon="6.15387">
        <ele>134</ele>
        <time>2017-03-04T23:30:15Z</time>
      </trkpt>
      <trkpt lat="43.27747" lon="6.15312">
        <ele>135</ele>
        <time>2017-03-04T23:30:35Z</time>
      </trkpt>
      <trkpt lat="43.27873" lon="6.15204">
        <ele>140</ele>
        <time>2017-03-04T23:30:55Z</time>
      </trkpt>
      <trkpt lat="43.27909" lon="6.15134">
        <ele>141</ele>
        <time>2017-03-04T23:31:15Z</time>
      </trkpt>
      <trkpt lat="43.28095" lon="6.14964">
        <ele>149</ele>
        <time>2017-03-04T23:31:35Z</time>
      </trkpt>
      <trkpt lat="43.28095" lon="6.14964">
        <ele>149</ele>
        <time>2017-03-04T23:31:55Z</time>
      </trkpt>
      <trkpt lat="43.28092" lon="6.14861">
        <ele>150</ele>
        <time>2017-03-04T23:32:15Z</time>
      </trkpt>
      <trkpt lat="43.28072" lon="6.14747">
        <ele>150</ele>
        <time>2017-03-04T23:32:35Z</time>
      </trkpt>
      <trkpt lat="43.28178" lon="6.14664">
        <ele>154</ele>
        <time>2017-03-04T23:32:55Z</time>
      </trkpt>
      <trkpt lat="43.28201" lon="6.14599">
        <ele>154</ele>
        <time>2017-03-04T23:33:15Z</time>
      </trkpt>
      <trkpt lat="43.28322" lon="6.14516">
        <ele>158</ele>
        <time>2017-03-04T23:33:35Z</time>
      </trkpt>
      <trkpt lat="43.28383" lon="6.14376">
        <ele>162</ele>
        <time>2017-03-04T23:33:55Z</time>
      </trkpt>
      <trkpt lat="43.285" lon="6.14245">
        <ele>168</ele>
        <time>2017-03-04T23:34:15Z</time>
      </trkpt>
      <trkpt lat="43.2852" lon="6.14177">
        <ele>168</ele>
        <time>2017-03-04T23:34:35Z</time>
      </trkpt>
      <trkpt lat="43.2855" lon="6.14147">
        <ele>168</ele>
        <time>2017-03-04T23:34:55Z</time>
      </trkpt>
      <trkpt lat="43.28526" lon="6.14078">
        <ele>169</ele>
        <time>2017-03-04T23:35:15Z</time>
      </trkpt>
      <trkpt lat="43.28678" lon="6.13971">
        <ele>176</ele>
        <time>2017-03-04T23:35:35Z</time>
      </trkpt>
      <trkpt lat="43.28686" lon="6.13848">
        <ele>177</ele>
        <time>2017-03-04T23:35:55Z</time>
      </trkpt>
      <trkpt lat="43.28775" lon="6.13825">
        <ele>182</ele>
        <time>2017-03-04T23:36:15Z</time>
      </trkpt>
      <trkpt lat="43.28854" lon="6.13739">
        <ele>189</ele>
        <time>2017-03-04T23:36:35Z</time>
      </trkpt>
      <trkpt lat="43.28914" lon="6.13593">
        <ele>194</ele>
        <time>2017-03-04T23:36:55Z</time>
      </trkpt>
      <trkpt lat="43.28906" lon="6.13464">
        <ele>196</ele>
        <time>2017-03-04T23:37:15Z</time>
      </trkpt>
      <trkpt lat="43.28884" lon="6.13293">
        <ele>196</ele>
        <time>2017-03-04T23:37:35Z</time>
      </trkpt>
      <trkpt lat="43.28859" lon="6.13258">
        <ele>195</ele>
        <time>2017-03-04T23:37:55Z</time>
      </trkpt>
      <trkpt lat="43.28854" lon="6.13179">
        <ele>197</ele>
        <time>2017-03-04T23:38:15Z</time>
      </trkpt>
      <trkpt lat="43.28804" lon="6.13093">
        <ele>200</ele>
        <time>2017-03-04T23:38:35Z</time>
      </trkpt>
      <trkpt lat="43.28809" lon="6.12878">
        <ele>206</ele>
        <time>2017-03-04T23:38:55Z</time>
      </trkpt>
      <trkpt lat="43.28876" lon="6.12647">
        <ele>212</ele>
        <time>2017-03-04T23:39:15Z</time>
      </trkpt>
      <trkpt lat="43.28901" lon="6.12604">
        <ele>213</ele>
        <time>2017-03-04T23:39:35Z</time>
      </trkpt>
      <trkpt lat="43.28915" lon="6.12531">
        <ele>215</ele>
        <time>2017-03-04T23:39:55Z</time>
      </trkpt>
      <trkpt lat="43.28964" lon="6.12372">
        <ele>221</ele>
        <time>2017-03-04T23:40:15Z</time>
      </trkpt>
      <trkpt lat="43.28978" lon="6.12351">
        <ele>221</ele>
        <time>2017-03-04T23:40:35Z</time>
      </trkpt>
      <trkpt lat="43.28996" lon="6.12252">
        <ele>221</ele>
        <time>2017-03-04T23:40:55Z</time>
      </trkpt>
      <trkpt lat="43.28987" lon="6.12168">
        <ele>221</ele>
        <time>2017-03-04T23:41:15Z</time>
      </trkpt>
      <trkpt lat="43.28956" lon="6.12044">
        <ele>229</ele>
        <time>2017-03-04T23:41:35Z</time>
      </trkpt>
      <trkpt lat="43.2892" lon="6.11962">
        <ele>233</ele>
        <time>2017-03-04T23:41:55Z</time>
      </trkpt>
      <trkpt lat="43.28934" lon="6.11896">
        <ele>235</ele>
        <time>2017-03-04T23:42:15Z</time>
      </trkpt>
      <trkpt lat="43.28921" lon="6.11844">
        <ele>235</ele>
        <time>2017-03-04T23:42:35Z</time>
      </trkpt>
      <trkpt lat="43.28921" lon="6.11771">
        <ele>232</ele>
        <time>2017-03-04T23:42:55Z</time>
      </trkpt>
      <trkpt lat="43.28946" lon="6.11754">
        <ele>233</ele>
        <time>2017-03-04T23:43:15Z</time>
      </trkpt>
      <trkpt lat="43.28929" lon="6.11687">
        <ele>233</ele>
        <time>2017-03-04T23:43:35Z</time>
      </trkpt>
      <trkpt lat="43.28929" lon="6.11565">
        <ele>242</ele>
        <time>2017-03-04T23:43:55Z</time>
      </trkpt>
      <trkpt lat="43.28918" lon="6.11484">
        <ele>246</ele>
        <time>2017-03-04T23:44:15Z</time>
      </trkpt>
      <trkpt lat="43.28925" lon="6.11409">
        <ele>250</ele>
        <time>2017-03-04T23:44:35Z</time>
      </trkpt>
      <trkpt lat="43.28885" lon="6.11241">
        <ele>256</ele>
        <time>2017-03-04T23:44:55Z</time>
      </trkpt>
      <trkpt lat="43.28857" lon="6.11185">
        <ele>255</ele>
        <time>2017-03-04T23:45:15Z</time>
      </trkpt>
      <trkpt lat="43.28857" lon="6.1114">
        <ele>262</ele>
        <time>2017-03-04T23:45:35Z</time>
      </trkpt>
      <trkpt lat="43.28818" lon="6.11072">
        <ele>268</ele>
        <time>2017-03-04T23:45:55Z</time>
      </trkpt>
      <trkpt lat="43.28768" lon="6.11007">
        <ele>273</ele>
        <time>2017-03-04T23:46:15Z</time>
      </trkpt>
      <trkpt lat="43.28731" lon="6.10977">
        <ele>275</ele>
        <time>2017-03-04T23:46:35Z</time>
      </trkpt>
      <trkpt lat="43.28703" lon="6.10911">
        <ele>288</ele>
        <time>2017-03-04T23:46:55Z</time>
      </trkpt>
      <trkpt lat="43.28628" lon="6.10816">
        <ele>287</ele>
        <time>2017-03-04T23:47:15Z</time>
      </trkpt>
      <trkpt lat="43.2862" lon="6.10748">
        <ele>301</ele>
        <time>2017-03-04T23:47:35Z</time>
      </trkpt>
      <trkpt lat="43.28565" lon="6.10619">
        <ele>302</ele>
        <time>2017-03-04T23:47:55Z</time>
      </trkpt>
      <trkpt lat="43.28532" lon="6.10587">
        <ele>299</ele>
        <time>2017-03-04T23:48:15Z</time>
      </trkpt>
      <trkpt lat="43.28498" lon="6.10486">
        <ele>311</ele>
        <time>2017-03-04T23:48:35Z</time>
      </trkpt>
      <trkpt lat="43.2845" lon="6.10374">
        <ele>317</ele>
        <time>2017-03-04T23:48:55Z</time>
      </trkpt>
      <trkpt lat="43.28456" lon="6.10291">
        <ele>321</ele>
        <time>2017-03-04T23:49:15Z</time>
      </trkpt>
      <trkpt lat="43.28493" lon="6.10215">
        <ele>331</ele>
        <time>2017-03-04T23:49:35Z</time>
      </trkpt>
      <trkpt lat="43.2849" lon="6.1016">
        <ele>341</ele>
        <time>2017-03-04T23:49:55Z</time>
      </trkpt>
      <trkpt lat="43.28445" lon="6.10147">
        <ele>334</ele>
        <time>2017-03-04T23:50:15Z</time>
      </trkpt>
      <trkpt lat="43.28431" lon="6.10115">
        <ele>336</ele>
        <time>2017-03-04T23:50:35Z</time>
      </trkpt>
      <trkpt lat="43.28478" lon="6.10044">
        <ele>354</ele>
        <time>2017-03-04T23:50:55Z</time>
      </trkpt>
      <trkpt lat="43.28415" lon="6.10005">
        <ele>350</ele>
        <time>2017-03-04T23:51:15Z</time>
      </trkpt>
      <trkpt lat="43.28376" lon="6.09962">
        <ele>348</ele>
        <time>2017-03-04T23:51:35Z</time>
      </trkpt>
      <trkpt lat="43.28409" lon="6.09939">
        <ele>355</ele>
        <time>2017-03-04T23:51:55Z</time>
      </trkpt>
      <trkpt lat="43.28472" lon="6.09949">
        <ele>367</ele>
        <time>2017-03-04T23:52:15Z</time>
      </trkpt>
      <trkpt lat="43.28454" lon="6.09913">
        <ele>372</ele>
        <time>2017-03-04T23:52:35Z</time>
      </trkpt>
      <trkpt lat="43.28492" lon="6.09872">
        <ele>375</ele>
        <time>2017-03-04T23:52:55Z</time>
      </trkpt>
      <trkpt lat="43.28526" lon="6.09891">
        <ele>386</ele>
        <time>2017-03-04T23:53:15Z</time>
      </trkpt>
      <trkpt lat="43.28554" lon="6.09891">
        <ele>389</ele>
        <time>2017-03-04T23:53:35Z</time>
      </trkpt>
      <trkpt lat="43.2857" lon="6.09872">
        <ele>392</ele>
        <time>2017-03-04T23:53:55Z</time>
      </trkpt>
      <trkpt lat="43.28645" lon="6.09973">
        <ele>402</ele>
        <time>2017-03-04T23:54:15Z</time>
      </trkpt>
      <trkpt lat="43.28661" lon="6.1007">
        <ele>398</ele>
        <time>2017-03-04T23:54:35Z</time>
      </trkpt>
      <trkpt lat="43.28678" lon="6.10074">
        <ele>413</ele>
        <time>2017-03-04T23:54:55Z</time>
      </trkpt>
      <trkpt lat="43.28693" lon="6.09949">
        <ele>430</ele>
        <time>2017-03-04T23:55:15Z</time>
      </trkpt>
      <trkpt lat="43.28659" lon="6.09842">
        <ele>425</ele>
        <time>2017-03-04T23:55:35Z</time>
      </trkpt>
      <trkpt lat="43.2864" lon="6.0972">
        <ele>437</ele>
        <time>2017-03-04T23:55:55Z</time>
      </trkpt>
      <trkpt lat="43.28632" lon="6.09645">
        <ele>451</ele>
        <time>2017-03-04T23:56:15Z</time>
      </trkpt>
      <trkpt lat="43.28589" lon="6.09623">
        <ele>448</ele>
        <time>2017-03-04T23:56:35Z</time>
      </trkpt>
      <trkpt lat="43.28531" lon="6.09555">
        <ele>447</ele>
        <time>2017-03-04T23:56:55Z</time>
      </trkpt>
      <trkpt lat="43.28531" lon="6.09445">
        <ele>455</ele>
        <time>2017-03-04T23:57:15Z</time>
      </trkpt>
      <trkpt lat="43.28567" lon="6.09338">
        <ele>457</ele>
        <time>2017-03-04T23:57:35Z</time>
      </trkpt>
      <trkpt lat="43.2855" lon="6.09286">
        <ele>460</ele>
        <time>2017-03-04T23:57:55Z</time>
      </trkpt>
      <trkpt lat="43.28515" lon="6.09248">
        <ele>466</ele>
        <time>2017-03-04T23:58:15Z</time>
      </trkpt>
      <trkpt lat="43.28532" lon="6.09216">
        <ele>463</ele>
        <time>2017-03-04T23:58:35Z</time>
      </trkpt>
      <trkpt lat="43.28564" lon="6.08973">
        <ele>466</ele>
        <time>2017-03-04T23:58:55Z</time>
      </trkpt>
      <trkpt lat="43.28545" lon="6.08874">
        <ele>463</ele>
        <time>2017-03-04T23:59:15Z</time>
      </trkpt>
      <trkpt lat="43.28498" lon="6.08823">
        <ele>472</ele>
        <time>2017-03-04T23:59:35Z</time>
      </trkpt>
      <trkpt lat="43.28434" lon="6.08819">
        <ele>478</ele>
        <time>2017-03-04T23:59:55Z</time>
      </trkpt>
      <trkpt lat="43.28353" lon="6.08763">
        <ele>489</ele>
        <time>2017-03-05T00:00:15Z</time>
      </trkpt>
      <trkpt lat="43.28403" lon="6.08735">
        <ele>485</ele>
        <time>2017-03-05T00:00:35Z</time>
      </trkpt>
      <trkpt lat="43.28495" lon="6.08638">
        <ele>479</ele>
        <time>2017-03-05T00:00:55Z</time>
      </trkpt>
      <trkpt lat="43.28495" lon="6.08638">
        <ele>479</ele>
        <time>2017-03-05T00:01:15Z</time>
      </trkpt>
      <trkpt lat="43.2847" lon="6.0857">
        <ele>476</ele>
        <time>2017-03-05T00:01:35Z</time>
      </trkpt>
      <trkpt lat="43.28381" lon="6.08527">
        <ele>485</ele>
        <time>2017-03-05T00:01:55Z</time>
      </trkpt>
      <trkpt lat="43.28358" lon="6.08488">
        <ele>482</ele>
        <time>2017-03-05T00:02:15Z</time>
      </trkpt>
      <trkpt lat="43.28359" lon="6.08368">
        <ele>473</ele>
        <time>2017-03-05T00:02:35Z</time>
      </trkpt>
      <trkpt lat="43.28337" lon="6.08319">
        <ele>473</ele>
        <time>2017-03-05T00:02:55Z</time>
      </trkpt>
      <trkpt lat="43.28275" lon="6.08263">
        <ele>487</ele>
        <time>2017-03-05T00:03:15Z</time>
      </trkpt>
      <trkpt lat="43.2837" lon="6.08188">
        <ele>475</ele>
        <time>2017-03-05T00:03:35Z</time>
      </trkpt>
      <trkpt lat="43.28417" lon="6.08168">
        <ele>472</ele>
        <time>2017-03-05T00:03:55Z</time>
      </trkpt>
      <trkpt lat="43.28448" lon="6.08126">
        <ele>465</ele>
        <time>2017-03-05T00:04:15Z</time>
      </trkpt>
      <trkpt lat="43.28451" lon="6.07986">
        <ele>467</ele>
        <time>2017-03-05T00:04:35Z</time>
      </trkpt>
      <trkpt lat="43.2842" lon="6.07909">
        <ele>473</ele>
        <time>2017-03-05T00:04:55Z</time>
      </trkpt>
      <trkpt lat="43.28426" lon="6.07874">
        <ele>473</ele>
        <time>2017-03-05T00:05:15Z</time>
      </trkpt>
      <trkpt lat="43.28511" lon="6.07842">
        <ele>465</ele>
        <time>2017-03-05T00:05:35Z</time>
      </trkpt>
      <trkpt lat="43.28551" lon="6.07842">
        <ele>459</ele>
        <time>2017-03-05T00:05:55Z</time>
      </trkpt>
      <trkpt lat="43.28567" lon="6.07769">
        <ele>464</ele>
        <time>2017-03-05T00:06:15Z</time>
      </trkpt>
      <trkpt lat="43.28575" lon="6.07683">
        <ele>465</ele>
        <time>2017-03-05T00:06:35Z</time>
      </trkpt>
      <trkpt lat="43.28673" lon="6.07643">
        <ele>441</ele>
        <time>2017-03-05T00:06:55Z</time>
      </trkpt>
      <trkpt lat="43.28687" lon="6.07613">
        <ele>440</ele>
        <time>2017-03-05T00:07:15Z</time>
      </trkpt>
      <trkpt lat="43.28675" lon="6.07576">
        <ele>440</ele>
        <time>2017-03-05T00:07:35Z</time>
      </trkpt>
      <trkpt lat="43.28607" lon="6.07484">
        <ele>440</ele>
        <time>2017-03-05T00:07:55Z</time>
      </trkpt>
      <trkpt lat="43.28556" lon="6.07439">
        <ele>447</ele>
        <time>2017-03-05T00:08:15Z</time>
      </trkpt>
      <trkpt lat="43.28553" lon="6.07329">
        <ele>439</ele>
        <time>2017-03-05T00:08:35Z</time>
      </trkpt>
      <trkpt lat="43.286" lon="6.07244">
        <ele>437</ele>
        <time>2017-03-05T00:08:55Z</time>
      </trkpt>
      <trkpt lat="43.28656" lon="6.07027">
        <ele>422</ele>
        <time>2017-03-05T00:09:15Z</time>
      </trkpt>
      <trkpt lat="43.28653" lon="6.0693">
        <ele>423</ele>
        <time>2017-03-05T00:09:35Z</time>
      </trkpt>
      <trkpt lat="43.28723" lon="6.06757">
        <ele>431</ele>
        <time>2017-03-05T00:09:55Z</time>
      </trkpt>
      <trkpt lat="43.2872" lon="6.0672">
        <ele>438</ele>
        <time>2017-03-05T00:10:15Z</time>
      </trkpt>
      <trkpt lat="43.28701" lon="6.06669">
        <ele>442</ele>
        <time>2017-03-05T00:10:35Z</time>
      </trkpt>
      <trkpt lat="43.28696" lon="6.06606">
        <ele>456</ele>
        <time>2017-03-05T00:10:55Z</time>
      </trkpt>
      <trkpt lat="43.28717" lon="6.06572">
        <ele>469</ele>
        <time>2017-03-05T00:11:15Z</time>
      </trkpt>
      <trkpt lat="43.28853" lon="6.0651">
        <ele>456</ele>
        <time>2017-03-05T00:11:35Z</time>
      </trkpt>
      <trkpt lat="43.2887" lon="6.06439">
        <ele>465</ele>
        <time>2017-03-05T00:11:55Z</time>
      </trkpt>
      <trkpt lat="43.28875" lon="6.06293">
        <ele>486</ele>
        <time>2017-03-05T00:12:15Z</time>
      </trkpt>
      <trkpt lat="43.28895" lon="6.06224">
        <ele>497</ele>
        <time>2017-03-05T00:12:35Z</time>
      </trkpt>
      <trkpt lat="43.28921" lon="6.06177">
        <ele>489</ele>
        <time>2017-03-05T00:12:55Z</time>
      </trkpt>
      <trkpt lat="43.28951" lon="6.06008">
        <ele>517</ele>
        <time>2017-03-05T00:13:15Z</time>
      </trkpt>
      <trkpt lat="43.28946" lon="6.05866">
        <ele>538</ele>
        <time>2017-03-05T00:13:35Z</time>
      </trkpt>
      <trkpt lat="43.28882" lon="6.05791">
        <ele>581</ele>
        <time>2017-03-05T00:13:55Z</time>
      </trkpt>
      <trkpt lat="43.28907" lon="6.05598">
        <ele>601</ele>
        <time>2017-03-05T00:14:15Z</time>
      </trkpt>
      <trkpt lat="43.28951" lon="6.05531">
        <ele>601</ele>
        <time>2017-03-05T00:14:35Z</time>
      </trkpt>
      <trkpt lat="43.28945" lon="6.05501">
        <ele>603</ele>
        <time>2017-03-05T00:14:55Z</time>
      </trkpt>
      <trkpt lat="43.28843" lon="6.05533">
        <ele>619</ele>
        <time>2017-03-05T00:15:15Z</time>
      </trkpt>
      <trkpt lat="43.28821" lon="6.05559">
        <ele>635</ele>
        <time>2017-03-05T00:15:35Z</time>
      </trkpt>
      <trkpt lat="43.28771" lon="6.05576">
        <ele>643</ele>
        <time>2017-03-05T00:15:55Z</time>
      </trkpt>
      <trkpt lat="43.28762" lon="6.05619">
        <ele>645</ele>
        <time>2017-03-05T00:16:15Z</time>
      </trkpt>
      <trkpt lat="43.28714" lon="6.05658">
        <ele>658</ele>
        <time>2017-03-05T00:16:35Z</time>
      </trkpt>
      <trkpt lat="43.28661" lon="6.05808">
        <ele>675</ele>
        <time>2017-03-05T00:16:55Z</time>
      </trkpt>
      <trkpt lat="43.28662" lon="6.05845">
        <ele>679</ele>
        <time>2017-03-05T00:17:15Z</time>
      </trkpt>
      <trkpt lat="43.28606" lon="6.05926">
        <ele>682</ele>
        <time>2017-03-05T00:17:35Z</time>
      </trkpt>
      <trkpt lat="43.28575" lon="6.05952">
        <ele>680</ele>
        <time>2017-03-05T00:17:55Z</time>
      </trkpt>
      <trkpt lat="43.28539" lon="6.05915">
        <ele>682</ele>
        <time>2017-03-05T00:18:15Z</time>
      </trkpt>
      <trkpt lat="43.28504" lon="6.05898">
        <ele>678</ele>
        <time>2017-03-05T00:18:35Z</time>
      </trkpt>
      <trkpt lat="43.28478" lon="6.05862">
        <ele>662</ele>
        <time>2017-03-05T00:18:55Z</time>
      </trkpt>
      <trkpt lat="43.28437" lon="6.05838">
        <ele>654</ele>
        <time>2017-03-05T00:19:15Z</time>
      </trkpt>
      <trkpt lat="43.28386" lon="6.0572">
        <ele>630</ele>
        <time>2017-03-05T00:19:35Z</time>
      </trkpt>
      <trkpt lat="43.28383" lon="6.05639">
        <ele>624</ele>
        <time>2017-03-05T00:19:55Z</time>
      </trkpt>
      <trkpt lat="43.28364" lon="6.05598">
        <ele>618</ele>
        <time>2017-03-05T00:20:15Z</time>
      </trkpt>
      <trkpt lat="43.28359" lon="6.05553">
        <ele>610</ele>
        <time>2017-03-05T00:20:35Z</time>
      </trkpt>
      <trkpt lat="43.28309" lon="6.05514">
        <ele>593</ele>
        <time>2017-03-05T00:20:55Z</time>
      </trkpt>
      <trkpt lat="43.28295" lon="6.05463">
        <ele>593</ele>
        <time>2017-03-05T00:21:15Z</time>
      </trkpt>
      <trkpt lat="43.28254" lon="6.054">
        <ele>591</ele>
        <time>2017-03-05T00:21:35Z</time>
      </trkpt>
      <trkpt lat="43.28226" lon="6.05403">
        <ele>589</ele>
        <time>2017-03-05T00:21:55Z</time>
      </trkpt>
      <trkpt lat="43.281" lon="6.0528">
        <ele>603</ele>
        <time>2017-03-05T00:22:15Z</time>
      </trkpt>
      <trkpt lat="43.28072" lon="6.05274">
        <ele>604</ele>
        <time>2017-03-05T00:22:35Z</time>
      </trkpt>
      <trkpt lat="43.28039" lon="6.05246">
        <ele>615</ele>
        <time>2017-03-05T00:22:55Z</time>
      </trkpt>
      <trkpt lat="43.28022" lon="6.05254">
        <ele>605</ele>
        <time>2017-03-05T00:23:15Z</time>
      </trkpt>
      <trkpt lat="43.27965" lon="6.05203">
        <ele>618</ele>
        <time>2017-03-05T00:23:35Z</time>
      </trkpt>
      <trkpt lat="43.2793" lon="6.05197">
        <ele>619</ele>
        <time>2017-03-05T00:23:55Z</time>
      </trkpt>
      <trkpt lat="43.27901" lon="6.05145">
        <ele>630</ele>
        <time>2017-03-05T00:24:15Z</time>
      </trkpt>
      <trkpt lat="43.27883" lon="6.05158">
        <ele>628</ele>
        <time>2017-03-05T00:24:35Z</time>
      </trkpt>
      <trkpt lat="43.27823" lon="6.05136">
        <ele>613</ele>
        <time>2017-03-05T00:24:55Z</time>
      </trkpt>
      <trkpt lat="43.27772" lon="6.0504">
        <ele>626</ele>
        <time>2017-03-05T00:25:15Z</time>
      </trkpt>
      <trkpt lat="43.27742" lon="6.05025">
        <ele>610</ele>
        <time>2017-03-05T00:25:35Z</time>
      </trkpt>
      <trkpt lat="43.27703" lon="6.04868">
        <ele>604</ele>
        <time>2017-03-05T00:25:55Z</time>
      </trkpt>
      <trkpt lat="43.27717" lon="6.04836">
        <ele>606</ele>
        <time>2017-03-05T00:26:15Z</time>
      </trkpt>
      <trkpt lat="43.27672" lon="6.04742">
        <ele>597</ele>
        <time>2017-03-05T00:26:35Z</time>
      </trkpt>
      <trkpt lat="43.27584" lon="6.04636">
        <ele>595</ele>
        <time>2017-03-05T00:26:55Z</time>
      </trkpt>
      <trkpt lat="43.27537" lon="6.04602">
        <ele>597</ele>
        <time>2017-03-05T00:27:15Z</time>
      </trkpt>
      <trkpt lat="43.2748" lon="6.04589">
        <ele>594</ele>
        <time>2017-03-05T00:27:35Z</time>
      </trkpt>
      <trkpt lat="43.27367" lon="6.04499">
        <ele>626</ele>
        <time>2017-03-05T00:27:55Z</time>
      </trkpt>
      <trkpt lat="43.27267" lon="6.04473">
        <ele>632</ele>
        <time>2017-03-05T00:28:15Z</time>
      </trkpt>
      <trkpt lat="43.27227" lon="6.04422">
        <ele>644</ele>
        <time>2017-03-05T00:28:35Z</time>
      </trkpt>
      <trkpt lat="43.27122" lon="6.04392">
        <ele>668</ele>
        <time>2017-03-05T00:28:55Z</time>
      </trkpt>
      <trkpt lat="43.27094" lon="6.04409">
        <ele>663</ele>
        <time>2017-03-05T00:29:15Z</time>
      </trkpt>
      <trkpt lat="43.27042" lon="6.04358">
        <ele>663</ele>
        <time>2017-03-05T00:29:35Z</time>
      </trkpt>
      <trkpt lat="43.27016" lon="6.04338">
        <ele>665</ele>
        <time>2017-03-05T00:29:55Z</time>
      </trkpt>
      <trkpt lat="43.26977" lon="6.04289">
        <ele>670</ele>
        <time>2017-03-05T00:30:15Z</time>
      </trkpt>
      <trkpt lat="43.26911" lon="6.04259">
        <ele>659</ele>
        <time>2017-03-05T00:30:35Z</time>
      </trkpt>
      <trkpt lat="43.26898" lon="6.04225">
        <ele>663</ele>
        <time>2017-03-05T00:30:55Z</time>
      </trkpt>
      <trkpt lat="43.26872" lon="6.04197">
        <ele>659</ele>
        <time>2017-03-05T00:31:15Z</time>
      </trkpt>
      <trkpt lat="43.26841" lon="6.04132">
        <ele>664</ele>
        <time>2017-03-05T00:31:35Z</time>
      </trkpt>
      <trkpt lat="43.26798" lon="6.03956">
        <ele>640</ele>
        <time>2017-03-05T00:31:55Z</time>
      </trkpt>
      <trkpt lat="43.26809" lon="6.03918">
        <ele>648</ele>
        <time>2017-03-05T00:32:15Z</time>
      </trkpt>
      <trkpt lat="43.26792" lon="6.03881">
        <ele>639</ele>
        <time>2017-03-05T00:32:35Z</time>
      </trkpt>
      <trkpt lat="43.26789" lon="6.03815">
        <ele>635</ele>
        <time>2017-03-05T00:32:55Z</time>
      </trkpt>
      <trkpt lat="43.26733" lon="6.03669">
        <ele>611</ele>
        <time>2017-03-05T00:33:15Z</time>
      </trkpt>
      <trkpt lat="43.26727" lon="6.03632">
        <ele>610</ele>
        <time>2017-03-05T00:33:35Z</time>
      </trkpt>
      <trkpt lat="43.267" lon="6.03619">
        <ele>607</ele>
        <time>2017-03-05T00:33:55Z</time>
      </trkpt>
      <trkpt lat="43.26655" lon="6.03531">
        <ele>612</ele>
        <time>2017-03-05T00:34:15Z</time>
      </trkpt>
      <trkpt lat="43.26606" lon="6.03531">
        <ele>611</ele>
        <time>2017-03-05T00:34:35Z</time>
      </trkpt>
      <trkpt lat="43.26583" lon="6.03493">
        <ele>622</ele>
        <time>2017-03-05T00:34:55Z</time>
      </trkpt>
      <trkpt lat="43.26545" lon="6.03431">
        <ele>611</ele>
        <time>2017-03-05T00:35:15Z</time>
      </trkpt>
      <trkpt lat="43.26528" lon="6.03379">
        <ele>609</ele>
        <time>2017-03-05T00:35:35Z</time>
      </trkpt>
      <trkpt lat="43.26511" lon="6.03388">
        <ele>606</ele>
        <time>2017-03-05T00:35:55Z</time>
      </trkpt>
      <trkpt lat="43.26497" lon="6.03315">
        <ele>586</ele>
        <time>2017-03-05T00:36:15Z</time>
      </trkpt>
      <trkpt lat="43.26508" lon="6.03283">
        <ele>599</ele>
        <time>2017-03-05T00:36:35Z</time>
      </trkpt>
      <trkpt lat="43.26473" lon="6.0325">
        <ele>577</ele>
        <time>2017-03-05T00:36:55Z</time>
      </trkpt>
      <trkpt lat="43.26473" lon="6.03156">
        <ele>573</ele>
        <time>2017-03-05T00:37:15Z</time>
      </trkpt>
      <trkpt lat="43.26414" lon="6.03049">
        <ele>558</ele>
        <time>2017-03-05T00:37:35Z</time>
      </trkpt>
      <trkpt lat="43.26408" lon="6.02991">
        <ele>574</ele>
        <time>2017-03-05T00:37:55Z</time>
      </trkpt>
      <trkpt lat="43.26367" lon="6.02907">
        <ele>582</ele>
        <time>2017-03-05T00:38:15Z</time>
      </trkpt>
      <trkpt lat="43.2632" lon="6.02913">
        <ele>572</ele>
        <time>2017-03-05T00:38:35Z</time>
      </trkpt>
      <trkpt lat="43.26314" lon="6.02886">
        <ele>573</ele>
        <time>2017-03-05T00:38:55Z</time>
      </trkpt>
      <trkpt lat="43.26142" lon="6.02712">
        <ele>579</ele>
        <time>2017-03-05T00:39:15Z</time>
      </trkpt>
      <trkpt lat="43.26091" lon="6.02673">
        <ele>586</ele>
        <time>2017-03-05T00:39:35Z</time>
      </trkpt>
      <trkpt lat="43.2608" lon="6.02645">
        <ele>585</ele>
        <time>2017-03-05T00:39:55Z</time>
      </trkpt>
      <trkpt lat="43.26027" lon="6.02624">
        <ele>576</ele>
        <time>2017-03-05T00:40:15Z</time>
      </trkpt>
      <trkpt lat="43.25994" lon="6.02534">
        <ele>577</ele>
        <time>2017-03-05T00:40:35Z</time>
      </trkpt>
      <trkpt lat="43.25973" lon="6.02489">
        <ele>594</ele>
        <time>2017-03-05T00:40:55Z</time>
      </trkpt>
      <trkpt lat="43.25917" lon="6.02476">
        <ele>581</ele>
        <time>2017-03-05T00:41:15Z</time>
      </trkpt>
      <trkpt lat="43.25906" lon="6.02398">
        <ele>581</ele>
        <time>2017-03-05T00:41:35Z</time>
      </trkpt>
      <trkpt lat="43.25844" lon="6.02287">
        <ele>582</ele>
        <time>2017-03-05T00:41:55Z</time>
      </trkpt>
      <trkpt lat="43.25812" lon="6.02135">
        <ele>571</ele>
        <time>2017-03-05T00:42:15Z</time>
      </trkpt>
      <trkpt lat="43.2577" lon="6.02006">
        <ele>559</ele>
        <time>2017-03-05T00:42:35Z</time>
      </trkpt>
      <trkpt lat="43.25725" lon="6.01783">
        <ele>543</ele>
        <time>2017-03-05T00:42:55Z</time>
      </trkpt>
      <trkpt lat="43.25725" lon="6.01783">
        <ele>543</ele>
        <time>2017-03-05T00:43:15Z</time>
      </trkpt>
      <trkpt lat="43.25684" lon="6.01808">
        <ele>533</ele>
        <time>2017-03-05T00:43:35Z</time>
      </trkpt>
      <trkpt lat="43.25662" lon="6.01774">
        <ele>516</ele>
        <time>2017-03-05T00:43:55Z</time>
      </trkpt>
      <trkpt lat="43.25612" lon="6.01757">
        <ele>503</ele>
        <time>2017-03-05T00:44:15Z</time>
      </trkpt>
      <trkpt lat="43.25542" lon="6.0165">
        <ele>481</ele>
        <time>2017-03-05T00:44:35Z</time>
      </trkpt>
      <trkpt lat="43.255" lon="6.01512">
        <ele>447</ele>
        <time>2017-03-05T00:44:55Z</time>
      </trkpt>
      <trkpt lat="43.25505" lon="6.01422">
        <ele>451</ele>
        <time>2017-03-05T00:45:15Z</time>
      </trkpt>
      <trkpt lat="43.25433" lon="6.01278">
        <ele>421</ele>
        <time>2017-03-05T00:45:35Z</time>
      </trkpt>
      <trkpt lat="43.25403" lon="6.013">
        <ele>402</ele>
        <time>2017-03-05T00:45:55Z</time>
      </trkpt>
      <trkpt lat="43.25394" lon="6.0127">
        <ele>402</ele>
        <time>2017-03-05T00:46:15Z</time>
      </trkpt>
      <trkpt lat="43.25295" lon="6.01285">
        <ele>379</ele>
        <time>2017-03-05T00:46:35Z</time>
      </trkpt>
      <trkpt lat="43.25258" lon="6.01313">
        <ele>373</ele>
        <time>2017-03-05T00:46:55Z</time>
      </trkpt>
      <trkpt lat="43.25205" lon="6.01328">
        <ele>358</ele>
        <time>2017-03-05T00:47:15Z</time>
      </trkpt>
      <trkpt lat="43.25145" lon="6.0127">
        <ele>345</ele>
        <time>2017-03-05T00:47:35Z</time>
      </trkpt>
      <trkpt lat="43.25098" lon="6.01246">
        <ele>338</ele>
        <time>2017-03-05T00:47:55Z</time>
      </trkpt>
      <trkpt lat="43.25053" lon="6.0119">
        <ele>332</ele>
        <time>2017-03-05T00:48:15Z</time>
      </trkpt>
      <trkpt lat="43.25001" lon="6.01139">
        <ele>324</ele>
        <time>2017-03-05T00:48:35Z</time>
      </trkpt>
      <trkpt lat="43.24994" lon="6.01072">
        <ele>311</ele>
        <time>2017-03-05T00:48:55Z</time>
      </trkpt>
      <trkpt lat="43.25022" lon="6.00965">
        <ele>315</ele>
        <time>2017-03-05T00:49:15Z</time>
      </trkpt>
      <trkpt lat="43.24994" lon="6.00864">
        <ele>299</ele>
        <time>2017-03-05T00:49:35Z</time>
      </trkpt>
      <trkpt lat="43.24937" lon="6.00768">
        <ele>295</ele>
        <time>2017-03-05T00:49:55Z</time>
      </trkpt>
      <trkpt lat="43.24909" lon="6.00708">
        <ele>286</ele>
        <time>2017-03-05T00:50:15Z</time>
      </trkpt>
      <trkpt lat="43.24834" lon="6.00673">
        <ele>269</ele>
        <time>2017-03-05T00:50:35Z</time>
      </trkpt>
      <trkpt lat="43.24851" lon="6.0065">
        <ele>278</ele>
        <time>2017-03-05T00:50:55Z</time>
      </trkpt>
      <trkpt lat="43.2479" lon="6.00506">
        <ele>249</ele>
        <time>2017-03-05T00:51:15Z</time>
      </trkpt>
      <trkpt lat="43.24745" lon="6.00502">
        <ele>235</ele>
        <time>2017-03-05T00:51:35Z</time>
      </trkpt>
      <trkpt lat="43.24734" lon="6.00519">
        <ele>230</ele>
        <time>2017-03-05T00:51:55Z</time>
      </trkpt>
      <trkpt lat="43.24667" lon="6.00502">
        <ele>218</ele>
        <time>2017-03-05T00:52:15Z</time>
      </trkpt>
      <trkpt lat="43.24629" lon="6.00469">
        <ele>204</ele>
        <time>2017-03-05T00:52:35Z</time>
      </trkpt>
      <trkpt lat="43.24617" lon="6.00418">
        <ele>199</ele>
        <time>2017-03-05T00:52:55Z</time>
      </trkpt>
      <trkpt lat="43.24565" lon="6.0045">
        <ele>189</ele>
        <time>2017-03-05T00:53:15Z</time>
      </trkpt>
      <trkpt lat="43.245" lon="6.00251">
        <ele>164</ele>
        <time>2017-03-05T00:53:35Z</time>
      </trkpt>
      <trkpt lat="43.24457" lon="6.00169">
        <ele>168</ele>
        <time>2017-03-05T00:53:55Z</time>
      </trkpt>
      <trkpt lat="43.24446" lon="6.00104">
        <ele>162</ele>
        <time>2017-03-05T00:54:15Z</time>
      </trkpt>
      <trkpt lat="43.24454" lon="6.00048">
        <ele>158</ele>
        <time>2017-03-05T00:54:35Z</time>
      </trkpt>
      <trkpt lat="43.24547" lon="6.00025">
        <ele>159</ele>
        <time>2017-03-05T00:54:55Z</time>
      </trkpt>
    </trkseg>
  </trk>
</gpx>